[[{"header":{"parameterUnit":"m.s-1","parameterCategory":1,"la1":30.6,"la2":29.2853,"lo1":-89.7004,"lo2":-87.6739,"dy":0.0162,"dx":0.0183,"nx":112,"ny":82,"refTime":"2023-04-30T00:00:00:Z","depth":0,"parameterNumber":2,"parameterNumberName":"U-component_of_WINDS"},"data":[0.0,0.0,0.0,0.0,0.0,0.0,0.0,0.0,0.0,0.0,0.0,0.0,0.0,0.0,0.0,0.0,0.0,0.0,0.0,0.0,0.0,0.0,0.0,0.0,0.0,0.0,0.0,0.0,0.0,0.0,0.0,0.0,0.0,0.0,0.0,0.0,0.0,0.0,0.0,0.0,0.0,0.0,0.0,0.0,0.0,0.0,0.0,0.0,0.0,0.0,0.0,0.0,0.0,0.0,0.0,0.0,0.0,0.0,0.0,0.0,0.0,0.0,0.0,0.0,0.0,0.0,0.0,0.0,0.0,0.0,0.0,0.0,0.0,0.0,0.0,0.0,0.0,0.0,0.0,0.0,0.0,0.0,0.0,0.0,0.0,0.0,0.0,0.0,0.0,0.0,0.0,1.8584,2.2472,2.4695,2.4701,2.4457,2.2856,1.9408,0.0,0.0,0.0,0.0,0.0,0.0,0.0,0.0,0.0,0.0,0.0,0.0,0.0,0.0,0.0,0.0,0.0,0.0,0.0,0.0,0.0,0.0,0.0,0.0,0.0,0.0,0.0,0.0,0.0,0.0,0.0,0.0,0.0,0.0,0.0,0.0,0.0,0.0,0.0,0.0,0.0,0.0,0.0,0.0,0.0,0.0,0.0,0.0,0.0,0.0,0.0,0.0,0.0,0.0,0.0,0.0,0.0,0.0,0.0,0.0,0.0,0.0,0.0,0.0,0.0,0.0,0.0,0.0,0.0,0.0,0.0,0.0,0.0,0.0,0.0,0.0,0.0,0.0,0.0,0.0,0.0,0.0,0.0,0.0,0.0,0.0,0.0,0.0,0.0,0.0,0.0,0.0,0.0,0.0,0.0,0.0,0.0,0.0,0.0,0.0,0.0,0.0,0.0,0.0,1.687,2.1934,2.3761,2.4631,2.4701,2.3409,2.1593,1.9266,0.0,0.0,0.0,0.0,0.0,0.0,0.0,0.0,0.0,0.0,0.0,0.0,0.0,0.0,0.0,0.0,0.0,0.0,0.0,0.0,0.0,0.0,0.0,0.0,0.0,0.0,0.0,0.0,0.0,0.0,0.0,0.0,0.0,0.0,0.0,0.0,0.0,0.0,0.0,0.0,0.0,0.0,0.0,0.0,0.0,0.0,0.0,0.0,0.0,0.0,0.0,0.0,0.0,0.0,0.0,0.0,0.0,0.0,0.0,0.0,0.0,0.0,0.0,0.0,0.0,0.0,0.0,0.0,0.0,0.0,0.0,0.0,0.0,0.0,0.0,0.0,0.0,0.0,0.0,0.0,0.0,0.0,0.0,0.0,0.0,0.0,0.0,0.0,0.0,0.0,0.0,0.0,0.0,0.0,0.0,0.0,0.0,0.0,0.0,0.0,0.0,0.0,0.0,1.4825,1.9054,2.2168,2.3719,2.4568,2.4584,2.3058,2.1377,1.9684,1.8451,0.0,0.0,0.0,0.0,0.0,0.0,0.0,0.0,0.0,0.0,0.0,0.0,0.0,0.0,0.0,0.0,0.0,0.0,0.0,0.0,0.0,0.0,0.0,0.0,0.0,0.0,0.0,0.0,0.0,0.0,0.0,0.0,0.0,0.0,0.0,0.0,0.0,0.0,0.0,0.0,0.0,0.0,0.0,0.0,0.0,0.0,0.0,0.0,0.0,0.0,0.0,0.0,0.0,0.0,0.0,0.0,0.0,0.0,0.0,0.0,0.0,0.0,0.0,0.0,0.0,0.0,0.0,0.0,0.0,0.0,0.0,0.0,0.0,0.0,0.0,0.0,0.0,0.0,0.0,0.0,0.0,0.0,0.0,0.0,0.0,0.0,0.0,0.0,0.0,0.0,0.0,0.0,0.0,0.0,0.0,0.0,0.0,0.0,0.0,0.0,0.0,0.0,1.6828,1.9899,2.2004,2.324,2.3981,2.4185,2.2664,2.1119,1.9794,1.7872,0.0,0.0,0.0,0.0,0.0,0.0,0.0,0.0,0.0,0.0,0.0,0.0,0.0,0.0,0.0,0.0,0.0,0.0,0.0,0.0,0.0,0.0,0.0,0.0,0.0,0.0,0.0,0.0,0.0,0.0,0.0,0.0,0.0,0.0,0.0,0.0,0.0,0.0,0.0,0.0,0.0,0.0,0.0,0.0,0.0,0.0,0.0,0.0,0.0,0.0,0.0,0.0,0.0,0.0,0.0,0.0,0.0,0.0,0.0,0.0,0.0,0.0,0.0,0.0,0.0,0.0,0.0,0.0,0.0,0.0,0.0,0.0,0.0,0.0,0.0,0.0,0.0,0.0,0.0,0.0,0.0,0.0,0.0,0.0,0.0,0.0,0.0,0.0,0.0,0.0,0.0,0.0,0.0,0.0,0.0,0.0,0.0,0.0,0.0,0.0,0.0,0.0,1.6925,1.8803,2.2787,2.2603,2.2479,2.3242,2.1747,2.023,1.8878,1.7771,0.0,0.0,0.0,0.0,0.0,0.0,0.0,0.0,0.0,0.0,0.0,0.0,0.0,0.0,0.0,0.0,0.0,0.0,0.0,0.0,0.0,0.0,0.0,0.0,0.0,0.0,0.0,0.0,0.0,0.0,0.0,0.0,0.0,0.0,0.0,0.0,0.0,0.0,0.0,0.0,0.0,0.0,0.0,0.0,0.0,0.0,0.0,0.0,0.0,0.0,0.0,0.0,0.0,0.0,0.0,0.0,0.0,0.0,0.0,0.0,0.0,0.0,0.0,0.0,0.0,0.0,0.0,0.0,0.0,0.0,0.0,0.0,0.0,0.0,0.0,0.0,0.0,0.0,0.0,0.0,0.0,0.0,0.0,0.0,0.0,0.0,0.0,0.0,0.0,0.0,0.0,0.0,0.0,0.0,0.0,0.0,0.0,0.0,0.0,0.0,0.0,0.0,1.7286,1.9364,0.0,2.1738,2.1994,2.231,2.1265,2.017,1.9257,0.0,0.0,0.0,0.0,0.0,0.0,0.0,0.0,0.0,0.0,0.0,0.0,0.0,0.0,0.0,0.0,0.0,0.0,0.0,0.0,0.0,0.0,0.0,0.0,0.0,0.0,0.0,0.0,0.0,0.0,0.0,0.0,0.0,0.0,0.0,0.0,0.0,0.0,0.0,0.0,0.0,0.0,0.0,0.0,0.0,0.0,0.0,0.0,0.0,0.0,0.0,0.0,0.0,0.0,0.0,0.0,0.0,0.0,0.0,0.0,0.0,0.0,0.0,0.0,0.0,0.0,0.0,0.0,0.0,0.0,0.0,0.0,0.0,0.0,0.0,0.0,0.0,0.0,0.0,0.0,0.0,0.0,0.0,0.0,0.0,0.0,0.0,0.0,0.0,0.0,0.0,0.0,0.0,0.0,0.0,0.0,0.0,0.0,0.0,0.0,0.0,0.0,1.5017,1.7682,1.9775,0.0,2.0876,2.1279,2.1763,2.0996,2.0101,1.9152,0.0,0.0,0.0,0.0,0.0,0.0,0.0,0.0,0.0,0.0,0.0,0.0,0.0,0.0,0.0,0.0,0.0,0.0,0.0,0.0,0.0,0.0,0.0,0.0,0.0,0.0,0.0,0.0,0.0,0.0,0.0,0.0,0.0,0.0,0.0,0.0,0.0,0.0,0.0,0.0,0.0,0.0,0.0,0.0,0.0,0.0,0.0,0.0,0.0,0.0,0.0,0.0,0.0,0.0,0.0,0.0,0.0,0.0,0.0,0.0,0.0,0.0,0.0,0.0,0.0,0.0,0.0,0.0,0.0,0.0,0.0,0.0,0.0,0.0,0.0,0.0,0.0,0.0,0.0,0.0,0.0,0.0,0.0,0.0,0.0,0.0,0.0,0.0,0.0,0.0,0.0,0.0,0.0,0.0,0.0,0.0,0.0,0.0,0.0,0.0,0.0,0.0,1.5974,1.8039,1.98,2.0596,1.9985,2.0141,2.1651,2.0994,1.9847,0.0,0.0,0.0,0.0,0.0,0.0,0.0,0.0,0.0,0.0,0.0,0.0,0.0,0.0,0.0,0.0,0.0,0.0,0.0,0.0,0.0,0.0,0.0,0.0,0.0,0.0,0.0,0.0,0.0,0.0,0.0,0.0,0.0,0.0,0.0,0.0,0.0,0.0,0.0,0.0,0.0,0.0,0.0,0.0,0.0,0.0,0.0,0.0,0.0,0.0,0.0,0.0,0.0,0.0,0.0,0.0,0.0,0.0,0.0,0.0,0.0,0.0,0.0,0.0,0.0,0.0,0.0,0.0,0.0,0.0,0.0,0.0,0.0,0.0,0.0,0.0,0.0,0.0,0.0,0.0,0.0,0.0,0.0,0.0,0.0,0.0,0.0,0.0,0.0,0.0,0.0,0.0,0.0,0.0,0.0,0.0,0.0,0.0,0.0,0.0,0.0,0.0,0.0,1.5834,1.78,1.9253,1.9357,1.9819,2.0237,2.0517,2.0953,2.0261,1.8059,0.0,0.0,0.0,0.0,0.0,0.0,0.0,0.0,0.0,0.0,0.0,0.0,0.0,0.0,0.0,0.0,0.0,0.0,0.0,0.0,0.0,0.0,0.0,0.0,0.0,0.0,0.0,0.0,0.0,0.0,0.0,0.0,0.0,0.0,0.0,0.0,0.0,0.0,0.0,0.0,0.0,0.0,0.0,0.0,0.0,0.0,0.0,0.0,0.0,0.0,0.0,0.0,0.0,0.0,0.0,0.0,0.0,0.0,0.0,0.0,0.0,0.0,0.0,0.0,0.0,0.0,0.0,0.0,0.0,0.0,0.0,0.0,0.0,0.0,0.0,0.0,0.0,0.0,0.0,0.0,0.0,0.0,0.0,0.0,0.0,0.0,0.0,0.0,0.0,0.0,0.0,0.0,0.0,0.0,0.0,0.0,0.0,0.0,0.0,0.0,0.0,0.0,1.5592,1.7664,1.9226,1.9345,1.9973,2.057,2.0982,2.1583,2.1082,1.9078,0.0,0.0,0.0,0.0,0.0,0.0,0.0,0.0,0.0,0.0,0.0,0.0,0.0,0.0,0.0,0.0,0.0,0.0,0.0,0.0,0.0,0.0,0.0,0.0,0.0,0.0,0.0,0.0,0.0,0.0,0.0,0.0,0.0,0.0,0.0,0.0,0.0,0.0,0.0,0.0,0.0,0.0,0.0,0.0,0.0,0.0,0.0,0.0,0.0,0.0,0.0,0.0,0.0,0.0,0.0,0.0,0.0,0.0,0.0,0.0,0.0,0.0,0.0,0.0,0.0,0.0,0.0,0.0,0.0,0.0,0.0,0.0,0.0,0.0,0.0,0.0,0.0,0.0,0.0,0.0,0.0,0.0,0.0,0.0,0.0,0.0,0.0,0.0,0.0,0.0,0.0,0.0,0.0,0.0,0.0,0.0,0.0,0.0,0.0,0.0,0.0,0.0,1.5412,1.779,1.9674,2.0246,2.0481,2.1152,2.247,2.265,2.2126,2.0771,0.0,0.0,0.0,0.0,0.0,0.0,0.0,0.0,0.0,0.0,0.0,0.0,0.0,0.0,0.0,0.0,0.0,0.0,0.0,0.0,0.0,0.0,0.0,0.0,0.0,0.0,0.0,0.0,0.0,0.0,0.0,0.0,0.0,0.0,0.0,0.0,0.0,0.0,0.0,0.0,0.0,0.0,0.0,0.0,0.0,0.0,0.0,0.0,0.0,0.0,0.0,0.0,0.0,0.0,0.0,0.0,0.0,0.0,0.0,0.0,1.6576,0.0,0.0,0.0,0.0,0.0,0.0,0.0,0.0,0.0,0.0,0.0,0.0,0.0,0.0,0.0,0.0,0.0,0.0,0.0,0.0,0.0,0.0,0.0,0.0,0.0,0.0,0.0,0.0,0.0,0.0,0.0,0.0,0.0,0.0,0.0,0.0,0.0,0.0,0.0,0.0,0.0,1.6164,1.8838,2.0818,2.09,2.165,2.2193,2.2364,2.3106,2.2694,2.0673,2.0171,0.0,0.0,0.0,0.0,0.0,0.0,0.0,0.0,0.0,0.0,0.0,0.0,0.0,0.0,0.0,0.0,0.0,0.0,0.0,0.0,0.0,0.0,0.0,0.0,0.0,0.0,0.0,0.0,0.0,0.0,0.0,0.0,0.0,0.0,0.0,0.0,0.0,0.0,0.0,0.0,0.0,0.0,0.0,0.0,0.0,0.0,0.0,0.0,0.0,0.0,0.0,0.0,0.0,0.0,0.0,0.0,0.0,0.0,0.0,0.0,1.6581,0.0,0.0,0.0,0.0,0.0,0.0,0.0,0.0,0.0,0.0,0.0,0.0,0.0,0.0,0.0,0.0,0.0,0.0,0.0,0.0,0.0,0.0,0.0,0.0,0.0,0.0,0.0,0.0,0.0,0.0,0.0,0.0,0.0,0.0,0.0,0.0,0.0,0.0,0.0,0.0,1.6182,1.9,2.1046,2.1087,2.18,2.2216,2.203,2.2676,2.2583,2.1387,2.0297,0.0,0.0,0.0,0.0,0.0,0.0,0.0,0.0,0.0,0.0,0.0,0.0,0.0,0.0,0.0,0.0,0.0,0.0,0.0,0.0,0.0,0.0,0.0,0.0,0.0,0.0,0.0,0.0,0.0,0.0,0.0,0.0,0.0,0.0,0.0,0.0,0.0,0.0,0.0,0.0,0.0,0.0,0.0,0.0,0.0,0.0,0.0,0.0,0.0,0.0,0.0,0.0,0.0,2.0271,2.1132,2.0756,2.155,2.1259,2.0153,1.929,1.8896,1.871,0.0,0.0,0.0,0.0,0.0,0.0,0.0,0.0,0.0,0.0,0.0,0.0,0.0,0.0,0.0,0.0,0.0,0.0,0.0,0.0,0.0,0.0,0.0,0.0,0.0,1.8307,1.7829,0.0,0.0,0.0,0.0,0.0,0.0,0.0,0.0,0.0,0.0,0.0,0.0,1.6014,1.8996,2.1141,2.1326,2.1738,2.1923,2.1836,2.2133,2.2286,2.2192,2.0588,1.9423,0.0,0.0,0.0,0.0,0.0,0.0,0.0,0.0,0.0,0.0,0.0,0.0,0.0,0.0,0.0,0.0,0.0,0.0,0.0,0.0,0.0,0.0,0.0,0.0,0.0,0.0,0.0,0.0,0.0,0.0,0.0,0.0,1.6902,1.8485,0.0,0.0,0.0,0.0,0.0,0.0,0.0,0.0,0.0,0.0,0.0,0.0,0.0,0.0,1.7469,1.9487,2.0189,1.9605,2.2864,2.4009,2.3285,2.4462,2.4884,2.4515,2.2019,0.0,1.9402,1.9594,0.0,0.0,0.0,0.0,0.0,0.0,0.0,0.0,0.0,0.0,0.0,0.0,0.0,0.0,0.0,0.0,0.0,0.0,0.0,0.0,0.0,0.0,2.0462,2.0906,1.9528,1.8624,0.0,1.7675,1.5016,1.5972,0.0,0.0,0.0,0.0,0.0,0.0,0.0,0.0,1.6174,1.9696,2.222,2.2315,2.2323,2.2321,2.2295,2.2371,2.2341,2.222,2.1894,2.087,1.9001,2.0586,0.0,0.0,0.0,0.0,0.0,0.0,0.0,0.0,0.0,0.0,0.0,0.0,0.0,0.0,0.0,0.0,0.0,0.0,0.0,0.0,0.0,0.0,0.0,0.0,0.0,0.0,0.0,0.0,0.0,1.6455,1.738,1.8146,1.854,1.8122,0.0,0.0,0.0,0.0,0.0,0.0,0.0,0.0,0.0,1.7912,1.83,1.8701,1.9107,2.1189,2.2024,2.1669,2.4059,2.4872,2.4235,2.5124,2.5362,2.5034,2.3676,2.2788,2.2124,2.0353,1.9819,2.007,0.0,0.0,0.0,0.0,0.0,1.9738,1.8673,0.0,0.0,0.0,0.0,0.0,0.0,0.0,0.0,0.0,0.0,0.0,0.0,0.0,0.0,2.1553,2.1487,2.1326,2.1795,1.9815,1.7837,0.0,1.5838,1.4095,1.3131,0.0,0.0,0.0,0.0,0.0,1.7802,2.034,2.2023,2.1797,2.1993,2.1911,2.1435,2.1587,2.1705,2.1645,2.1507,2.1,2.0049,2.0608,1.9691,0.0,0.0,0.0,0.0,0.0,0.0,0.0,0.0,0.0,0.0,0.0,0.0,0.0,0.0,0.0,0.0,0.0,0.0,0.0,0.0,0.0,0.0,0.0,0.0,0.0,0.0,0.0,0.0,1.6922,1.7564,1.7772,1.8594,1.856,0.0,0.0,0.0,0.0,0.0,0.0,1.8203,1.873,1.9028,1.9028,2.0393,2.1068,2.0862,2.2818,2.3769,2.3769,2.5176,2.5663,2.533,2.5899,2.5967,2.5656,2.5323,2.5024,2.4572,2.1693,2.0818,2.1219,2.0914,2.0671,2.0389,1.9524,2.0097,2.1156,2.0141,2.1227,2.2892,2.1687,0.0,1.9909,1.8693,0.0,0.0,0.0,0.0,1.8235,2.0122,2.0444,2.0626,2.2179,2.2911,2.3058,2.2579,2.1329,2.0102,0.0,1.7761,1.5921,1.4398,0.0,0.0,0.0,0.0,1.8586,1.8885,2.0544,2.1578,2.125,2.1549,2.149,2.0829,2.1063,2.1166,2.0957,2.0783,2.0639,2.0559,2.0177,1.9531,1.8617,0.0,0.0,0.0,0.0,0.0,0.0,0.0,0.0,0.0,0.0,0.0,0.0,0.0,0.0,0.0,0.0,0.0,0.0,0.0,0.0,0.0,0.0,0.0,0.0,0.0,0.0,0.0,0.0,0.0,1.7852,1.9767,0.0,0.0,0.0,0.0,1.8258,1.9405,2.0553,2.1499,2.2004,2.2331,2.2457,2.3964,2.4342,2.3528,2.4948,2.5705,2.5787,2.6659,2.7144,2.7267,2.7702,2.7937,2.7987,2.7271,2.6524,2.5749,2.4732,2.3903,2.3147,2.2057,2.1586,2.1269,1.8982,1.9956,2.2166,2.1039,2.2053,2.3861,2.3984,2.2195,1.9594,1.7394,1.6789,0.0,0.0,1.8303,2.0392,2.1221,2.1838,2.2512,2.3563,2.3136,2.2518,2.2666,2.1132,2.0157,0.0,2.038,1.8873,1.8161,0.0,1.747,1.5739,1.6984,1.8192,1.8389,2.0019,2.1166,2.1291,2.1324,2.1293,2.126,2.1293,2.1003,2.0279,2.0124,1.9924,1.9688,1.9641,1.9844,2.0265,1.8268,0.0,0.0,0.0,0.0,0.0,0.0,0.0,0.0,0.0,0.0,0.0,0.0,0.0,0.0,0.0,0.0,0.0,0.0,0.0,0.0,0.0,0.0,0.0,0.0,0.0,0.0,0.0,0.0,1.825,1.9797,0.0,1.9904,1.9828,1.9747,1.9486,2.1735,2.3243,2.3475,2.374,2.4178,2.4752,2.5255,2.5617,2.5806,2.6251,2.6444,2.6471,2.6738,2.7004,2.7294,2.7227,2.7394,2.7664,2.7235,2.6871,2.6583,2.6251,2.5092,2.3434,2.3091,2.296,2.2912,2.2573,2.344,2.4777,2.4748,2.544,2.6118,2.5162,2.3468,2.1691,2.1101,2.1018,2.1114,2.1214,2.2285,2.3569,2.4318,2.4681,2.4974,2.5479,2.5218,2.4839,2.4509,2.3705,2.3092,2.3175,2.137,1.9608,1.8978,1.9907,1.986,1.7317,1.864,1.992,1.9951,2.0215,2.0469,2.064,2.0253,2.0028,2.0028,1.9908,1.9817,1.9623,1.9435,1.9311,1.9206,1.9084,1.9131,1.931,1.8352,1.726,0.0,0.0,0.0,0.0,0.0,0.0,0.0,0.0,0.0,0.0,0.0,0.0,0.0,0.0,0.0,0.0,0.0,0.0,0.0,0.0,0.0,0.0,0.0,0.0,0.0,0.0,1.6998,1.8559,2.0063,2.0986,2.1104,2.1129,2.1192,2.1293,2.3458,2.4726,2.4655,2.5259,2.5851,2.6373,2.6595,2.6938,2.7465,2.7375,2.733,2.7285,2.7549,2.7764,2.7926,2.8104,2.7886,2.7384,2.7919,2.7442,2.6382,2.6826,2.5908,2.4319,2.4422,2.4424,2.4489,2.5013,2.5684,2.6406,2.6795,2.7114,2.718,2.595,2.4551,2.3442,2.3713,2.3618,2.3501,2.3857,2.4371,2.5041,2.5742,2.5725,2.5623,2.5998,2.5869,2.5467,2.486,2.4284,2.3912,2.3851,2.2317,2.0624,1.9448,2.0239,2.0158,1.764,1.8383,1.9209,1.9184,1.9138,1.9167,1.9309,1.9523,1.9627,1.9627,1.9155,1.9037,1.959,1.8854,1.8677,1.9257,1.8636,1.829,1.8426,1.7877,1.6943,1.5648,0.0,0.0,0.0,0.0,0.0,0.0,0.0,0.0,0.0,0.0,0.0,0.0,0.0,0.0,0.0,0.0,0.0,0.0,0.0,0.0,0.0,0.0,0.0,1.3431,1.6166,1.8276,1.8919,2.067,2.1917,2.2118,2.2819,2.3363,2.3696,2.4416,2.4971,2.5223,2.6551,2.7349,2.7318,2.7979,2.8268,2.8286,2.8378,2.836,2.8247,2.9154,2.9512,2.9412,3.0464,2.9585,2.7339,2.9346,2.8308,2.5269,2.6474,2.652,2.5921,2.5901,2.5817,2.5748,2.5779,2.6275,2.687,2.6676,2.6736,2.6811,2.6349,2.5441,2.457,2.4771,2.4131,2.3483,2.3921,2.4267,2.4625,2.5186,2.482,2.4476,2.5158,2.4891,2.4268,2.3629,2.2744,2.2439,2.3664,2.3332,2.2074,1.979,1.9192,1.8417,1.6788,1.6306,0.0,1.6158,1.687,1.7385,1.7452,1.9093,2.02,2.0215,1.9018,1.8764,2.0007,1.8332,1.8031,1.9644,1.8204,1.7533,1.7892,1.6879,1.6455,1.6654,0.0,0.0,0.0,0.0,0.0,0.0,0.0,0.0,0.0,0.0,0.0,0.0,0.0,0.0,0.0,0.0,0.0,0.0,0.0,0.0,0.0,0.0,1.5163,1.6255,1.7534,1.9106,2.1138,2.2359,2.3077,2.3273,2.3644,2.3923,2.3937,2.5156,2.5894,2.5923,2.575,2.5653,2.5639,2.5863,2.5948,2.5948,2.7696,2.8616,2.8562,2.9,2.9074,2.8882,2.9208,2.8788,2.7943,2.8557,2.7984,2.6777,2.741,2.7365,2.678,2.5526,2.5084,2.5206,2.5777,2.6311,2.6559,2.5221,2.551,2.6503,2.6503,2.5958,2.5276,2.5243,2.5165,2.5121,2.5169,2.5703,2.6317,2.648,2.6221,2.6017,2.6423,2.576,2.5067,2.5146,2.4351,2.3717,2.4026,2.3533,2.278,2.2062,2.1449,2.0688,1.9535,1.9353,0.0,1.933,1.9152,1.9067,1.9119,1.8507,1.8202,1.8539,1.743,1.7068,1.7966,1.7584,1.7513,1.7958,1.768,1.7455,1.7387,1.6614,1.6009,0.0,0.0,0.0,0.0,0.0,0.0,0.0,0.0,0.0,0.0,0.0,0.0,0.0,0.0,0.0,0.0,0.0,0.0,0.0,0.0,0.0,0.0,1.4095,1.6777,1.8422,1.9091,2.0281,2.2522,2.3477,2.4117,2.4471,2.5012,2.5272,2.5298,2.6119,2.6694,2.6819,2.6329,2.5783,2.5327,2.5812,2.5882,2.5327,2.7286,2.8225,2.8183,2.8613,2.88,2.8742,2.9045,2.8568,0.0,2.8229,2.7785,2.661,2.7345,2.7565,0.0,0.0,0.0,0.0,0.0,2.6211,2.6285,2.523,2.5438,2.6169,2.6197,2.5716,2.518,2.5455,2.4775,2.3923,2.4306,2.408,2.3847,2.4401,2.4476,2.4641,2.5317,2.505,2.4623,2.4568,2.3766,2.3248,2.3799,0.0,0.0,2.2264,2.1517,2.0419,1.9189,1.8782,1.8512,1.8208,1.8274,1.8214,1.7931,1.7776,1.7763,1.8056,1.6857,0.0,0.0,0.0,1.695,1.7071,1.7022,0.0,0.0,0.0,1.5159,1.5254,0.0,0.0,0.0,1.4676,1.4253,0.0,0.0,0.0,0.0,0.0,0.0,0.0,0.0,0.0,0.0,0.0,0.0,0.0,0.0,0.0,0.0,1.4795,1.7709,2.0031,2.0803,2.1656,2.3366,2.4066,2.4754,2.5407,2.6034,2.6526,2.6701,2.6769,2.7004,2.7464,0.0,0.0,0.0,0.0,2.6768,2.5594,2.6955,2.7607,2.752,2.8052,2.8349,2.8405,2.9167,2.8284,2.6422,2.7913,2.7384,2.5498,2.6581,2.7112,2.7202,2.6868,2.6821,2.6779,2.5813,2.5686,2.5948,2.5617,0.0,0.0,2.5383,2.4929,2.4477,2.5245,2.362,2.1666,2.2498,2.1209,1.9865,2.0888,2.1345,2.1736,2.2853,2.3375,2.348,2.2893,2.2246,2.202,2.3115,2.1537,2.031,2.1325,2.0406,1.8956,1.7431,1.6672,1.6085,1.5429,1.608,1.6372,1.5721,0.0,0.0,1.8241,1.6968,1.7043,1.8984,1.7461,1.6582,1.6795,1.6537,1.5653,1.418,1.4118,1.455,1.5451,1.5507,1.6026,1.6828,1.5175,1.5154,0.0,0.0,0.0,0.0,0.0,0.0,0.0,0.0,0.0,0.0,0.0,0.0,0.0,0.0,0.0,1.342,1.6792,1.9695,2.0713,2.2341,2.3534,2.3826,2.3717,2.3688,2.4124,2.4202,2.4214,2.4255,2.4806,2.544,2.6068,2.481,0.0,2.4662,2.4933,2.5,2.49,2.6464,2.7255,2.7418,0.0,0.0,2.6637,2.6793,2.6473,2.5958,2.6102,2.5772,2.5036,2.548,2.5375,2.4915,2.5585,2.6217,2.637,2.3374,2.3576,2.4955,2.2699,2.2579,2.3455,2.385,2.3691,2.348,2.4028,2.389,0.0,2.2985,2.2492,2.2025,2.1616,2.1454,2.1537,2.1822,2.227,2.2597,2.2613,2.2504,2.2492,2.271,2.1942,2.1315,2.1533,2.0851,1.992,1.9132,1.8899,1.8774,1.8762,1.8383,1.8026,1.7909,1.7483,1.7378,1.7641,1.6818,1.6563,1.7279,1.7013,1.688,1.7041,1.6933,1.6739,1.6367,1.6226,1.6184,1.6247,1.5971,1.587,1.5968,1.6297,1.6739,0.0,0.0,0.0,0.0,0.0,0.0,0.0,0.0,0.0,0.0,0.0,0.9779,0.0,0.0,1.2839,1.4118,1.6651,1.902,2.0505,2.1797,2.2991,2.4345,2.4767,2.4992,2.5134,2.5417,2.5557,2.5499,2.5729,2.5996,2.636,2.5527,2.4798,2.4158,2.5189,2.5301,2.4331,2.6189,2.7123,2.7218,2.6779,2.6417,2.6088,2.6029,2.5812,2.5557,2.5264,2.5119,2.5123,2.5262,2.5073,2.4749,2.4875,2.4873,2.4669,2.2934,2.3025,2.3916,2.2463,2.2315,2.2904,2.3273,2.319,2.2989,2.3215,2.2687,2.1862,2.1279,2.0749,2.0375,2.0602,2.0727,2.1039,2.1866,2.212,2.2304,2.2492,2.2612,2.2531,2.2155,2.1564,2.091,2.0214,1.9747,1.9549,1.9913,1.9853,1.9562,1.9149,1.8533,1.807,1.7811,1.7084,1.6662,1.6786,1.614,1.5661,1.5603,1.5635,1.5684,1.5733,1.5789,1.5832,1.5832,1.5841,1.5762,1.5707,1.5505,1.5402,1.5534,1.5928,1.6415,0.0,0.0,0.0,0.0,0.0,0.0,0.0,0.0,0.9488,0.9799,1.0117,1.0353,1.0559,1.1436,1.2809,1.4848,1.6698,1.8389,2.0207,2.0995,2.2119,2.4212,2.5072,2.5512,2.5497,2.6165,2.6526,2.6701,2.6451,2.651,2.6904,2.6752,2.5931,2.4505,2.6141,2.6205,2.4482,2.6,2.678,2.6812,2.6522,2.6146,2.5808,2.5491,2.5137,2.4788,2.4394,2.442,2.4874,2.4731,2.4659,2.4612,2.3732,2.306,2.2569,2.2982,2.3154,2.3292,2.3098,2.2903,2.2754,2.3097,2.2994,2.2742,2.2776,2.1664,2.0344,1.9629,1.8868,1.8372,1.9018,1.9493,2.0063,2.1235,2.1457,2.1463,2.1603,2.1721,2.16,2.0953,2.0392,1.9677,1.8543,1.8208,1.8552,1.9743,1.9553,1.9033,1.8265,1.7599,1.7028,1.6598,1.6218,1.5909,1.582,1.5263,1.4743,1.4364,1.4381,1.4403,1.4403,1.455,1.4679,1.4679,1.4732,1.4829,1.4829,1.4763,1.4849,1.5069,1.5066,1.548,0.5713,0.4698,0.4904,0.6521,0.7451,0.8421,0.0,0.0,1.2679,1.232,1.291,1.3719,1.4036,1.5021,1.603,1.6566,1.8862,2.0634,2.0753,2.1655,2.2363,2.2532,2.2207,2.1997,2.2078,2.2382,2.302,2.4061,2.405,2.4733,2.6177,2.6052,2.6131,2.654,2.6653,2.6599,2.6555,2.5984,2.5803,2.5919,2.515,2.4769,2.4692,2.4007,2.3448,2.3043,2.2616,2.2745,2.3213,2.2692,2.2467,2.2306,2.1141,2.0631,2.0771,2.2385,2.345,2.3887,2.3267,2.2721,2.2446,2.2926,2.2833,2.2617,2.2703,2.2559,2.204,2.028,1.9738,1.9309,1.7824,1.7714,1.7916,1.7861,1.8275,1.8674,1.8674,1.8674,1.8655,1.8618,1.8108,1.7631,1.7467,1.7117,1.7162,1.7845,1.7461,1.7012,1.689,1.5734,1.4901,1.4845,1.481,1.4762,1.478,1.4444,1.4189,1.4222,1.4299,1.4284,1.4284,1.4506,1.46,1.46,1.4498,1.4451,1.4451,1.43,1.4173,1.4219,1.4201,1.4813,0.6196,0.6299,0.0,0.0,0.9132,1.0251,1.1616,1.2577,1.327,1.3814,1.4163,1.4554,1.5335,1.5116,1.5395,0.0,1.8046,1.8826,2.0,2.0285,2.0301,2.0,1.8639,1.8468,2.04,2.1709,2.2482,2.229,2.3026,2.3887,2.4755,2.442,2.4324,2.4596,2.4245,2.4122,2.4252,2.3852,2.3665,2.3784,2.3227,2.2674,2.2249,2.181,2.1303,2.0723,2.0469,2.0546,2.0777,2.0401,2.0333,2.0324,1.97,1.9534,1.975,2.0645,2.1055,2.1197,2.1008,2.0755,2.0549,2.0718,2.0725,2.0556,2.0193,2.0098,1.9858,1.8601,1.8591,1.8748,1.8203,1.8186,1.8366,1.8606,1.8647,1.8677,1.8599,1.859,1.8449,1.7847,1.7527,1.7132,1.6312,1.6028,1.5889,1.5852,1.6109,1.6246,1.6049,1.5375,1.4788,1.4575,1.4419,1.4277,1.398,1.3729,1.3574,1.3499,1.3322,1.3278,1.3234,1.3316,1.3257,1.2995,1.3175,1.3196,1.3036,1.2959,1.2959,1.2966,1.2896,1.3253,0.6349,0.0,0.0,0.9392,1.0374,1.1512,1.3015,1.3413,1.3759,1.4867,1.4849,1.486,1.5609,1.4747,1.4713,1.6934,1.682,1.7029,1.8619,1.836,1.7798,1.6992,1.5412,1.5049,1.6664,1.9402,2.1202,2.1267,2.2255,2.3066,2.3471,2.3018,2.2669,2.2669,2.2299,2.2124,2.2124,2.2124,2.2124,2.2124,2.1823,2.1446,2.0893,2.0209,1.9589,1.9118,1.885,1.8964,1.9201,1.8894,1.8824,1.8894,1.8426,1.8266,1.8417,1.8426,1.8735,1.9201,1.9367,1.9289,1.9191,1.9191,1.9191,1.9067,1.8473,1.8315,1.8124,1.7415,1.7493,1.7883,1.7856,1.7931,1.806,1.8399,1.8238,1.7997,1.7989,1.7806,1.7529,1.6957,1.6645,1.6213,1.5249,1.4858,1.4531,1.3982,1.4309,1.4753,1.4974,1.4746,1.4348,1.4098,1.3805,1.347,1.3035,1.2771,1.2551,1.2407,1.2212,1.2114,1.2168,1.2267,1.2101,1.1846,1.2049,1.2148,1.1988,1.1988,1.1988,1.1988,1.1819,1.1894,0.0,0.0,0.6038,0.9611,1.0503,1.1222,1.4028,1.4531,1.4613,1.5374,1.5101,1.4822,1.506,1.4967,1.506,1.5605,1.6205,1.6592,1.6581,1.633,1.5432,1.3585,1.2974,1.1824,0.0,1.3717,1.8056,2.1284,2.1429,2.1719,2.265,2.2202,2.1929,2.1929,2.1701,2.163,2.163,2.163,2.163,2.163,2.1621,2.1603,2.1478,1.9644,1.892,1.8962,1.8027,1.8266,1.9122,1.8523,1.8301,1.8221,1.6952,1.6476,1.6468,1.5974,1.7236,1.9191,1.9201,1.9201,1.9191,1.9191,1.9191,1.9122,1.8735,1.8576,1.8416,1.7489,1.7111,1.6852,1.6129,1.5896,1.5733,1.559,1.5506,1.5514,1.5514,1.4979,1.4747,1.53,1.4709,1.4195,1.4429,1.3626,1.2781,1.2348,1.1652,1.1917,1.3652,1.3317,1.2952,1.2945,1.2381,1.198,1.1829,1.131,1.09,1.0893,1.1106,1.1242,1.126,1.1581,1.1724,1.173,1.1742,1.1742,1.1742,1.1742,1.1742,1.1668,1.1095,1.1166,0.0,0.0,0.7624,0.9658,1.0785,1.1905,1.3761,1.3767,1.364,1.4705,1.3261,1.2099,1.2915,1.1885,1.151,1.3226,1.3218,1.3598,1.5432,1.4024,1.2924,1.3201,1.1525,0.0,0.0,0.0,0.0,1.4872,1.713,1.8391,1.8333,1.8473,1.8297,1.7734,1.7369,1.7182,1.7182,1.7182,1.7182,1.7182,1.6971,1.6662,1.626,1.5805,1.5452,1.523,1.506,1.5092,1.5245,1.4925,1.4844,1.4925,1.4346,1.4265,1.4366,1.4582,1.5035,1.5749,1.6836,1.6964,1.6598,1.6337,1.6244,1.6201,1.5555,1.5446,1.5568,1.5258,1.5129,1.4993,1.475,1.4703,1.4811,1.4542,1.4636,1.4636,1.4272,1.3989,1.3938,1.4027,1.3729,1.3462,1.3203,1.2859,1.2457,1.2032,1.1594,1.151,1.2151,1.2139,1.2104,1.2104,1.1957,1.1812,1.1714,1.1557,1.1488,1.1736,1.1579,1.1525,1.1538,1.1393,1.1261,1.1006,1.1006,1.0921,1.0752,1.0752,1.0752,1.0752,1.0575,1.0655,0.4864,0.6097,0.7832,0.9883,1.1065,1.1988,1.3469,1.3239,1.2995,1.3508,1.1989,1.0514,1.0789,0.9596,0.917,1.0863,1.0704,1.1156,1.3394,1.2184,1.1272,1.1712,1.0254,0.9829,0.0,0.0,0.0,1.2289,1.4327,1.551,1.5326,1.5557,1.5745,1.5645,1.5261,1.5059,1.5059,1.4957,1.4856,1.4856,1.4694,1.4296,1.3773,1.3878,1.3546,1.2819,1.3296,1.3237,1.2788,1.2983,1.3205,1.329,1.3302,1.3302,1.3489,1.3958,1.3908,1.3826,1.5007,1.5234,1.4874,1.4523,1.4435,1.45,1.3969,1.3935,1.4141,1.4242,1.4198,1.4141,1.4235,1.4282,1.4205,1.4115,1.4205,1.4205,1.3839,1.3544,1.3403,1.358,1.3282,1.3026,1.2688,1.2298,1.1923,1.1428,1.1359,1.1311,1.1517,1.1526,1.1635,1.1656,1.1503,1.1392,1.1392,1.1232,1.1266,1.1511,1.1372,1.1344,1.123,1.1011,1.075,1.0467,1.0467,1.0381,1.0294,1.0294,1.0381,1.0467,1.0467,1.0554,0.5332,0.5897,0.6827,1.0272,1.1106,1.1507,1.2962,1.2918,1.2406,1.1791,1.1013,1.0032,0.0,0.0,0.8004,0.8461,0.8762,0.9299,1.0498,1.08,1.0494,0.0,0.0,0.0,0.0,0.0,0.0,1.3148,0.0,1.3275,1.389,1.3721,1.4258,1.5613,1.5316,1.5214,1.5208,1.4904,1.4796,1.479,1.4847,1.4616,1.408,1.3886,1.3124,1.2027,1.2706,1.2564,1.1982,1.2869,1.3259,1.3259,1.355,1.3641,1.3635,1.3938,1.3835,1.3671,1.3969,1.4038,1.4032,1.3798,1.3888,1.405,1.4063,1.3991,1.4054,1.4415,1.4308,1.4085,1.444,1.4216,1.4016,1.4004,1.4004,1.3997,1.3979,1.3442,1.3176,1.3847,1.3188,1.2709,1.2892,1.1957,1.1174,1.0773,1.0851,1.1076,1.1573,1.1478,1.1431,1.1599,1.1101,1.0731,1.0721,1.0509,1.0289,1.0279,1.0549,1.0554,1.0294,1.0294,1.0207,1.0038,1.0038,1.0125,1.0294,1.0294,1.0467,1.0727,1.0656,1.0656,0.5722,0.6922,0.8219,0.9443,0.9883,1.0158,1.0481,1.0022,0.9407,0.9032,0.747,0.6172,0.0,0.0,0.0,0.6984,0.6659,0.0,0.9498,0.938,0.0,0.8886,0.0,1.0139,0.9881,1.0428,0.0,0.0,1.2289,1.3023,1.3296,1.3735,1.398,1.3981,1.388,1.3667,1.356,1.3235,1.3021,1.3016,1.3121,1.3029,1.2746,1.2867,1.2607,1.1985,1.2379,1.2342,1.2014,1.2155,1.2253,1.2268,1.2532,1.2396,1.219,1.3026,1.2936,1.2407,1.2811,1.3311,1.3756,1.3509,1.3541,1.345,1.2987,1.2989,1.3051,1.3117,1.3111,1.3009,1.3068,1.3041,1.295,1.2779,1.2742,1.2694,1.2603,1.2422,1.2159,1.2001,1.1753,1.1653,1.1905,1.1335,1.0861,1.1216,0.9998,0.9457,1.0549,1.0773,1.0854,1.065,1.0348,1.0147,1.0154,1.0257,1.0312,1.0324,1.055,1.0641,1.0641,1.0641,1.0554,1.0554,1.0554,1.0554,1.0641,1.0641,1.0641,1.0733,1.02,1.0009,0.557,0.6576,0.7617,0.8534,0.8784,0.8887,0.8917,0.8603,0.7994,0.7157,0.6009,0.0,0.0,0.0,0.0,0.0,0.0,0.0,0.8211,0.8368,0.8595,0.0,0.9762,0.0,0.9816,1.0306,1.0567,0.0,1.1104,1.184,1.2159,1.2633,1.3081,1.3408,1.3434,1.3214,1.2881,1.255,1.2219,1.1782,1.1907,1.1852,1.1626,1.184,1.1524,1.0726,0.0,1.1007,1.0141,1.0535,1.0719,1.0728,1.1039,1.0914,1.0745,1.1472,1.1309,1.0861,1.0953,1.1244,1.1711,1.272,1.3181,1.3361,1.2899,1.2809,1.2915,1.2915,1.2803,1.2822,1.2931,1.2427,1.1844,1.1745,1.1148,1.0442,1.0449,1.0371,1.0201,0.9925,0.9809,0.9838,1.0041,0.9653,0.9486,0.9899,0.8959,0.8534,0.9217,0.9199,0.9037,0.8835,0.8734,0.8664,0.866,0.8909,0.91,0.9077,0.9256,0.9492,0.9584,0.9671,0.9721,0.9907,0.9906,0.9952,1.0131,1.0131,1.0131,1.022,0.989,0.9762,0.5204,0.5628,0.6306,0.7496,0.7697,0.755,0.7805,0.7585,0.7036,0.5877,0.0,0.4867,0.375,0.3575,0.3732,0.4201,0.0,0.5585,0.6624,0.7771,0.8677,0.9332,0.9236,0.9126,0.8744,0.9202,0.9626,0.9973,0.9872,1.0227,1.105,1.1355,1.2006,1.333,1.3158,1.2832,1.2588,1.2232,1.1669,1.0903,1.1035,1.0946,1.0728,1.0753,1.0166,0.9305,0.0,0.0,0.819,0.896,0.9339,0.9339,0.9463,0.9564,0.9545,0.9669,0.956,0.9249,0.8983,0.8731,0.9035,1.1327,1.2452,1.2807,1.2496,1.2455,1.2586,1.2481,1.24,1.2466,1.2776,1.1657,1.0443,1.0676,0.9412,0.8219,0.8388,0.825,0.8089,0.8067,0.8041,0.8047,0.8064,0.7763,0.7673,0.8007,0.7891,0.7683,0.7717,0.7429,0.7148,0.7034,0.6942,0.6976,0.7104,0.7269,0.7425,0.7471,0.7591,0.7863,0.8089,0.8259,0.8434,0.8689,0.875,0.8922,0.9103,0.9103,0.9208,0.9414,0.9347,0.9266,0.573,0.6131,0.641,0.6628,0.6365,0.6106,0.5827,0.4798,0.0,0.0,0.0,0.2366,0.277,0.298,0.0,0.4605,0.0,0.0,0.0,0.0,0.8063,0.0,0.0,0.0,0.0,0.0,0.0,0.0,0.0,1.004,1.0777,1.1263,1.1494,1.1333,1.109,1.0867,1.0787,1.0418,1.0127,1.0017,1.0066,1.0091,1.0087,1.0116,1.0016,0.9884,1.002,0.0,0.9584,0.9761,0.9728,0.9739,0.9432,0.9078,0.8773,0.8774,0.8419,0.8018,0.8153,0.8291,0.858,0.8783,0.9293,0.98,0.9242,0.9335,0.9557,0.9129,0.8897,0.8998,0.9243,0.8924,0.8557,0.8828,0.8498,0.8165,0.8226,0.7903,0.75,0.7476,0.747,0.7611,0.7718,0.7313,0.7138,0.7572,0.6534,0.569,0.5675,0.6983,0.7945,0.7729,0.7334,0.7083,0.7131,0.7025,0.7103,0.7214,0.7343,0.7552,0.7826,0.78,0.7825,0.7952,0.7978,0.7993,0.8082,0.8082,0.8068,0.7935,0.7423,0.7101,0.539,0.5866,0.6437,0.6437,0.6069,0.5502,0.446,0.0,0.0,0.0,0.0,0.1224,0.1702,0.0,0.0,0.0,0.0,0.0,0.0,0.0,0.0,0.0,0.0,0.0,0.0,0.0,0.0,0.0,0.0,0.8673,1.0257,1.0755,1.0858,1.0711,1.0584,1.0516,1.0516,1.0122,0.9705,0.9262,0.9216,0.9033,0.8699,0.8733,0.8588,0.8262,0.8262,0.0,0.6785,0.7302,0.7197,0.6773,0.7174,0.7105,0.6955,0.6895,0.6772,0.6516,0.6234,0.6248,0.6352,0.5861,0.7219,0.8876,0.8468,0.8501,0.8665,0.8344,0.8285,0.8352,0.8649,0.7901,0.71,0.7405,0.6627,0.5879,0.5771,0.5556,0.5435,0.5386,0.5375,0.539,0.5541,0.5226,0.5243,0.5617,0.5047,0.4561,0.4589,0.5647,0.6316,0.6084,0.5766,0.5721,0.58,0.5695,0.5647,0.5626,0.5629,0.5826,0.6082,0.6103,0.6295,0.6718,0.6668,0.6765,0.6998,0.6765,0.6701,0.6638,0.6297,0.6037,0.5126,0.5786,0.6431,0.6407,0.5949,0.5196,0.3722,0.2986,0.0,0.0,0.0475,0.0409,0.0676,0.0,0.0,0.0,0.0,0.0,0.0,0.0,0.0,0.0,0.0,0.0,0.0,0.0,0.0,0.0,0.0,0.0,0.9705,0.9818,0.9931,1.0152,1.0056,1.0011,0.9777,0.9476,0.8825,0.793,0.7799,0.7515,0.7073,0.71,0.6887,0.6445,0.647,0.0,0.0,0.4945,0.4798,0.3921,0.4813,0.5206,0.5097,0.5004,0.4998,0.4878,0.4468,0.4247,0.4236,0.3694,0.5582,0.7877,0.7548,0.7519,0.7627,0.7519,0.7408,0.7542,0.7761,0.6687,0.5675,0.5814,0.4824,0.386,0.3689,0.3587,0.357,0.3619,0.3606,0.3602,0.3697,0.3695,0.3695,0.3914,0.3914,0.3997,0.4245,0.4565,0.4599,0.4487,0.4367,0.4439,0.4568,0.4544,0.4428,0.4216,0.4137,0.4227,0.4383,0.4461,0.4753,0.5325,0.5291,0.5489,0.5803,0.5491,0.5398,0.5456,0.5342,0.5229,0.587,0.6443,0.6716,0.641,0.5736,0.4927,0.394,0.0,0.0,0.0323,-0.0389,-0.0649,0.0052,0.0,0.0,0.0,0.0,0.2199,0.0,0.0,0.0,0.0,0.0,0.0,0.0,0.0,0.0,0.0,0.0,0.0,0.9154,0.8467,0.813,0.8477,0.8375,0.8034,0.7228,0.7011,0.6461,0.5586,0.5495,0.5452,0.5454,0.5537,0.5465,0.5471,0.5445,0.0,0.0,0.499,0.4819,0.4053,0.4245,0.4388,0.429,0.3811,0.3688,0.355,0.3661,0.3661,0.3623,0.357,0.4143,0.481,0.4246,0.4467,0.4801,0.4244,0.4023,0.4024,0.403,0.392,0.3808,0.3914,0.3689,0.3692,0.3923,0.3813,0.3681,0.4168,0.4044,0.3915,0.4069,0.4164,0.4164,0.4164,0.4164,0.4244,0.4481,0.4637,0.4748,0.4959,0.4745,0.4538,0.4633,0.4257,0.4083,0.4307,0.3879,0.3856,0.4195,0.3786,0.3696,0.4005,0.4204,0.4393,0.4377,0.4587,0.463,0.4399,0.4407,0.4173,0.4472,0.5506,0.6512,0.6298,0.585,0.4881,0.3331,0.0,0.0,-0.0345,-0.0973,-0.1137,-0.0716,-0.0637,0.0,0.0,0.0,0.0,0.0,0.0,0.0,0.0,0.0,0.0,0.0,0.0,0.0,0.0,0.0,0.0,0.7448,0.7334,0.7255,0.7211,0.7214,0.6832,0.6077,0.6001,0.5819,0.5429,0.5393,0.5158,0.4832,0.4751,0.4655,0.4215,0.3571,0.0,0.0,0.2824,0.2359,0.1125,0.2477,0.2746,0.2199,0.1992,0.1879,0.1872,0.2009,0.2009,0.1892,0.1924,0.2147,0.2465,0.3362,0.3811,0.3923,0.3699,0.3587,0.3587,0.3587,0.3699,0.3709,0.2951,0.2844,0.2851,0.2188,0.1961,0.1958,0.2174,0.2057,0.2053,0.2152,0.2133,0.2231,0.2231,0.2212,0.2192,0.2285,0.3142,0.3665,0.3746,0.4452,0.495,0.495,0.4765,0.4619,0.4534,0.4271,0.413,0.4214,0.3899,0.3856,0.4075,0.4118,0.4192,0.4476,0.4291,0.4206,0.424,0.4094,0.398,0.3674,0.4988,0.6349,0.614,0.5478,0.4506,0.0,0.0,0.0,-0.0738,-0.1166,-0.121,-0.1119,-0.124,-0.0928,0.0,0.0,0.0837,0.0,0.0,0.0,0.0,0.0,0.0,0.0,0.0,0.0,0.0,0.0,0.0,0.0,0.5246,0.5606,0.6484,0.6427,0.6162,0.5356,0.5304,0.5033,0.433,0.4311,0.3838,0.3151,0.32,0.2984,0.2632,0.0,0.0,0.0,0.0978,0.0429,-0.0613,0.0972,0.1325,0.0884,0.0889,0.0888,0.0885,0.0894,0.0894,0.0893,0.0908,0.0906,0.1121,0.2466,0.2802,0.2802,0.2802,0.2813,0.2826,0.2726,0.2956,0.2851,0.196,0.1966,0.1856,0.1056,0.0823,0.0822,0.1052,0.0934,0.0933,0.0928,0.1034,0.1025,0.102,0.1121,0.111,0.1105,0.1974,0.2621,0.2621,0.3471,0.4196,0.4579,0.4206,0.3882,0.3717,0.3533,0.3401,0.3238,0.3095,0.3149,0.329,0.3332,0.3603,0.3876,0.3684,0.3692,0.3715,0.3365,0.3174,0.398,0.5287,0.6162,0.5768,0.4784,0.3528,0.0,0.0,0.0,-0.0731,-0.09,-0.0944,-0.1075,-0.0898,-0.0474,0.0219,0.0632,0.0,0.0,0.0,0.0,0.0,0.0,0.0,0.0,0.0,0.0,0.0,0.0,0.0,0.0,0.1804,0.2904,0.6154,0.6168,0.573,0.4929,0.4766,0.3756,0.1746,0.1718,0.1046,-0.0,-0.0,0.0214,0.0,0.0,0.0,0.0,-0.0217,-0.0214,-0.0311,0.0106,0.0426,0.0747,0.0761,0.0757,0.075,0.0887,0.0887,0.0768,0.0892,0.0898,0.0897,0.0897,0.0897,0.0897,0.0897,0.0908,0.0923,0.082,0.0823,0.0823,0.0823,0.0823,0.0941,0.1176,0.1058,0.0936,0.1497,0.1377,0.1142,0.1348,0.1344,0.1447,0.1532,0.1528,0.1519,0.1492,0.1619,0.1746,0.1746,0.1773,0.2208,0.3202,0.2233,0.1488,0.1488,0.1276,0.1171,0.1171,0.0851,0.0738,0.0829,0.1658,0.2157,0.2218,0.2522,0.2648,0.2592,0.1966,0.1566,0.1728,0.2992,0.4027,0.3783,0.3269,0.2631,0.179,0.0,0.0,0.0,0.0,-0.1032,-0.0988,-0.0899,-0.0525,0.0508,0.0758,0.0,0.0,0.0,0.0,0.0,0.0,0.0,0.0,0.0,0.0,0.0,0.0,0.0,0.0,0.1234,0.1686,0.284,0.2891,0.2418,0.1539,0.1895,0.1556,0.0436,0.0667,0.0657,0.0314,0.0109,0.0,0.0,0.0,0.0,0.0,-0.1208,-0.1525,-0.18,-0.0873,-0.0772,-0.0994,-0.0999,-0.0998,-0.0995,-0.1005,-0.1006,-0.1004,-0.0908,-0.0906,-0.0899,-0.0909,-0.0114,0.0915,0.0809,0.0814,0.0818,0.0822,0.0941,0.0944,-0.0,-0.0,-0.0,-0.0849,-0.1095,-0.1093,-0.0846,-0.0966,-0.0964,-0.096,-0.0831,-0.0824,-0.082,-0.0811,-0.0804,-0.08,-0.0,0.0565,0.0565,0.0562,0.1004,0.2207,0.1853,0.1631,0.1651,0.1508,0.139,0.1516,0.1391,0.1273,0.1265,0.1582,0.1682,0.1673,0.2379,0.2063,0.114,0.1363,0.148,0.0,0.1874,0.2733,0.2686,0.2234,0.0,0.0,0.0,0.0,0.0,0.0,0.0,-0.0768,-0.0507,-0.0195,0.0055,0.0695,0.0,0.0,0.0,0.0,0.0,0.0,0.0,0.0,0.0,0.0,0.0,0.0,0.0,0.0,-0.0453,-0.0228,-0.0116,0.0677,0.0777,0.0334,0.0678,0.0452,-0.0445,-0.0341,-0.0447,-0.064,-0.0992,0.0,0.0,0.0,0.0,0.0,-0.2001,-0.2214,-0.2178,-0.1557,-0.157,-0.1795,-0.1795,-0.1795,-0.1795,-0.1795,-0.1795,-0.1798,-0.1817,-0.181,-0.18,-0.1832,-0.1035,-0.0116,-0.0236,-0.0238,-0.0238,-0.0239,-0.012,-0.012,-0.097,-0.0973,-0.0976,-0.1849,-0.1977,-0.1977,-0.1977,-0.1977,-0.1977,-0.1977,-0.1961,-0.1945,-0.1933,-0.1915,-0.1898,-0.1887,-0.1167,-0.0696,-0.0696,-0.0686,-0.034,0.0339,0.0445,0.0443,0.0448,0.0329,0.0327,0.0331,0.0327,0.0216,0.0215,0.0215,0.0214,0.0319,0.0742,0.0423,-0.0423,-0.0,0.0217,0.0,0.0,0.0,0.0,0.0,0.0,0.0,0.0,0.0,0.0,0.0,0.0,0.0,0.0096,0.0354,-0.0718,0.0572,0.0,0.0,0.0,0.0,0.0,0.0,0.0,0.0,0.0,0.0,0.0,0.0,0.0,0.0,-0.2652,-0.2561,-0.2266,-0.0452,0.0557,0.0688,0.0679,-0.0,-0.1144,-0.1376,-0.19,-0.2657,-0.2977,0.0,0.0,0.0,0.0,0.0,-0.2469,-0.2356,-0.1907,-0.2132,-0.202,-0.1795,-0.1795,-0.1795,-0.1795,-0.1795,-0.1795,-0.1795,-0.1795,-0.1795,-0.1801,-0.1834,-0.1843,-0.1855,-0.1915,-0.1932,-0.1941,-0.1969,-0.1977,-0.1977,-0.1977,-0.1977,-0.1977,-0.1977,-0.1977,-0.1977,-0.1977,-0.1977,-0.1977,-0.1977,-0.1977,-0.1967,-0.1939,-0.1934,-0.1804,-0.1896,-0.189,-0.1889,-0.1889,-0.1862,-0.1843,-0.1843,-0.1814,-0.1795,-0.1795,-0.1795,-0.1795,-0.1795,-0.1793,-0.178,-0.1753,-0.1752,-0.1737,-0.1707,-0.1738,-0.1752,-0.175,-0.178,-0.1795,-0.0221,0.0,0.0158,0.0197,-0.0,0.0,0.0,0.0,0.0,0.0,0.0,0.0,0.0,0.0,0.0,0.0,0.0,0.0,0.0,0.0,0.0,0.0,0.0,0.0,0.0,0.0,0.0,0.0,0.0,0.0,0.0,-0.2287,-0.208,-0.2218,-0.1606,-0.1474,-0.1806,-0.1366,-0.1909,-0.3251,-0.2709,-0.2762,-0.3583,-0.327,0.0,0.0,0.0,0.0,-0.2469,-0.2693,-0.2469,-0.2132,-0.2132,-0.202,-0.1795,-0.1795,-0.1795,-0.1795,-0.1795,-0.1795,-0.1795,-0.1795,-0.1795,-0.1805,-0.1859,-0.1875,-0.1883,-0.1921,-0.1948,-0.1967,-0.1975,-0.1977,-0.1977,-0.1977,-0.1977,-0.1977,-0.1977,-0.1977,-0.1977,-0.1977,-0.1977,-0.1977,-0.1977,-0.1977,-0.1974,-0.1967,-0.172,-0.1349,-0.1222,-0.1572,-0.192,-0.192,-0.1893,-0.1875,-0.1875,-0.1825,-0.1795,-0.1795,-0.1795,-0.1795,-0.1795,-0.1772,-0.1767,-0.1784,-0.1784,-0.177,-0.1739,-0.177,-0.1772,-0.175,-0.178,-0.1795,-0.0639,-0.0617,-0.053,-0.0297,-0.0362,-0.0506,0.0,0.0,0.0,0.0,0.0,0.0,0.0,0.0,0.0,0.0,0.0,0.0,0.0,0.0,0.0,0.0,0.0,0.0,0.0,0.0,0.0,0.0,0.0,0.0,0.0,-0.2057,-0.184,-0.2056,-0.184,-0.2067,-0.2498,-0.2061,-0.2476,-0.3769,-0.293,-0.2884,-0.3522,-0.2955,-0.2554,0.0,0.0,0.0,-0.2353,-0.2757,-0.2544,-0.202,-0.202,-0.1908,-0.1795,-0.1795,-0.1795,-0.1795,-0.1795,-0.1795,-0.191,-0.2376,-0.2144,-0.1804,-0.1851,-0.1874,-0.1895,-0.1939,-0.1964,-0.1977,-0.1977,-0.1977,-0.1977,-0.1977,-0.1977,-0.1977,-0.1977,-0.1977,-0.1977,-0.1977,-0.1977,-0.1977,-0.1977,-0.1977,-0.1853,-0.1606,-0.1359,-0.1235,-0.1482,-0.1226,-0.1216,-0.1691,-0.1547,-0.1645,-0.1866,-0.1822,-0.1807,-0.1835,-0.1596,-0.1475,-0.1475,-0.1662,-0.1757,-0.1774,-0.1774,-0.1773,-0.177,-0.1787,-0.1787,-0.1771,-0.1787,-0.1795,-0.0748,-0.0775,-0.0597,-0.0163,-0.0275,-0.0459,0.0,0.0,0.0,0.0,0.0,0.0,0.0,0.0,0.0,0.0,0.0,0.0,0.0,0.0,0.0,0.0,0.0,0.0,0.0,0.0,0.0,0.0,0.0,0.0,0.0,-0.217,-0.2172,-0.2355,-0.2283,-0.2531,-0.2863,-0.2176,-0.2365,-0.3484,-0.2818,-0.2903,-0.3407,-0.2979,-0.2578,0.0,0.0,0.0,-0.246,-0.3148,-0.3055,-0.2353,-0.2353,-0.2358,-0.2251,-0.2251,-0.2255,-0.2258,-0.2253,-0.2247,-0.2361,-0.3191,-0.2949,-0.2251,-0.2294,-0.233,-0.2372,-0.2448,-0.2223,-0.1977,-0.1977,-0.1977,-0.1977,-0.1977,-0.1977,-0.1977,-0.1977,-0.2099,-0.2346,-0.2346,-0.2346,-0.2469,-0.2469,-0.235,-0.2106,-0.1486,-0.161,-0.1733,-0.1853,-0.0862,-0.0489,-0.1204,-0.1188,-0.1289,-0.1734,-0.1823,-0.1833,-0.1771,-0.1275,-0.1146,-0.126,-0.1561,-0.1755,-0.175,-0.1754,-0.1767,-0.1788,-0.1793,-0.1795,-0.1795,-0.1795,-0.1793,-0.0855,-0.0797,-0.0703,-0.0823,-0.0707,-0.0638,0.0,0.0,0.0,0.0,0.0,0.0,0.0,0.0,0.0,0.0,0.0,0.0,0.0,0.0,0.0,0.0,0.0,0.0,0.0,0.0,0.0,0.0,0.0,0.0,0.0,-0.3154,-0.36,-0.4804,-0.4718,-0.4837,-0.5274,-0.2924,-0.2213,-0.3206,-0.354,-0.4189,-0.5,-0.5176,-0.5254,0.0,0.0,-0.5002,-0.4803,-0.4998,-0.5004,-0.4804,-0.4804,-0.4738,-0.4572,-0.4572,-0.4496,-0.4307,-0.4252,-0.4194,-0.4145,-0.4268,-0.4265,-0.4055,-0.4177,-0.4222,-0.4259,-0.4396,-0.333,-0.1977,-0.1977,-0.1977,-0.1977,-0.1977,-0.1977,-0.1977,-0.1977,-0.2838,-0.3575,-0.3575,-0.4066,-0.4435,-0.4435,-0.4108,-0.364,-0.3137,-0.4395,-0.4253,-0.1482,-0.1096,-0.1081,-0.0948,-0.1416,-0.1766,-0.1879,-0.1874,-0.1651,-0.1201,-0.1501,-0.1689,-0.1689,-0.1681,-0.1665,-0.164,-0.1775,-0.1778,-0.1757,-0.1782,-0.1795,-0.1795,-0.1795,-0.1781,-0.0763,-0.0857,-0.0972,-0.1115,-0.0856,0.0,0.0,0.0,0.0,0.0,0.0,0.0,0.0,0.0,0.0,0.0,0.0,0.0,0.0,0.0,0.0,0.0,0.0,0.0,0.0,0.0,0.0,0.0,0.0,0.0,0.0,0.0,-0.4623,-0.5154,-0.5067,-0.5025,-0.5146,-0.4029,-0.4069,-0.5312,-0.4951,-0.5269,-0.6056,-0.572,-0.5586,-0.5579,0.0,-0.5818,-0.5464,-0.5805,-0.5606,-0.514,-0.492,-0.4834,-0.4756,-0.4756,-0.4665,-0.4695,-0.5274,-0.4994,-0.4604,-0.5256,-0.503,-0.4683,-0.4715,-0.5114,-0.5374,-0.5376,-0.4798,-0.4056,-0.4024,-0.4039,-0.4055,-0.4022,-0.3797,-0.3698,-0.4063,-0.4553,-0.5044,-0.541,-0.5535,-0.5425,-0.5594,-0.4886,-0.4658,-0.5163,-0.5798,-0.6021,-0.5804,-0.4734,-0.4073,-0.4286,-0.3779,-0.3408,-0.3411,-0.3411,-0.2586,-0.0588,-0.0697,-0.0797,-0.0776,-0.1107,-0.1433,-0.164,-0.1542,-0.155,-0.1774,-0.1788,-0.1795,-0.1795,-0.1795,-0.1788,-0.0717,-0.0875,-0.1043,-0.1255,0.0,0.0,0.0,0.0,0.0,0.0,0.0,0.0,0.0,0.0,0.0,0.0,0.0,0.0,0.0,0.0,0.0,0.0,0.0,0.0,0.0,0.0,0.0,0.0,0.0,0.0,0.0,0.0,-0.5647,-0.5784,-0.5643,-0.5575,-0.5481,-0.5592,-0.5959,-0.6559,-0.5959,-0.606,-0.6557,-0.6182,-0.6031,-0.6021,-0.6735,-0.665,-0.6019,-0.6519,-0.6224,-0.5588,-0.5369,-0.5272,-0.5292,-0.5201,-0.5197,-0.53,-0.6048,-0.5784,-0.5286,-0.6134,-0.6025,-0.5539,-0.5716,-0.6244,-0.6741,-0.6846,-0.6874,-0.6858,-0.6058,-0.6213,-0.6372,-0.6056,-0.5732,-0.5659,-0.6639,-0.6881,-0.7126,-0.7617,-0.7225,-0.675,-0.6979,-0.6253,-0.6016,-0.7173,-0.7055,-0.7398,-0.9026,-0.7651,-0.6595,-0.6934,-0.5886,-0.5124,-0.5226,-0.5244,-0.4523,-0.2741,-0.1738,-0.1267,-0.1225,-0.2095,-0.2416,-0.2307,-0.2306,-0.2428,-0.2898,-0.2684,-0.2689,-0.2689,-0.2689,-0.2572,-0.0859,-0.0806,-0.0819,-0.1202,0.0,0.0,0.0,0.0,0.0,0.0,0.0,0.0,0.0,0.0,0.0,0.0,0.0,0.0,0.0,0.0,0.0,0.0,0.0,0.0,0.0,0.0,0.0,0.0,0.0,0.0,0.0,0.0,0.0,-0.852,-0.7949,-0.7823,-0.8263,-0.794,-0.6707,-0.4686,-0.6028,-0.6473,-0.6352,-0.7368,-0.782,-0.782,-0.7913,-0.7913,-0.782,-0.7913,-0.7805,-0.782,-0.7712,-0.767,-0.7559,-0.7332,-0.7188,-0.7095,-0.7217,-0.7142,-0.7062,-0.7193,-0.7567,-0.8061,-0.8328,-0.8882,-0.9384,-0.9533,-0.9937,-0.9926,-0.7477,-0.7614,-0.8119,-0.724,-0.7118,-0.75,-0.9123,-0.9859,-1.0218,-1.0221,-0.9717,-0.9417,-0.9566,-0.9223,-0.89,-0.8901,-0.8804,-0.8508,-0.776,-0.7396,-0.7161,-0.6818,-0.6246,-0.6152,-0.6624,-0.6709,-0.7763,-1.0274,-0.6932,-0.4942,-0.4882,-0.6346,-0.6246,-0.4344,-0.5018,-0.5764,-0.624,-0.5548,-0.5139,-0.5139,-0.5139,-0.4764,-0.0828,-0.1438,-0.1861,-0.1295,0.0,0.0,0.0,0.0,0.0,0.0,0.0,0.0,0.0,0.0,0.0,0.0,0.0,0.0,0.0,0.0,0.0,0.0,0.0,0.0,0.0,0.0,0.0,0.0,0.0,0.0,0.0,0.0,0.0,-0.7809,-0.7585,-0.744,-0.7593,-0.7636,-0.7194,-0.6151,-0.7041,-0.7485,-0.7376,-0.782,-0.8045,-0.8045,-0.8045,-0.8045,-0.7934,-0.7826,-0.7715,-0.7715,-0.7601,-0.7516,-0.7452,-0.7387,-0.7533,-0.7888,-0.7812,-0.7856,-0.8073,-0.8468,-0.8543,-0.8645,-0.9197,-0.9854,-1.0346,-1.0407,-1.0914,-1.1016,-0.958,-0.9506,-0.9798,-0.934,-0.902,-0.9086,-1.02,-1.0565,-1.0804,-1.0925,-1.0624,-1.0265,-0.9934,-0.9588,-0.9357,-0.929,-0.9427,-0.9591,-0.9349,-0.9426,-0.9309,-0.902,-0.8387,-0.8141,-0.8521,-0.8842,-0.9502,-1.0623,-0.9553,-0.883,-0.8678,-0.9266,-0.8673,-0.6802,-0.6631,-0.65,-0.6298,-0.5708,-0.5392,-0.5223,-0.5223,-0.5008,-0.1176,-0.1935,-0.2455,0.0,0.0,0.0,0.0,0.0,0.0,0.0,0.0,0.0,0.0,0.0,0.0,0.0,0.0,0.0,0.0,0.0,0.0,0.0,0.0,0.0,0.0,0.0,0.0,0.0,0.0,0.0,0.0,0.0,0.0,0.0,-0.7357,-0.7197,-0.7111,-0.7353,-0.7367,-0.7043,-0.7592,-0.7853,-0.7712,-0.7712,-0.7712,-0.7712,-0.7712,-0.7712,-0.7712,-0.7604,-0.7493,-0.7493,-0.749,-0.7465,-0.7433,-0.7473,-0.785,-0.845,-0.8444,-0.8568,-0.8849,-0.9364,-0.9445,-0.9439,-1.0067,-1.0557,-1.1125,-1.1059,-1.128,-1.1454,-1.0855,-1.0829,-1.1048,-1.0818,-1.0476,-1.0408,-1.0823,-1.0835,-1.097,-1.114,-1.0868,-1.0646,-1.0316,-0.993,-0.9671,-0.9724,-0.9854,-1.0009,-1.0469,-1.045,-1.0477,-1.0424,-1.0069,-0.9863,-1.0033,-1.029,-1.0433,-1.0379,-1.0775,-1.094,-1.0755,-1.0695,-1.0139,-0.8858,-0.8317,-0.7862,-0.726,-0.6956,-0.6735,-0.6588,-0.6588,-0.6514,-0.1916,-0.2214,0.0,0.0,0.0,0.0,0.0,0.0,0.0,0.0,0.0,0.0,0.0,0.0,0.0,0.0,0.0,0.0,0.0,0.0,0.0,0.0,0.0,0.0,0.0,0.0,0.0,0.0,0.0,0.0,0.0,0.0,0.0,0.0,-0.7594,-0.7491,-0.72,-0.751,-0.7345,-0.6804,-0.7331,-0.7463,-0.7152,-0.7152,-0.7152,-0.7152,-0.7152,-0.7152,-0.7154,-0.7265,-0.7265,-0.7265,-0.782,-0.7962,-0.7858,-0.7993,-0.8291,-0.8757,-0.9049,-0.9154,-0.9291,-0.9673,-1.0301,-1.0798,-1.0973,-1.1366,-1.1722,-1.1565,-1.1366,-1.1224,-1.1224,-1.1358,-1.1496,-1.1496,-1.1358,-1.1161,-1.0989,-1.1028,-1.0959,-1.0876,-1.0662,-1.0603,-1.0759,-1.0419,-1.0014,-1.0283,-1.0061,-1.0006,-1.045,-1.0191,-1.0134,-1.0663,-1.0643,-1.0807,-1.0984,-1.0743,-1.0551,-1.0704,-1.0692,-1.0773,-1.096,-1.0789,-1.0586,-1.0257,-1.0257,-1.0147,-0.9816,-0.9816,-0.9816,-0.9816,-0.9816,-0.982,-0.2213,0.0,0.0,0.0,0.0,0.0,0.0,0.0,0.0,0.0,0.0,0.0,0.0,0.0,0.0,0.0,0.0,0.0,0.0,0.0,0.0,0.0,0.0,0.0,0.0,0.0,0.0,0.0,0.0,0.0,0.0,0.0,0.0,0.0,-0.7397,-0.745,-0.7588,-0.7505,-0.7626,-0.7954,-0.8062,-0.7896,-0.7443,-0.7443,-0.7443,-0.7443,-0.7443,-0.76,-0.7689,-0.8219,-0.8371,-0.8371,-0.8592,-0.8566,-0.8533,-0.8358,-0.8742,-0.9349,-0.9109,-0.9243,-0.9645,-1.0155,-1.0326,-1.0543,-1.1057,-1.1265,-1.1351,-1.1289,-1.1265,-1.1224,-1.1224,-1.1175,-1.1155,-1.1277,-1.1129,-1.1079,-1.1016,-1.0879,-1.082,-1.0636,-1.0673,-1.0579,-1.0274,-1.0437,-1.0375,-1.0054,-1.0335,-1.0639,-1.0819,-1.0555,-1.0578,-1.0985,-1.1,-1.096,-1.1143,-1.0803,-1.0643,-1.0696,-1.0692,-1.0716,-1.0769,-1.072,-1.0753,-1.0775,-1.0429,-1.0315,-1.0328,-0.9983,-0.9761,-0.9644,-0.9644,-0.9596,-0.2504,0.0,0.0,0.0,0.0,0.0,0.0,0.0,0.0,0.0,0.0,0.0,0.0,0.0,0.0,0.0,0.0,0.0,0.0,0.0,0.0,0.0,0.0,0.0,0.0,0.0,0.0,0.0,0.0,0.0,0.0,0.0,0.0,0.0,-0.7743,-0.773,-0.7905,-0.847,-0.8805,-0.8998,-0.9788,-0.9888,-0.9316,-0.8347,-0.796,-0.796,-0.796,-0.8008,-0.8194,-0.8821,-0.8963,-0.8747,-0.8967,-0.9036,-0.888,-0.8838,-0.9204,-0.9667,-0.9592,-0.9735,-1.0122,-1.0643,-1.0703,-1.0685,-1.1098,-1.1183,-1.1138,-1.1102,-1.1066,-1.1013,-1.1013,-1.0936,-1.0903,-1.1082,-1.1036,-1.0854,-1.0809,-1.0786,-1.0631,-1.031,-1.0458,-1.0487,-1.0046,-1.014,-1.026,-0.9847,-1.027,-1.0682,-1.0962,-1.0826,-1.0807,-1.1204,-1.1016,-1.0968,-1.1118,-1.0811,-1.0659,-1.0696,-1.0692,-1.0692,-1.0692,-1.0692,-1.0745,-1.0854,-1.0638,-1.0528,-1.0635,-1.0307,-1.0086,-1.0066,-1.0066,-1.001,0.0,0.0,0.0,0.0,0.0,0.0,0.0,0.0,0.0,0.0,0.0,0.0,0.0,0.0,0.0,0.0,0.0,0.0,0.0,0.0,0.0,0.0,0.0,0.0,0.0,0.0,0.0,0.0,0.0,0.0,0.0,0.0,0.0,-0.834,-0.8517,-0.8517,-0.8333,-0.9967,-1.0663,0.0,-1.1958,-1.2466,-1.2013,-0.9753,-0.879,-0.879,-0.879,-0.879,-0.8895,-0.9429,-0.9216,-0.8793,-0.9444,-0.9565,-0.9343,-0.9619,-0.9892,-1.0207,-1.0551,-1.0667,-1.0803,-1.118,-1.1341,-1.1375,-1.1556,-1.1487,-1.1169,-1.1139,-1.0945,-1.0696,-1.0712,-1.0704,-1.0737,-1.0903,-1.0826,-1.0651,-1.0482,-1.0529,-1.0406,-1.0119,-1.0186,-1.0179,-0.9858,-0.9804,-0.9792,-0.9686,-0.9932,-1.0303,-1.0942,-1.0954,-1.1045,-1.1183,-1.0854,-1.0799,-1.1005,-1.0739,-1.0544,-1.0729,-1.07,-1.0692,-1.0692,-1.0692,-1.0692,-1.0692,-1.0692,-1.0692,-1.0692,-1.0692,-1.0692,-1.0692,-1.0692,-1.0692,0.0,0.0,0.0,0.0,0.0,0.0,0.0,0.0,0.0,0.0,0.0,0.0,0.0,0.0,0.0,0.0,0.0,0.0,0.0,0.0,0.0,0.0,0.0,0.0,0.0,0.0,0.0,0.0,0.0,0.0,0.0,0.0,0.0,-1.1147,-1.0779,-1.0654,-1.0779,-1.1021,-1.132,0.0,-1.2074,-1.2368,-1.2659,-1.2079,-1.1887,-1.1883,-1.1573,-1.1681,-1.2103,-1.1911,-1.1704,-1.1719,-1.2197,-1.2231,-1.2111,-1.2627,-1.268,-1.2554,-1.2636,-1.2773,-1.2999,-1.3151,-1.3275,-1.3501,-1.3552,-1.2886,-1.2137,-1.2238,-1.1603,-1.0724,-1.0871,-1.0802,-1.0704,-1.0745,-1.0612,-1.0583,-1.051,-1.0391,-1.0275,-1.0226,-1.0083,-1.0126,-1.0182,-1.0105,-1.0112,-1.0368,-1.0297,-1.0459,-1.0976,-1.0906,-1.0902,-1.1033,-1.1025,-1.0948,-1.1159,-1.0799,-1.0687,-1.0903,-1.0773,-1.0692,-1.0692,-1.0692,-1.0692,-1.0692,-1.0692,-1.0692,-1.0692,-1.0692,-1.0692,-1.0692,-1.0692,-1.0692,0.0,0.0,0.0,0.0,0.0,0.0,0.0,0.0,0.0,0.0,0.0,0.0,0.0,0.0,0.0,0.0,0.0,0.0,0.0,0.0,0.0,0.0,0.0,0.0,0.0,0.0,0.0,0.0,0.0,0.0,0.0,-1.1745,-1.1599,-1.1985,-1.1758,-1.1621,-1.1562,-1.2252,-1.2704,-1.3206,-1.3729,-1.4025,-1.4276,-1.3238,-1.2766,-1.2567,-1.2461,-1.2405,-1.2515,-1.2319,-1.2219,-1.2344,-1.2664,-1.2848,-1.2869,-1.3304,-1.3493,-1.3488,-1.3483,-1.3583,-1.3709,-1.372,-1.3864,-1.3997,-1.4099,-1.3706,-1.3192,-1.3312,-1.2903,-1.2381,-1.2488,-1.2404,-1.2283,-1.2283,-1.1445,-1.0616,-1.0616,-1.0571,-1.0432,-1.0402,-1.0307,-1.0337,-1.029,-1.0259,-1.0285,-1.0431,-1.0467,-1.0528,-1.109,-1.0984,-1.0952,-1.098,-1.0968,-1.1005,-1.1094,-1.0932,-1.0899,-1.1078,-1.0923,-1.1193,-1.1832,-1.1744,-1.1431,-1.0692,-1.0692,-1.0692,-1.0692,-1.0692,-1.0692,-1.0692,-1.0692,-1.0692,0.0,0.0,0.0,0.0,0.0,0.0,0.0,0.0,0.0,0.0,0.0,0.0,0.0,0.0,0.0,0.0,0.0,0.0,0.0,0.0,0.0,0.0,0.0,0.0,0.0,0.0,0.0,0.0,0.0,0.0,-1.2727,-1.2271,-1.2151,-1.2438,-1.2453,-1.2294,-1.2015,-1.3397,-1.405,-1.411,-1.5227,-1.572,-1.567,-1.3886,-1.3132,-1.3021,-1.2978,-1.2877,-1.2636,-1.2557,-1.2428,-1.2448,-1.273,-1.302,-1.3279,-1.3625,-1.3946,-1.4173,-1.4179,-1.4276,-1.431,-1.4526,-1.4489,-1.4528,-1.4719,-1.4567,-1.4465,-1.4401,-1.4315,-1.413,-1.4103,-1.4132,-1.4148,-1.4076,-1.2679,-1.1334,-1.1334,-1.1334,-1.1279,-1.113,-1.1156,-1.1255,-1.0985,-1.1009,-1.0997,-1.1029,-1.1143,-1.133,-1.1821,-1.1824,-1.1716,-1.1681,-1.1681,-1.1694,-1.162,-1.159,-1.165,-1.1714,-1.1671,-1.209,-1.3264,-1.3321,-1.2701,-1.144,-1.1436,-1.1436,-1.1436,-1.1436,-1.1436,-1.1436,-1.1436,-1.1436,0.0,0.0,0.0,0.0,0.0,0.0,0.0,0.0,0.0,0.0,0.0,0.0,0.0,0.0,0.0,0.0,0.0,0.0,0.0,0.0,0.0,0.0,0.0,0.0,0.0,0.0,0.0,0.0,0.0,0.0,-1.4298,-1.4088,-1.4064,-1.4327,-1.407,-1.3826,-1.357,-1.4052,-1.4238,-1.422,-1.4722,-1.474,-1.4509,-1.4457,-1.4885,-1.5778,-1.5334,-1.5149,-1.5312,-1.4648,-1.4365,-1.4365,-1.4586,-1.4736,-1.4874,-1.5645,-1.61,-1.6299,-1.6628,-1.6839,-1.7042,-1.7081,-1.7095,-1.7101,-1.714,-1.6399,-1.569,-1.5813,-1.4973,-1.4174,-1.4265,-1.4244,-1.4054,-1.4148,-1.3922,-1.3655,-1.3655,-1.3655,-1.3601,-1.3461,-1.3592,-1.3707,-1.3413,-1.3734,-1.4018,-1.3867,-1.4104,-1.4215,-1.4356,-1.4562,-1.4687,-1.4477,-1.4456,-1.4432,-1.43,-1.4137,-1.4122,-1.3998,-1.4033,-1.4148,-1.4406,-1.459,-1.4665,-1.4409,-1.4409,-1.4409,-1.4409,-1.4409,-1.4409,-1.4409,-1.4409,-1.4409,0.0,0.0,0.0,0.0,0.0,0.0,0.0,0.0,0.0,0.0,0.0,0.0,0.0,0.0,0.0,0.0,0.0,0.0,0.0,0.0,0.0,0.0,0.0,0.0,0.0,0.0,0.0,0.0,0.0,-1.4196,-1.4688,-1.4592,-1.4456,-1.4248,-1.429,-1.4074,-1.3489,-1.3731,-1.393,-1.4081,-1.4057,-1.4057,-1.4081,-1.4057,-1.4509,-1.5355,-1.5132,-1.515,-1.5248,-1.4811,-1.4714,-1.4733,-1.4971,-1.5199,-1.5435,-1.5912,-1.6292,-1.673,-1.6849,-1.7166,-1.7378,-1.7378,-1.7483,-1.7582,-1.7582,-1.7259,-1.6855,-1.687,-1.6497,-1.6072,-1.6128,-1.602,-1.5988,-1.6022,-1.5969,-1.6085,-1.6206,-1.5178,-1.4111,-1.3974,-1.4109,-1.4144,-1.3912,-1.4205,-1.4405,-1.4154,-1.4523,-1.4824,-1.4693,-1.5004,-1.5069,-1.4961,-1.5194,-1.5101,-1.4866,-1.4898,-1.4839,-1.4473,-1.4619,-1.5122,-1.5952,-1.6161,-1.6606,-1.7455,-1.5892,-1.495,-1.495,-1.495,-1.495,-1.495,-1.495,-1.495,0.0,0.0,0.0,0.0,0.0,0.0,0.0,0.0,0.0,0.0,0.0,0.0,0.0,0.0,0.0,0.0,0.0,0.0,0.0,0.0,0.0,0.0,0.0,0.0,0.0,0.0,0.0,0.0,0.0,-1.4409,-1.4383,-1.4483,-1.4303,-1.3901,-1.4172,-1.3987,-1.33,-1.3507,-1.3707,-1.3896,-1.361,-1.3616,-1.3797,-1.3538,-1.3779,-1.4419,-1.4552,-1.4727,-1.4908,-1.4775,-1.4793,-1.4914,-1.4908,-1.5123,-1.5515,-1.5663,-1.6131,-1.663,-1.663,-1.6849,-1.7067,-1.7179,-1.7384,-1.7477,-1.7582,-1.7582,-1.7582,-1.7582,-1.7636,-1.7557,-1.7514,-1.7453,-1.7501,-1.7554,-1.7554,-1.7602,-1.7966,-1.6472,-1.5189,-1.5138,-1.5259,-1.5198,-1.5014,-1.528,-1.5264,-1.4966,-1.5422,-1.571,-1.5521,-1.5943,-1.6051,-1.6046,-1.6235,-1.6124,-1.5665,-1.5831,-1.5817,-1.5343,-1.553,-1.6098,-1.7232,-1.7462,-1.8153,-1.9243,-1.7129,-1.6006,-1.6165,-1.6051,-1.6051,-1.6165,-1.6051,-1.6051,0.0,0.0,0.0,0.0,0.0,0.0,0.0,0.0,0.0,0.0,0.0,0.0,0.0,0.0,0.0,0.0,0.0,0.0,0.0,0.0,0.0,0.0,0.0,0.0,0.0,0.0,0.0,0.0,0.0,-1.3545,-1.3544,-1.3835,-1.3919,-1.3888,-1.4082,-1.4033,-1.373,-1.3835,-1.3894,-1.3907,-1.3616,-1.3519,-1.3525,-1.3266,-1.3302,-1.3604,-1.4105,-1.4751,-1.5421,-1.492,-1.501,-1.5384,-1.463,-1.4805,-1.5451,-1.5215,-1.5658,-1.6324,-1.6324,-1.653,-1.673,-1.7067,-1.7179,-1.7279,-1.7483,-1.7582,-1.7582,-1.7582,-1.7595,-1.7569,-1.7544,-1.7508,-1.7453,-1.7514,-1.7536,-1.7602,-1.7966,-1.8052,-1.8219,-1.8132,-1.8414,-1.8414,-1.82,-1.8206,-1.812,-1.7867,-1.8052,-1.8156,-1.8254,-1.8726,-1.908,-1.8713,-1.8726,-1.8512,-1.7824,-1.7843,-1.7732,-1.7367,-1.7596,-1.7837,-1.7966,-1.8426,-1.8788,-1.8881,-1.8762,-1.8756,-1.9196,-1.8835,-1.8835,-1.9196,-1.8835,-1.8835,0.0,0.0,0.0,0.0,0.0,0.0,0.0,0.0,0.0,0.0,0.0,0.0,0.0,0.0,0.0,0.0,0.0,0.0,0.0,0.0,0.0,0.0,0.0,0.0,0.0,0.0,0.0,0.0,0.0,0.0,-1.2982,-1.3082,-1.3095,-1.2839,-1.3083,-1.3219,-1.3109,-1.313,-1.3355,-1.3787,-1.3436,-1.3348,-1.3508,-1.3063,-1.3006,-1.3272,-1.3465,-1.4099,-1.4992,-1.4974,-1.5179,-1.5451,-1.4992,-1.5095,-1.5469,-1.5203,-1.5542,-1.5998,-1.5998,-1.6211,-1.653,-1.6736,-1.7067,-1.7279,-1.7483,-1.7582,-1.7582,-1.7582,-1.7582,-1.7655,-1.7633,-1.7592,-1.7478,-1.7475,-1.7658,-1.7849,-1.8194,-1.8194,-1.8164,-1.8319,-1.8489,-1.8482,-1.8123,-1.8117,-1.8031,-1.7768,-1.796,-1.82,-1.82,-1.8544,-1.8655,-1.8532,-1.8816,-1.8736,-1.8323,-1.8239,-1.8152,-1.7861,-1.7966,-1.7972,-1.7972,-1.8406,-1.8717,-1.9148,-1.8724,-1.8751,-1.912,-1.8765,-1.8765,-1.9127,-1.9181,-1.9292,0.0,0.0,0.0,0.0,0.0,0.0,0.0,0.0,0.0,0.0,0.0,0.0,0.0,0.0,0.0,0.0,0.0,0.0,0.0,0.0,0.0,0.0,0.0,0.0,0.0,0.0,0.0,0.0,0.0,0.0,-1.2433,-1.2529,-1.2533,-1.2437,-1.2603,-1.2692,-1.2682,-1.2864,-1.3218,-1.3665,-1.3404,-1.3367,-1.3442,-1.2997,-1.2942,-1.3127,-1.3127,-1.3731,-1.4727,-1.4805,-1.5149,-1.559,-1.5149,-1.5191,-1.5469,-1.5203,-1.5384,-1.5771,-1.5861,-1.5998,-1.6217,-1.6524,-1.6743,-1.6961,-1.7378,-1.7483,-1.7483,-1.7582,-1.7582,-1.7629,-1.7615,-1.7521,-1.7503,-1.7475,-1.7726,-1.796,-1.8194,-1.8311,-1.8393,-1.8677,-1.8684,-1.8588,-1.8375,-1.827,-1.8113,-1.7787,-1.804,-1.8071,-1.7978,-1.8276,-1.8523,-1.8317,-1.8557,-1.8646,-1.822,-1.8177,-1.8077,-1.7984,-1.7898,-1.7886,-1.7978,-1.8183,-1.8552,-1.9082,-1.8646,-1.8633,-1.8679,-1.8472,-1.8472,-1.8907,-1.8886,-1.9004,0.0,0.0,0.0,0.0,0.0,0.0,0.0,0.0,0.0,0.0,0.0,0.0,0.0,0.0,0.0,0.0,0.0,0.0,0.0,0.0,0.0,0.0,0.0,0.0,0.0,0.0,0.0,0.0,0.0,-1.189,-1.1896,-1.2141,-1.2393,-1.2559,-1.2552,-1.2546,-1.2559,-1.3093,-1.3366,-1.3372,-1.3652,-1.3698,-1.3511,-1.3176,-1.3133,-1.3127,-1.3133,-1.3731,-1.4672,-1.4395,-1.4914,-1.5801,-1.5022,-1.504,-1.5481,-1.5215,-1.5282,-1.5547,-1.5801,-1.5891,-1.5891,-1.6217,-1.6324,-1.643,-1.6961,-1.7179,-1.7279,-1.7483,-1.7582,-1.7582,-1.7595,-1.7597,-1.7497,-1.7462,-1.7479,-1.7602,-1.7966,-1.8428,-1.8972,-1.9285,-1.9191,-1.9159,-1.927,-1.895,-1.8661,-1.8437,-1.8433,-1.8276,-1.8016,-1.8439,-1.8614,-1.8009,-1.8226,-1.8261,-1.8009,-1.7654,-1.7612,-1.7859,-1.7642,-1.7618,-1.7865,-1.8143,-1.8416,-1.8655,-1.8665,-1.855,-1.8406,-1.8121,-1.8227,-1.8828,-1.8227,-1.837,-0.5426,0.0,0.0,0.0,0.0,0.0,0.0,0.0,0.0,0.0,0.0,0.0,0.0,0.0,0.0,0.0,0.0,0.0,0.0,0.0,0.0,0.0,0.0,0.0,0.0,0.0,0.0,0.0,-1.1168,-1.1135,-1.1323,-1.1411,-1.1585,-1.1793,-1.1597,-1.1667,-1.2117,-1.2267,-1.2523,-1.28,-1.2914,-1.2962,-1.2968,-1.304,-1.3136,-1.3133,-1.3326,-1.3682,-1.4123,-1.4045,-1.4642,-1.5547,-1.495,-1.5155,-1.5753,-1.5487,-1.5559,-1.5795,-1.5861,-1.5891,-1.5891,-1.6217,-1.6324,-1.6324,-1.6743,-1.6842,-1.6842,-1.6948,-1.716,-1.7324,-1.7534,-1.7534,-1.7453,-1.7449,-1.7456,-1.7602,-1.7966,-1.8083,-1.8332,-1.8809,-1.9075,-1.9107,-1.8679,-1.871,-1.8599,-1.8099,-1.8068,-1.7973,-1.79,-1.8068,-1.8086,-1.7894,-1.8137,-1.8423,-1.8526,-1.8228,-1.8137,-1.8255,-1.8125,-1.801,-1.7877,-1.8143,-1.8501,-1.9057,-1.858,-1.8635,-1.9243,-1.8331,-1.8169,-1.8489,-1.8728,-1.9164,0.0,0.0,0.0,0.0,0.0,0.0,-0.6747,-0.7252,0.0,0.0,0.0,0.0,0.0,0.0,0.0,0.0,0.0,0.0,0.0,0.0,0.0,0.0,0.0,0.0,0.0,0.0,0.0,-1.0704,-1.0833,-1.0954,-1.1099,-1.1111,-1.1184,-1.1353,-1.1196,-1.1271,-1.1587,-1.1787,-1.2008,-1.2321,-1.2713,-1.282,-1.275,-1.3101,-1.3187,-1.3133,-1.329,-1.3501,-1.3743,-1.3743,-1.431,-1.5143,-1.4835,-1.5065,-1.5559,-1.5517,-1.5523,-1.5596,-1.5813,-1.5819,-1.5747,-1.6074,-1.6105,-1.6211,-1.6424,-1.6524,-1.6524,-1.663,-1.6932,-1.718,-1.7233,-1.735,-1.7466,-1.7387,-1.7402,-1.7602,-1.7726,-1.7849,-1.8059,-1.8482,-1.8759,-1.8803,-1.8456,-1.8392,-1.8336,-1.8037,-1.8027,-1.7968,-1.7738,-1.7907,-1.7962,-1.7732,-1.7956,-1.8283,-1.8521,-1.8301,-1.827,-1.8466,-1.8277,-1.8094,-1.8052,-1.8209,-1.8538,-1.8924,-1.8763,-1.8842,-1.9157,-1.8331,-1.7997,-1.8249,-1.8642,-1.9125,0.0,0.0,0.0,0.0,0.0,0.0,-0.6965,-0.761,-0.8184,0.0,0.0,0.0,0.0,0.0,0.0,0.0,0.0,0.0,0.0,0.0,0.0,0.0,0.0,0.0,0.0,-1.0539,-1.0755,-1.0321,-1.0773,-1.1081,-1.1111,-1.1111,-1.1111,-1.1111,-1.1111,-1.1111,-1.1111,-1.1593,-1.18,-1.1806,-1.2833,-1.3097,-1.2782,-1.3368,-1.349,-1.3209,-1.324,-1.3367,-1.3562,-1.3683,-1.406,-1.4672,-1.4672,-1.4847,-1.5035,-1.5366,-1.5203,-1.5071,-1.5638,-1.565,-1.5499,-1.5765,-1.5849,-1.5962,-1.6205,-1.6217,-1.6318,-1.663,-1.6813,-1.7022,-1.6829,-1.7117,-1.7399,-1.7195,-1.7292,-1.7485,-1.7485,-1.7726,-1.7966,-1.8305,-1.8295,-1.8414,-1.8393,-1.8311,-1.8246,-1.7972,-1.8184,-1.807,-1.7587,-1.795,-1.8058,-1.7575,-1.7787,-1.8064,-1.8318,-1.8131,-1.8203,-1.8656,-1.8257,-1.8094,-1.8287,-1.8348,-1.8475,-1.868,-1.8939,-1.8945,-1.8686,-1.8197,-1.7962,-1.7974,-1.8251,-1.8505,0.0,0.0,0.0,0.0,0.0,0.0,-0.8236,-0.845,-0.8757,0.0,0.0,0.0,0.0,0.0,0.0,0.0,0.0,0.0,0.0,0.0,0.0,0.0,0.0,0.0,0.0,-0.9916,-0.9898,-1.0208,-1.0572,-1.0888,-1.1099,-1.1111,-1.1111,-1.1111,-1.1111,-1.1111,-1.1111,-1.1166,-1.1271,-1.1277,-1.2681,-1.328,-1.322,-1.4643,-1.4867,-1.4148,-1.4376,-1.43,-1.3995,-1.448,-1.4587,-1.4377,-1.4377,-1.458,-1.4802,-1.4855,-1.4736,-1.4503,-1.4806,-1.4915,-1.4915,-1.5383,-1.5572,-1.5614,-1.5931,-1.5998,-1.5998,-1.6318,-1.6468,-1.6561,-1.6894,-1.7085,-1.7266,-1.7369,-1.7518,-1.7485,-1.7485,-1.7602,-1.7602,-1.7719,-1.8058,-1.835,-1.8044,-1.8191,-1.8185,-1.7967,-1.8009,-1.7919,-1.7811,-1.7889,-1.7913,-1.7811,-1.8233,-1.8547,-1.8601,-1.8752,-1.8794,-1.8692,-1.8782,-1.8674,-1.8312,-1.8698,-1.8849,-1.8686,-1.8939,-1.8945,-1.8686,-1.8577,-1.8523,-1.8535,-1.8801,-1.8951,0.0,0.0,0.0,-0.9112,0.0,0.0,0.0,-0.9039,-0.912,0.0,0.0,0.0,0.0,0.0,0.0,0.0,0.0,0.0,0.0,0.0,0.0,0.0,0.0,0.0,0.0,-0.9699,-0.9722,-1.0182,-1.0387,-1.0643,-1.104,-1.1065,-1.1193,-1.1552,-1.126,-1.126,-1.1558,-1.126,-1.126,-1.1564,-1.2815,-1.3574,-1.3752,-1.509,-1.5532,-1.5182,-1.5395,-1.545,-1.5353,-1.5562,-1.5504,-1.5226,-1.5668,-1.6012,-1.603,-1.6003,-1.562,-1.5107,-1.4938,-1.4718,-1.4666,-1.5663,-1.6103,-1.6465,-1.6963,-1.7259,-1.7364,-1.7371,-1.7682,-1.7896,-1.7802,-1.7799,-1.7885,-1.7779,-1.7644,-1.7713,-1.8292,-1.8402,-1.8629,-1.9196,-1.9559,-1.9365,-1.7933,-1.7793,-1.7841,-1.7702,-1.8501,-1.9095,-1.8947,-1.9056,-1.9095,-1.8947,-1.8474,-1.8137,-1.8269,-1.8396,-1.8535,-1.8674,-1.8553,-1.8481,-1.8487,-1.8613,-1.8746,-1.8879,-1.9006,-1.9012,-1.8879,-1.8879,-1.8813,-1.8686,-1.8819,-1.8951,0.0,0.0,0.0,0.0,0.0,-0.952,0.0,0.0,0.0,-0.884,0.0,0.0,0.0,0.0,0.0,0.0,0.0,0.0,0.0,0.0,0.0,0.0,0.0,0.0,0.0,-0.9742,-0.9798,-1.011,-1.0317,-1.0542,-1.0836,-1.1103,-1.1452,-1.1918,-1.1533,-1.1577,-1.223,-1.1583,-1.1583,-1.2311,-1.3376,-1.4024,-1.4435,-1.5486,-1.605,-1.6126,-1.63,-1.6425,-1.6462,-1.6511,-1.6453,-1.6345,-1.6915,-1.7152,-1.7106,-1.7034,-1.656,-1.6047,-1.5614,-1.5232,-1.5047,-1.6336,-1.7052,-1.7661,-1.8241,-1.8624,-1.8722,-1.8527,-1.89,-1.9269,-1.8731,-1.8816,-1.8877,-1.8532,-1.83,-1.8402,-1.9435,-1.9666,-1.9903,-2.0981,-2.1162,-2.0522,-1.8551,-1.8213,-1.825,-1.825,-1.9582,-2.0534,-2.0335,-2.0534,-2.0595,-2.0335,-1.9213,-1.862,-1.8842,-1.8911,-1.9132,-1.9468,-1.9189,-1.912,-1.9399,-1.9211,-1.92,-1.9444,-1.945,-1.9328,-1.9078,-1.9078,-1.8969,-1.8758,-1.8758,-1.8873,0.0,0.0,0.0,0.0,-1.0067,0.0,0.0,0.0,-1.0028,-0.9909,0.0,0.0,0.0,0.0,0.0,0.0,0.0,0.0,0.0,0.0,0.0,0.0,0.0,0.0,0.0,0.0,-1.0053,-0.9946,-1.0621,-1.0786,-1.0369,-1.1323,-1.178,-1.1638,-1.1799,-1.2344,-1.3202,-1.235,-1.235,-1.3285,-1.4399,-1.5042,-1.5389,-1.6645,-1.7087,-1.6738,-1.6598,-1.645,-1.6324,-1.6813,-1.7108,-1.7032,-1.6102,-1.5805,-1.593,-1.6177,-1.6326,-1.6333,-1.6819,-1.688,-1.698,-1.7618,-1.8224,-1.8575,-1.8408,-1.8624,-1.8722,-1.8527,-1.8646,-1.8893,-1.9101,-1.9414,-1.9722,-2.0231,-2.0408,-2.0451,-2.0787,-2.0902,-2.0989,-2.1162,-2.1133,-2.106,-2.0795,-2.08,-2.0876,-2.1219,-2.1401,-2.1664,-2.2037,-2.2103,-2.2111,-2.2074,-2.2045,-2.2083,-2.2119,-2.2378,-2.2565,-2.2644,-2.258,-2.245,-2.2241,-2.2198,-2.1733,-2.0943,-2.0829,-2.0329,-1.9078,-1.9078,-1.906,-1.903,-1.903,-1.9048,0.0,0.0,0.0,0.0,0.0,0.0,-1.0916,0.0,-1.0019,0.0,0.0,0.0,0.0,0.0,0.0,0.0,0.0,0.0,0.0,0.0,0.0,0.0,0.0,0.0,0.0,0.0,0.0,0.0,0.0,-1.0863,-1.1077,-1.1573,-1.22,-1.3042,-1.2809,-1.3174,-1.4096,-1.3365,-1.3365,-1.4103,-1.4547,-1.5171,-1.5859,-1.6681,-1.7302,-1.7516,-1.7632,-1.7754,-1.7882,-1.7945,-1.8097,-1.8033,-1.6975,-1.6958,-1.755,-1.7588,-1.7566,-1.7527,-1.7438,-1.7324,-1.742,-1.8549,-1.96,-2.0285,-2.0277,-2.0483,-2.0688,-2.038,-2.0688,-2.0956,-2.0527,-2.0567,-2.0704,-2.0656,-2.0656,-2.0909,-2.1487,-2.1941,-2.2328,-2.2945,-2.3236,-2.3268,-2.3268,-2.2113,-2.1277,-2.1628,-2.2548,-2.3326,-2.36,-2.3735,-2.3735,-2.3735,-2.2962,-2.2443,-2.2443,-2.2568,-2.273,-2.2907,-2.2974,-2.293,-2.2737,-2.2899,-2.2689,-2.232,-2.2201,-2.195,-2.1454,-2.1454,-2.1454,-2.1328,-1.9826,-1.9078,-1.2493,0.0,0.0,0.0,0.0,0.0,0.0,0.0,0.0,0.0,0.0,0.0,0.0,0.0,0.0,0.0,0.0,0.0,0.0,0.0,0.0,0.0,0.0,0.0,0.0,0.0,0.0,-0.9754,-1.0394,-1.1012,-1.1432,-1.1797,-1.2593,-1.3897,-1.3563,-1.3881,-1.4924,-1.438,-1.4425,-1.5148,-1.5224,-1.5586,-1.6313,-1.6752,-1.7334,-1.8029,-1.823,-1.8447,-1.8701,-1.8637,-1.8531,-1.8394,-1.7698,-1.7938,-1.8648,-1.8571,-1.8633,-1.8723,-1.8448,-1.8253,-1.8369,-1.9636,-2.0609,-2.1326,-2.1522,-2.1827,-2.1928,-2.1725,-2.203,-2.2266,-2.1653,-2.161,-2.165,-2.1317,-2.1316,-2.1722,-2.2418,-2.299,-2.3593,-2.4278,-2.4653,-2.4935,-2.5015,-2.3518,-2.25,-2.2826,-2.3984,-2.4956,-2.5302,-2.5318,-2.5318,-2.5318,-2.4356,-2.36,-2.36,-2.36,-2.37,-2.3939,-2.4063,-2.4086,-2.397,-2.4071,-2.407,-2.3698,-2.3698,-2.345,-2.3076,-2.3076,-2.3076,-2.3076,-2.1076,-2.0202,0.0,0.0,0.0,-1.1844,0.0,0.0,0.0,0.0,-0.9823,0.0,0.0,0.0,0.0,0.0,0.0,0.0,0.0,0.0,0.0,0.0,0.0,0.0,0.0,0.0,0.0,0.0,0.0,-0.9843,-1.0862,-1.1368,-1.1135,-1.208,-1.293,-1.3422,-1.3667,-1.437,-1.565,-1.5258,-1.5506,-1.642,-1.6735,-1.6901,-1.717,-1.7121,-1.7409,-1.7877,-1.7879,-1.7866,-1.7898,-1.816,-1.8097,-1.7787,-1.7763,-1.7985,-1.8319,-1.8343,-1.8994,-1.9916,-2.0166,-2.0506,-2.0783,-2.0798,-2.1011,-2.1326,-2.1318,-2.1522,-2.1725,-2.1725,-2.1928,-2.2113,-2.1867,-2.2348,-2.2815,-2.2824,-2.3078,-2.3472,-2.3801,-2.4144,-2.4365,-2.4383,-2.4628,-2.4957,-2.5318,-2.5319,-2.5445,-2.5821,-2.6118,-2.6619,-2.7004,-2.7056,-2.7056,-2.7056,-2.6926,-2.6918,-2.6918,-2.6918,-2.6918,-2.6935,-2.6943,-2.6943,-2.6935,-2.6943,-2.6327,-2.5071,-2.5071,-2.4448,-2.3076,-2.3076,-2.3076,-2.3076,-2.2952,-2.2952,0.0,0.0,-1.6602,-1.5005,0.0,0.0,0.0,0.0,0.0,0.0,0.0,0.0,0.0,0.0,0.0,0.0,0.0,0.0,0.0,0.0,0.0,0.0,0.0,0.0,0.0,0.0,0.0,-0.9673,-1.0343,-1.0897,-1.1237,-1.18,-1.2575,-1.3648,-1.4421,-1.5121,-1.5912,-1.6301,-1.6566,-1.6768,-1.6198,-1.6453,-1.7397,-1.6558,-1.6748,-1.7763,-1.7774,-1.7771,-1.7811,-1.8406,-1.8573,-1.8446,-1.8208,-1.8343,-1.8645,-1.8645,-1.9161,-1.9948,-2.0535,-2.0821,-2.0925,-2.0925,-2.1121,-2.1326,-2.1326,-2.1623,-2.1928,-2.1928,-2.2232,-2.2367,-2.1882,-2.2273,-2.2757,-2.2325,-2.2925,-2.3472,-2.336,-2.3921,-2.4298,-2.4078,-2.4452,-2.4863,-2.5007,-2.5417,-2.5829,-2.6321,-2.6465,-2.6678,-2.7056,-2.7073,-2.7073,-2.7073,-2.7073,-2.7073,-2.7073,-2.7073,-2.7073,-2.7073,-2.7073,-2.7073,-2.7073,-2.7073,-2.6932,-2.6784,-2.6566,-2.6313,-2.6034,-2.5806,-2.57,-2.57,-2.57,-2.4818,-1.7417,-1.7949,0.0,-1.6556,-1.6094,0.0,-1.4616,0.0,0.0,0.0,0.0,0.0,0.0,0.0,0.0,0.0,0.0,0.0,0.0,-0.9714,0.0,0.0,0.0,0.0,0.0,0.0,-0.9683,-0.9579,-1.0126,-1.063,0.0,0.0,-1.2756,-1.3798,-1.4985,-1.5719,-1.6096,-1.6928,-1.7338,-1.7153,-1.6818,-1.7064,-1.7909,-1.7181,-1.7324,-1.8146,-1.8143,-1.8118,-1.8175,-1.8806,-1.9004,-1.8804,-1.8755,-1.8803,-1.8812,-1.8684,-1.9161,-1.9963,-2.0678,-2.0925,-2.0925,-2.0925,-2.1019,-2.1224,-2.1216,-2.1623,-2.1928,-2.1928,-2.2232,-2.2443,-2.1827,-2.2179,-2.2674,-2.2264,-2.2739,-2.3199,-2.299,-2.3697,-2.4153,-2.3921,-2.4368,-2.4863,-2.5244,-2.5656,-2.5946,-2.6321,-2.6576,-2.6822,-2.7073,-2.7073,-2.7073,-2.7073,-2.7073,-2.7073,-2.7073,-2.7073,-2.7073,-2.7073,-2.7073,-2.7073,-2.7073,-2.7193,-2.7372,-2.7604,-2.7381,-2.7381,-2.7604,-2.7244,-2.7141,-2.7261,-2.7261,-2.6446]},{"header":{"parameterUnit":"m.s-1","parameterCategory":1,"la1":30.6,"la2":29.2853,"lo1":-89.7004,"lo2":-87.6739,"dy":0.0162,"dx":0.0183,"nx":112,"ny":82,"refTime":"2023-04-30T00:00:00:Z","depth":0,"parameterNumber":3,"parameterNumberName":"V-component_of_WINDS"},"data":[0.0,0.0,0.0,0.0,0.0,0.0,0.0,0.0,0.0,0.0,0.0,0.0,0.0,0.0,0.0,0.0,0.0,0.0,0.0,0.0,0.0,0.0,0.0,0.0,0.0,0.0,0.0,0.0,0.0,0.0,0.0,0.0,0.0,0.0,0.0,0.0,0.0,0.0,0.0,0.0,0.0,0.0,0.0,0.0,0.0,0.0,0.0,0.0,0.0,0.0,0.0,0.0,0.0,0.0,0.0,0.0,0.0,0.0,0.0,0.0,0.0,0.0,0.0,0.0,0.0,0.0,0.0,0.0,0.0,0.0,0.0,0.0,0.0,0.0,0.0,0.0,0.0,0.0,0.0,0.0,0.0,0.0,0.0,0.0,0.0,0.0,0.0,0.0,0.0,0.0,0.0,-0.5815,-0.6657,-0.7198,-0.7317,-0.7245,-0.7206,-0.7208,0.0,0.0,0.0,0.0,0.0,0.0,0.0,0.0,0.0,0.0,0.0,0.0,0.0,0.0,0.0,0.0,0.0,0.0,0.0,0.0,0.0,0.0,0.0,0.0,0.0,0.0,0.0,0.0,0.0,0.0,0.0,0.0,0.0,0.0,0.0,0.0,0.0,0.0,0.0,0.0,0.0,0.0,0.0,0.0,0.0,0.0,0.0,0.0,0.0,0.0,0.0,0.0,0.0,0.0,0.0,0.0,0.0,0.0,0.0,0.0,0.0,0.0,0.0,0.0,0.0,0.0,0.0,0.0,0.0,0.0,0.0,0.0,0.0,0.0,0.0,0.0,0.0,0.0,0.0,0.0,0.0,0.0,0.0,0.0,0.0,0.0,0.0,0.0,0.0,0.0,0.0,0.0,0.0,0.0,0.0,0.0,0.0,0.0,0.0,0.0,0.0,0.0,0.0,0.0,-0.6015,-0.7074,-0.7321,-0.7413,-0.7317,-0.6934,-0.686,-0.7251,0.0,0.0,0.0,0.0,0.0,0.0,0.0,0.0,0.0,0.0,0.0,0.0,0.0,0.0,0.0,0.0,0.0,0.0,0.0,0.0,0.0,0.0,0.0,0.0,0.0,0.0,0.0,0.0,0.0,0.0,0.0,0.0,0.0,0.0,0.0,0.0,0.0,0.0,0.0,0.0,0.0,0.0,0.0,0.0,0.0,0.0,0.0,0.0,0.0,0.0,0.0,0.0,0.0,0.0,0.0,0.0,0.0,0.0,0.0,0.0,0.0,0.0,0.0,0.0,0.0,0.0,0.0,0.0,0.0,0.0,0.0,0.0,0.0,0.0,0.0,0.0,0.0,0.0,0.0,0.0,0.0,0.0,0.0,0.0,0.0,0.0,0.0,0.0,0.0,0.0,0.0,0.0,0.0,0.0,0.0,0.0,0.0,0.0,0.0,0.0,0.0,0.0,0.0,-0.558,-0.6329,-0.7364,-0.765,-0.7687,-0.7634,-0.7215,-0.7205,-0.7903,-0.7408,0.0,0.0,0.0,0.0,0.0,0.0,0.0,0.0,0.0,0.0,0.0,0.0,0.0,0.0,0.0,0.0,0.0,0.0,0.0,0.0,0.0,0.0,0.0,0.0,0.0,0.0,0.0,0.0,0.0,0.0,0.0,0.0,0.0,0.0,0.0,0.0,0.0,0.0,0.0,0.0,0.0,0.0,0.0,0.0,0.0,0.0,0.0,0.0,0.0,0.0,0.0,0.0,0.0,0.0,0.0,0.0,0.0,0.0,0.0,0.0,0.0,0.0,0.0,0.0,0.0,0.0,0.0,0.0,0.0,0.0,0.0,0.0,0.0,0.0,0.0,0.0,0.0,0.0,0.0,0.0,0.0,0.0,0.0,0.0,0.0,0.0,0.0,0.0,0.0,0.0,0.0,0.0,0.0,0.0,0.0,0.0,0.0,0.0,0.0,0.0,0.0,0.0,-0.5959,-0.6322,-0.7362,-0.7607,-0.7792,-0.7858,-0.7419,-0.7531,-0.8402,-0.7632,0.0,0.0,0.0,0.0,0.0,0.0,0.0,0.0,0.0,0.0,0.0,0.0,0.0,0.0,0.0,0.0,0.0,0.0,0.0,0.0,0.0,0.0,0.0,0.0,0.0,0.0,0.0,0.0,0.0,0.0,0.0,0.0,0.0,0.0,0.0,0.0,0.0,0.0,0.0,0.0,0.0,0.0,0.0,0.0,0.0,0.0,0.0,0.0,0.0,0.0,0.0,0.0,0.0,0.0,0.0,0.0,0.0,0.0,0.0,0.0,0.0,0.0,0.0,0.0,0.0,0.0,0.0,0.0,0.0,0.0,0.0,0.0,0.0,0.0,0.0,0.0,0.0,0.0,0.0,0.0,0.0,0.0,0.0,0.0,0.0,0.0,0.0,0.0,0.0,0.0,0.0,0.0,0.0,0.0,0.0,0.0,0.0,0.0,0.0,0.0,0.0,0.0,-0.6035,-0.6155,-0.7294,-0.729,-0.7358,-0.7664,-0.7329,-0.7463,-0.8356,-0.8381,0.0,0.0,0.0,0.0,0.0,0.0,0.0,0.0,0.0,0.0,0.0,0.0,0.0,0.0,0.0,0.0,0.0,0.0,0.0,0.0,0.0,0.0,0.0,0.0,0.0,0.0,0.0,0.0,0.0,0.0,0.0,0.0,0.0,0.0,0.0,0.0,0.0,0.0,0.0,0.0,0.0,0.0,0.0,0.0,0.0,0.0,0.0,0.0,0.0,0.0,0.0,0.0,0.0,0.0,0.0,0.0,0.0,0.0,0.0,0.0,0.0,0.0,0.0,0.0,0.0,0.0,0.0,0.0,0.0,0.0,0.0,0.0,0.0,0.0,0.0,0.0,0.0,0.0,0.0,0.0,0.0,0.0,0.0,0.0,0.0,0.0,0.0,0.0,0.0,0.0,0.0,0.0,0.0,0.0,0.0,0.0,0.0,0.0,0.0,0.0,0.0,0.0,-0.6635,-0.6573,0.0,-0.7538,-0.7573,-0.7736,-0.753,-0.7894,-0.9031,0.0,0.0,0.0,0.0,0.0,0.0,0.0,0.0,0.0,0.0,0.0,0.0,0.0,0.0,0.0,0.0,0.0,0.0,0.0,0.0,0.0,0.0,0.0,0.0,0.0,0.0,0.0,0.0,0.0,0.0,0.0,0.0,0.0,0.0,0.0,0.0,0.0,0.0,0.0,0.0,0.0,0.0,0.0,0.0,0.0,0.0,0.0,0.0,0.0,0.0,0.0,0.0,0.0,0.0,0.0,0.0,0.0,0.0,0.0,0.0,0.0,0.0,0.0,0.0,0.0,0.0,0.0,0.0,0.0,0.0,0.0,0.0,0.0,0.0,0.0,0.0,0.0,0.0,0.0,0.0,0.0,0.0,0.0,0.0,0.0,0.0,0.0,0.0,0.0,0.0,0.0,0.0,0.0,0.0,0.0,0.0,0.0,0.0,0.0,0.0,0.0,0.0,-0.7569,-0.6965,-0.6761,0.0,-0.7341,-0.7431,-0.776,-0.7642,-0.807,-0.9341,0.0,0.0,0.0,0.0,0.0,0.0,0.0,0.0,0.0,0.0,0.0,0.0,0.0,0.0,0.0,0.0,0.0,0.0,0.0,0.0,0.0,0.0,0.0,0.0,0.0,0.0,0.0,0.0,0.0,0.0,0.0,0.0,0.0,0.0,0.0,0.0,0.0,0.0,0.0,0.0,0.0,0.0,0.0,0.0,0.0,0.0,0.0,0.0,0.0,0.0,0.0,0.0,0.0,0.0,0.0,0.0,0.0,0.0,0.0,0.0,0.0,0.0,0.0,0.0,0.0,0.0,0.0,0.0,0.0,0.0,0.0,0.0,0.0,0.0,0.0,0.0,0.0,0.0,0.0,0.0,0.0,0.0,0.0,0.0,0.0,0.0,0.0,0.0,0.0,0.0,0.0,0.0,0.0,0.0,0.0,0.0,0.0,0.0,0.0,0.0,0.0,0.0,-0.7748,-0.7015,-0.6625,-0.6891,-0.6687,-0.6837,-0.7667,-0.759,-0.8019,0.0,0.0,0.0,0.0,0.0,0.0,0.0,0.0,0.0,0.0,0.0,0.0,0.0,0.0,0.0,0.0,0.0,0.0,0.0,0.0,0.0,0.0,0.0,0.0,0.0,0.0,0.0,0.0,0.0,0.0,0.0,0.0,0.0,0.0,0.0,0.0,0.0,0.0,0.0,0.0,0.0,0.0,0.0,0.0,0.0,0.0,0.0,0.0,0.0,0.0,0.0,0.0,0.0,0.0,0.0,0.0,0.0,0.0,0.0,0.0,0.0,0.0,0.0,0.0,0.0,0.0,0.0,0.0,0.0,0.0,0.0,0.0,0.0,0.0,0.0,0.0,0.0,0.0,0.0,0.0,0.0,0.0,0.0,0.0,0.0,0.0,0.0,0.0,0.0,0.0,0.0,0.0,0.0,0.0,0.0,0.0,0.0,0.0,0.0,0.0,0.0,0.0,0.0,-0.8286,-0.7602,-0.7342,-0.7772,-0.7558,-0.7667,-0.8342,-0.8306,-0.8652,-0.9552,0.0,0.0,0.0,0.0,0.0,0.0,0.0,0.0,0.0,0.0,0.0,0.0,0.0,0.0,0.0,0.0,0.0,0.0,0.0,0.0,0.0,0.0,0.0,0.0,0.0,0.0,0.0,0.0,0.0,0.0,0.0,0.0,0.0,0.0,0.0,0.0,0.0,0.0,0.0,0.0,0.0,0.0,0.0,0.0,0.0,0.0,0.0,0.0,0.0,0.0,0.0,0.0,0.0,0.0,0.0,0.0,0.0,0.0,0.0,0.0,0.0,0.0,0.0,0.0,0.0,0.0,0.0,0.0,0.0,0.0,0.0,0.0,0.0,0.0,0.0,0.0,0.0,0.0,0.0,0.0,0.0,0.0,0.0,0.0,0.0,0.0,0.0,0.0,0.0,0.0,0.0,0.0,0.0,0.0,0.0,0.0,0.0,0.0,0.0,0.0,0.0,0.0,-0.8732,-0.7865,-0.7573,-0.8211,-0.7968,-0.8051,-0.8853,-0.8885,-0.9167,-0.9879,0.0,0.0,0.0,0.0,0.0,0.0,0.0,0.0,0.0,0.0,0.0,0.0,0.0,0.0,0.0,0.0,0.0,0.0,0.0,0.0,0.0,0.0,0.0,0.0,0.0,0.0,0.0,0.0,0.0,0.0,0.0,0.0,0.0,0.0,0.0,0.0,0.0,0.0,0.0,0.0,0.0,0.0,0.0,0.0,0.0,0.0,0.0,0.0,0.0,0.0,0.0,0.0,0.0,0.0,0.0,0.0,0.0,0.0,0.0,0.0,0.0,0.0,0.0,0.0,0.0,0.0,0.0,0.0,0.0,0.0,0.0,0.0,0.0,0.0,0.0,0.0,0.0,0.0,0.0,0.0,0.0,0.0,0.0,0.0,0.0,0.0,0.0,0.0,0.0,0.0,0.0,0.0,0.0,0.0,0.0,0.0,0.0,0.0,0.0,0.0,0.0,0.0,-0.9124,-0.8014,-0.7552,-0.8386,-0.8119,-0.8226,-0.9193,-0.9267,-0.9506,-1.0075,0.0,0.0,0.0,0.0,0.0,0.0,0.0,0.0,0.0,0.0,0.0,0.0,0.0,0.0,0.0,0.0,0.0,0.0,0.0,0.0,0.0,0.0,0.0,0.0,0.0,0.0,0.0,0.0,0.0,0.0,0.0,0.0,0.0,0.0,0.0,0.0,0.0,0.0,0.0,0.0,0.0,0.0,0.0,0.0,0.0,0.0,0.0,0.0,0.0,0.0,0.0,0.0,0.0,0.0,0.0,0.0,0.0,0.0,0.0,0.0,-0.9094,0.0,0.0,0.0,0.0,0.0,0.0,0.0,0.0,0.0,0.0,0.0,0.0,0.0,0.0,0.0,0.0,0.0,0.0,0.0,0.0,0.0,0.0,0.0,0.0,0.0,0.0,0.0,0.0,0.0,0.0,0.0,0.0,0.0,0.0,0.0,0.0,0.0,0.0,0.0,0.0,0.0,-0.9617,-0.9137,-0.889,-0.9142,-0.9079,-0.9249,-0.9841,-0.9748,-0.9867,-1.0363,-1.0613,0.0,0.0,0.0,0.0,0.0,0.0,0.0,0.0,0.0,0.0,0.0,0.0,0.0,0.0,0.0,0.0,0.0,0.0,0.0,0.0,0.0,0.0,0.0,0.0,0.0,0.0,0.0,0.0,0.0,0.0,0.0,0.0,0.0,0.0,0.0,0.0,0.0,0.0,0.0,0.0,0.0,0.0,0.0,0.0,0.0,0.0,0.0,0.0,0.0,0.0,0.0,0.0,0.0,0.0,0.0,0.0,0.0,0.0,0.0,0.0,-0.9003,0.0,0.0,0.0,0.0,0.0,0.0,0.0,0.0,0.0,0.0,0.0,0.0,0.0,0.0,0.0,0.0,0.0,0.0,0.0,0.0,0.0,0.0,0.0,0.0,0.0,0.0,0.0,0.0,0.0,0.0,0.0,0.0,0.0,0.0,0.0,0.0,0.0,0.0,0.0,0.0,-0.9965,-0.9733,-0.9536,-0.9444,-0.9763,-1.0124,-1.0567,-1.0937,-1.1259,-1.1612,-1.1719,0.0,0.0,0.0,0.0,0.0,0.0,0.0,0.0,0.0,0.0,0.0,0.0,0.0,0.0,0.0,0.0,0.0,0.0,0.0,0.0,0.0,0.0,0.0,0.0,0.0,0.0,0.0,0.0,0.0,0.0,0.0,0.0,0.0,0.0,0.0,0.0,0.0,0.0,0.0,0.0,0.0,0.0,0.0,0.0,0.0,0.0,0.0,0.0,0.0,0.0,0.0,0.0,0.0,-1.1006,-1.1177,-1.1624,-1.1884,-1.1603,-1.0772,-0.9723,-0.9063,-0.8725,0.0,0.0,0.0,0.0,0.0,0.0,0.0,0.0,0.0,0.0,0.0,0.0,0.0,0.0,0.0,0.0,0.0,0.0,0.0,0.0,0.0,0.0,0.0,0.0,0.0,-1.3546,-1.3435,0.0,0.0,0.0,0.0,0.0,0.0,0.0,0.0,0.0,0.0,0.0,0.0,-1.0449,-1.0367,-1.0254,-1.0001,-1.0544,-1.105,-1.1307,-1.208,-1.2609,-1.2812,-1.2865,-1.2978,0.0,0.0,0.0,0.0,0.0,0.0,0.0,0.0,0.0,0.0,0.0,0.0,0.0,0.0,0.0,0.0,0.0,0.0,0.0,0.0,0.0,0.0,0.0,0.0,0.0,0.0,0.0,0.0,0.0,0.0,0.0,0.0,-1.2911,-1.3369,0.0,0.0,0.0,0.0,0.0,0.0,0.0,0.0,0.0,0.0,0.0,0.0,0.0,0.0,-1.371,-1.3645,-1.3554,-1.3474,-1.2936,-1.2632,-1.2577,-1.2263,-1.2069,-1.2023,-1.1463,0.0,-0.9673,-1.02,0.0,0.0,0.0,0.0,0.0,0.0,0.0,0.0,0.0,0.0,0.0,0.0,0.0,0.0,0.0,0.0,0.0,0.0,0.0,0.0,0.0,0.0,-1.4261,-1.4167,-1.4058,-1.4034,0.0,-1.338,-1.2489,-1.2423,0.0,0.0,0.0,0.0,0.0,0.0,0.0,0.0,-1.1697,-1.1893,-1.2002,-1.1865,-1.2057,-1.2183,-1.2231,-1.2337,-1.2511,-1.2764,-1.2897,-1.3041,-1.3181,-1.3052,0.0,0.0,0.0,0.0,0.0,0.0,0.0,0.0,0.0,0.0,0.0,0.0,0.0,0.0,0.0,0.0,0.0,0.0,0.0,0.0,0.0,0.0,0.0,0.0,0.0,0.0,0.0,0.0,0.0,-1.2914,-1.2861,-1.405,-1.3657,-1.3532,0.0,0.0,0.0,0.0,0.0,0.0,0.0,0.0,0.0,-1.444,-1.4106,-1.3965,-1.4074,-1.4025,-1.4031,-1.4005,-1.4031,-1.3787,-1.3365,-1.357,-1.3414,-1.3032,-1.2922,-1.2632,-1.2137,-1.0936,-1.0317,-1.0171,0.0,0.0,0.0,0.0,0.0,-1.186,-1.1839,0.0,0.0,0.0,0.0,0.0,0.0,0.0,0.0,0.0,0.0,0.0,0.0,0.0,0.0,-1.4882,-1.4976,-1.5002,-1.484,-1.4396,-1.3874,0.0,-1.2998,-1.2747,-1.2352,0.0,0.0,0.0,0.0,0.0,-1.2407,-1.271,-1.2715,-1.2082,-1.257,-1.2907,-1.2752,-1.3293,-1.3695,-1.3789,-1.3967,-1.4098,-1.4169,-1.377,-1.366,0.0,0.0,0.0,0.0,0.0,0.0,0.0,0.0,0.0,0.0,0.0,0.0,0.0,0.0,0.0,0.0,0.0,0.0,0.0,0.0,0.0,0.0,0.0,0.0,0.0,0.0,0.0,0.0,-1.3521,-1.3235,-1.452,-1.4139,-1.386,0.0,0.0,0.0,0.0,0.0,0.0,-1.5072,-1.5168,-1.5203,-1.5203,-1.5159,-1.5028,-1.488,-1.5103,-1.5289,-1.5362,-1.5732,-1.565,-1.5144,-1.5485,-1.5296,-1.4664,-1.4694,-1.474,-1.4546,-1.2149,-1.1186,-1.1223,-1.1296,-1.1576,-1.195,-1.2319,-1.2619,-1.2838,-1.2769,-1.2566,-1.2236,-1.1836,0.0,-1.161,-1.1511,0.0,0.0,0.0,0.0,-1.4505,-1.558,-1.5546,-1.5402,-1.5893,-1.6042,-1.607,-1.5664,-1.5568,-1.5286,0.0,-1.3939,-1.3538,-1.2964,0.0,0.0,0.0,0.0,-1.3628,-1.304,-1.3405,-1.3418,-1.2642,-1.3205,-1.3559,-1.3398,-1.4074,-1.4479,-1.4404,-1.4552,-1.4722,-1.48,-1.426,-1.4255,-1.4809,0.0,0.0,0.0,0.0,0.0,0.0,0.0,0.0,0.0,0.0,0.0,0.0,0.0,0.0,0.0,0.0,0.0,0.0,0.0,0.0,0.0,0.0,0.0,0.0,0.0,0.0,0.0,0.0,0.0,-1.4328,-1.4494,0.0,0.0,0.0,0.0,-1.4851,-1.5229,-1.5629,-1.6127,-1.6657,-1.6904,-1.6769,-1.7491,-1.7767,-1.7489,-1.846,-1.8848,-1.8736,-1.8928,-1.8918,-1.874,-1.8162,-1.7798,-1.7573,-1.7207,-1.6817,-1.6325,-1.4351,-1.3318,-1.303,-1.3385,-1.3554,-1.3615,-1.4046,-1.4367,-1.4672,-1.4731,-1.4666,-1.4479,-1.4198,-1.3869,-1.3593,-1.3774,-1.3778,0.0,0.0,-1.4888,-1.5647,-1.6137,-1.6681,-1.7118,-1.7277,-1.7198,-1.7046,-1.6849,-1.651,-1.6105,0.0,-1.5012,-1.4482,-1.3998,0.0,-1.3772,-1.3148,-1.3692,-1.4086,-1.3795,-1.4279,-1.4547,-1.4294,-1.4316,-1.4362,-1.434,-1.4362,-1.4233,-1.3873,-1.396,-1.4211,-1.4502,-1.4468,-1.4818,-1.562,-1.5329,0.0,0.0,0.0,0.0,0.0,0.0,0.0,0.0,0.0,0.0,0.0,0.0,0.0,0.0,0.0,0.0,0.0,0.0,0.0,0.0,0.0,0.0,0.0,0.0,0.0,0.0,0.0,0.0,-1.6217,-1.6392,0.0,-1.6046,-1.5985,-1.5991,-1.6063,-1.6527,-1.6887,-1.7134,-1.7728,-1.8055,-1.8232,-1.8603,-1.8869,-1.9008,-1.9425,-1.9657,-1.9587,-1.9785,-1.962,-1.9112,-1.9242,-1.9004,-1.8572,-1.8718,-1.8728,-1.8527,-1.7873,-1.6373,-1.4502,-1.4499,-1.4487,-1.4526,-1.4941,-1.5295,-1.5633,-1.6149,-1.5974,-1.5538,-1.5044,-1.4522,-1.4221,-1.4982,-1.5131,-1.52,-1.5986,-1.6641,-1.7203,-1.7668,-1.7932,-1.8061,-1.7924,-1.7988,-1.7881,-1.7402,-1.7381,-1.7322,-1.6915,-1.6103,-1.5319,-1.4761,-1.4798,-1.4763,-1.4212,-1.4433,-1.4943,-1.5799,-1.5652,-1.5706,-1.6345,-1.611,-1.586,-1.586,-1.5978,-1.5905,-1.5679,-1.5879,-1.6061,-1.6187,-1.63,-1.6485,-1.6786,-1.689,-1.6961,0.0,0.0,0.0,0.0,0.0,0.0,0.0,0.0,0.0,0.0,0.0,0.0,0.0,0.0,0.0,0.0,0.0,0.0,0.0,0.0,0.0,0.0,0.0,0.0,0.0,0.0,-1.6559,-1.7923,-1.8144,-1.8162,-1.8025,-1.7966,-1.7861,-1.7709,-1.8163,-1.8464,-1.8494,-1.912,-1.9568,-1.9784,-2.0041,-2.0299,-2.0509,-2.0629,-2.0688,-2.0748,-2.0949,-2.0827,-2.0476,-2.0796,-2.0729,-2.0356,-2.0848,-2.1057,-2.0986,-2.1054,-1.988,-1.7832,-1.6707,-1.632,-1.6363,-1.6634,-1.7,-1.7395,-1.7904,-1.7777,-1.7315,-1.7094,-1.6482,-1.5961,-1.7071,-1.7003,-1.6763,-1.7734,-1.8448,-1.8955,-1.9486,-1.9829,-1.9929,-1.9502,-1.9317,-1.9104,-1.848,-1.8466,-1.8598,-1.8803,-1.7751,-1.6553,-1.5678,-1.5812,-1.582,-1.5133,-1.5222,-1.5694,-1.6603,-1.6417,-1.6443,-1.7083,-1.7046,-1.6987,-1.6987,-1.7021,-1.7066,-1.7029,-1.6977,-1.7114,-1.7492,-1.7302,-1.7357,-1.7639,-1.8113,-1.8409,-1.8484,0.0,0.0,0.0,0.0,0.0,0.0,0.0,0.0,0.0,0.0,0.0,0.0,0.0,0.0,0.0,0.0,0.0,0.0,0.0,0.0,0.0,0.0,0.0,-1.7192,-1.7876,-1.8597,-1.9252,-1.9701,-1.9821,-1.9568,-1.9924,-2.0042,-1.9708,-2.0216,-2.0402,-2.0153,-2.1025,-2.1464,-2.1439,-2.1958,-2.2285,-2.2199,-2.2271,-2.2357,-2.2469,-2.2675,-2.285,-2.2979,-2.2956,-2.3011,-2.3144,-2.3658,-2.3753,-2.3564,-2.3838,-2.367,-2.2933,-2.0145,-1.9191,-1.9315,-1.9338,-1.9621,-2.0065,-2.0193,-2.0147,-2.0112,-2.0586,-1.9877,-1.9024,-2.006,-1.9454,-1.8512,-1.9371,-2.0182,-2.0939,-2.1606,-2.2348,-2.2724,-2.1966,-2.1259,-2.0636,-2.0181,-1.9771,-1.9853,-2.1121,-1.9927,-1.8359,-1.6977,-1.698,-1.6877,-1.5932,-1.6094,0.0,-1.6158,-1.6578,-1.6862,-1.6707,-1.7267,-1.7637,-1.765,-1.758,-1.7651,-1.7857,-1.717,-1.7261,-1.8398,-1.7503,-1.738,-1.8207,-1.8994,-1.9873,-2.0843,0.0,0.0,0.0,0.0,0.0,0.0,0.0,0.0,0.0,0.0,0.0,0.0,0.0,0.0,0.0,0.0,0.0,0.0,0.0,0.0,0.0,0.0,-2.0122,-1.9632,-2.0082,-2.0851,-2.1889,-2.2359,-2.2579,-2.2376,-2.2242,-2.2114,-2.2127,-2.285,-2.3315,-2.3341,-2.3907,-2.4238,-2.4225,-2.4329,-2.441,-2.441,-2.4611,-2.4657,-2.4719,-2.4659,-2.4722,-2.4886,-2.4836,-2.5025,-2.5271,-2.5376,-2.5197,-2.4752,-2.5449,-2.5296,-2.4432,-2.2287,-2.1424,-2.1433,-2.1725,-2.2274,-2.2885,-2.301,-2.307,-2.3039,-2.3039,-2.2565,-2.2069,-2.2431,-2.2166,-2.1741,-2.2073,-2.2442,-2.2777,-2.2917,-2.3301,-2.3529,-2.3071,-2.279,-2.257,-2.2247,-2.2022,-2.202,-2.2405,-2.2528,-2.1903,-1.9777,-1.9144,-1.8792,-1.8457,-1.8365,0.0,-1.967,-1.9489,-1.9572,-2.0413,-2.0735,-2.0847,-2.068,-2.1144,-2.1362,-2.1129,-2.0863,-2.0872,-2.1212,-2.0884,-2.0895,-2.1281,-2.1075,-2.1245,0.0,0.0,0.0,0.0,0.0,0.0,0.0,0.0,0.0,0.0,0.0,0.0,0.0,0.0,0.0,0.0,0.0,0.0,0.0,0.0,0.0,0.0,-2.1704,-2.2986,-2.3579,-2.347,-2.3851,-2.5345,-2.5509,-2.5526,-2.5675,-2.5231,-2.4943,-2.486,-2.5333,-2.5554,-2.545,-2.5761,-2.5896,-2.5661,-2.5812,-2.577,-2.5661,-2.5894,-2.6091,-2.6166,-2.6219,-2.6275,-2.6337,-2.6498,-2.664,0.0,-2.7141,-2.7067,-2.6726,-2.7345,-2.7207,0.0,0.0,0.0,0.0,0.0,-2.3809,-2.4191,-2.4258,-2.4351,-2.4403,-2.4429,-2.4086,-2.3687,-2.405,-2.3717,-2.3305,-2.3472,-2.387,-2.4267,-2.4295,-2.4799,-2.5075,-2.4449,-2.4191,-2.3986,-2.3622,-2.3354,-2.3349,-2.3903,0.0,0.0,-2.2756,-2.1517,-2.0598,-2.0133,-1.9792,-1.9938,-2.0946,-2.0837,-2.1045,-2.1946,-2.2347,-2.2532,-2.2398,-2.2781,0.0,0.0,0.0,-2.2493,-2.245,-2.2487,0.0,0.0,0.0,-2.2687,-2.3489,0.0,0.0,0.0,-2.2491,-2.2159,0.0,0.0,0.0,0.0,0.0,0.0,0.0,0.0,0.0,0.0,0.0,0.0,0.0,0.0,0.0,0.0,-2.4263,-2.6008,-2.8343,-2.7732,-2.7595,-2.8855,-2.8554,-2.8351,-2.8843,-2.8411,-2.7952,-2.765,-2.772,-2.76,-2.7226,0.0,0.0,0.0,0.0,-2.712,-2.6736,-2.7072,-2.7248,-2.7281,-2.7687,-2.7858,-2.7913,-2.8166,-2.8284,-2.8211,-2.9031,-2.9237,-2.9075,-2.9392,-2.933,-2.8791,-2.6634,-2.5788,-2.5747,-2.5256,-2.5022,-2.4948,-2.5065,0.0,0.0,-2.5605,-2.5258,-2.4908,-2.5577,-2.5109,-2.4382,-2.4552,-2.5164,-2.5772,-2.591,-2.6595,-2.7083,-2.6173,-2.5734,-2.54,-2.4984,-2.4491,-2.4563,-2.5785,-2.5781,-2.5647,-2.5755,-2.4104,-2.2491,-2.1622,-2.1054,-2.0868,-2.1334,-2.1631,-2.1925,-2.2348,0.0,0.0,-2.3348,-2.3354,-2.3565,-2.4081,-2.3598,-2.3247,-2.3117,-2.3399,-2.3648,-2.3835,-2.3849,-2.4456,-2.5715,-2.5681,-2.628,-2.7461,-2.4763,-2.4017,0.0,0.0,0.0,0.0,0.0,0.0,0.0,0.0,0.0,0.0,0.0,0.0,0.0,0.0,0.0,-2.6196,-2.8508,-3.0619,-3.2356,-3.2967,-3.2392,-3.0088,-2.995,-3.0048,-2.9924,-2.9887,-2.9902,-2.9819,-3.0226,-3.0588,-3.0929,-3.1051,0.0,-3.1567,-3.1627,-3.115,-3.0072,-3.0849,-3.0807,-2.9791,0.0,0.0,-3.0777,-3.0822,-3.0995,-3.1072,-3.1384,-3.1125,-3.0643,-3.1465,-3.1475,-3.0767,-2.7921,-2.703,-2.7426,-2.7733,-2.7972,-2.833,-2.9184,-2.903,-2.858,-2.9191,-2.8867,-2.8357,-2.9019,-2.8981,0.0,-2.8384,-2.8403,-2.8446,-2.817,-2.8342,-2.8451,-2.8184,-2.8504,-2.8793,-2.8556,-2.8419,-2.8403,-2.8679,-2.8338,-2.8031,-2.8062,-2.6688,-2.5382,-2.4709,-2.4519,-2.4467,-2.4451,-2.4175,-2.403,-2.4092,-2.4738,-2.5051,-2.4962,-2.5289,-2.5504,-2.5497,-2.6073,-2.6369,-2.6241,-2.7098,-2.7584,-2.7647,-2.7685,-2.7891,-2.8283,-2.8372,-2.863,-2.8955,-2.7257,-2.6919,0.0,0.0,0.0,0.0,0.0,0.0,0.0,0.0,0.0,0.0,0.0,-2.3178,0.0,0.0,-2.6767,-2.9598,-3.1649,-3.3447,-3.5161,-3.6097,-3.5744,-3.3203,-3.2718,-3.2571,-3.2461,-3.2241,-3.213,-3.2201,-3.2492,-3.2828,-3.3138,-3.3268,-3.3208,-3.3098,-3.3427,-3.3122,-3.2142,-3.2924,-3.3049,-3.2437,-3.2775,-3.2768,-3.2505,-3.2577,-3.2451,-3.213,-3.2336,-3.2151,-3.1726,-3.2189,-3.2237,-3.1821,-3.0042,-2.9381,-2.94,-2.962,-2.9871,-3.0066,-3.0635,-3.0574,-3.0258,-3.0468,-3.0359,-3.0095,-2.9847,-2.9834,-2.9816,-2.9154,-2.9223,-2.9508,-2.9422,-2.9739,-3.0046,-2.9959,-3.0306,-3.0558,-3.0396,-3.0282,-3.0172,-2.994,-2.9816,-2.9587,-2.9002,-2.8732,-2.818,-2.691,-2.6346,-2.6197,-2.6477,-2.5982,-2.5687,-2.5915,-2.5933,-2.5905,-2.5848,-2.621,-2.6454,-2.6488,-2.6945,-2.7165,-2.7114,-2.8049,-2.8562,-2.8562,-2.9025,-2.9334,-2.9386,-2.9471,-2.9745,-3.0161,-2.9489,-2.931,0.0,0.0,0.0,0.0,0.0,0.0,0.0,0.0,-2.3193,-2.3804,-2.4729,-2.5624,-2.6299,-2.7608,-2.9635,-3.277,-3.4426,-3.5896,-3.7411,-3.8071,-3.7928,-3.658,-3.5806,-3.5276,-3.5094,-3.4722,-3.457,-3.4484,-3.4627,-3.4705,-3.4747,-3.4864,-3.4726,-3.4197,-3.4691,-3.4618,-3.3852,-3.4503,-3.4744,-3.4472,-3.4721,-3.454,-3.3939,-3.3982,-3.3662,-3.3045,-3.3118,-3.3002,-3.2711,-3.2819,-3.2873,-3.281,-3.2514,-3.218,-3.1787,-3.1344,-3.1291,-3.1334,-3.1502,-3.1523,-3.1462,-3.1357,-3.136,-3.1302,-3.0501,-3.0513,-3.0591,-2.994,-3.0195,-3.0727,-3.0883,-3.1347,-3.1797,-3.1781,-3.1962,-3.2122,-3.2028,-3.1901,-3.1724,-3.1359,-3.1401,-3.1186,-3.0259,-3.0757,-3.0573,-2.8592,-2.7796,-2.7563,-2.8125,-2.7624,-2.7383,-2.776,-2.7259,-2.6874,-2.6723,-2.6978,-2.7154,-2.7158,-2.748,-2.7667,-2.7667,-2.8711,-2.9281,-2.9281,-3.0039,-3.0404,-3.0404,-3.0437,-3.0786,-3.1417,-3.1764,-3.1564,-1.7981,-1.6939,-1.6962,-1.8804,-1.9797,-2.1243,0.0,0.0,-2.8477,-2.8676,-2.9868,-3.0814,-3.08,-3.2583,-3.4376,-3.5526,-3.7626,-3.9219,-3.9444,-3.9067,-3.8734,-3.8636,-3.808,-3.7343,-3.6384,-3.6885,-3.702,-3.6352,-3.6336,-3.6325,-3.6362,-3.6524,-3.6804,-3.7208,-3.7367,-3.6949,-3.5723,-3.6428,-3.6174,-3.5027,-3.5751,-3.6039,-3.5927,-3.5425,-3.5259,-3.5315,-3.466,-3.4202,-3.3933,-3.4284,-3.4431,-3.4513,-3.5011,-3.52,-3.4913,-3.3032,-3.2574,-3.3029,-3.354,-3.337,-3.2967,-3.3514,-3.3223,-3.2755,-3.3501,-3.3762,-3.3777,-3.3751,-3.3845,-3.3956,-3.3878,-3.3848,-3.3874,-3.3947,-3.4369,-3.4754,-3.4754,-3.4754,-3.4719,-3.4651,-3.4236,-3.3869,-3.3734,-3.3234,-3.2107,-2.9995,-2.9791,-2.9915,-3.0006,-2.9748,-2.9562,-2.9612,-2.9542,-2.9129,-2.8241,-2.8349,-2.815,-2.7321,-2.8837,-2.9779,-2.9779,-3.1466,-3.241,-3.241,-3.2563,-3.2648,-3.2648,-3.2693,-3.2791,-3.2898,-3.4496,-3.4067,-2.0918,-2.0765,0.0,0.0,-2.5089,-2.6881,-3.0458,-3.1929,-3.264,-3.2943,-3.4406,-3.5575,-3.5267,-3.5828,-3.694,0.0,-3.9146,-3.947,-4.0115,-3.9599,-3.8997,-3.8625,-3.8216,-3.7865,-3.7573,-3.7984,-3.8167,-3.8031,-3.8321,-3.8413,-3.8302,-3.8517,-3.8739,-3.8983,-3.9179,-3.898,-3.8438,-3.8733,-3.8619,-3.8063,-3.7902,-3.7735,-3.7398,-3.6659,-3.6165,-3.5893,-3.5633,-3.5408,-3.5273,-3.5514,-3.5576,-3.5559,-3.5908,-3.5976,-3.5814,-3.4875,-3.4697,-3.4931,-3.5136,-3.5059,-3.4886,-3.5172,-3.5009,-3.4723,-3.48,-3.481,-3.4745,-3.4438,-3.4599,-3.4891,-3.4782,-3.5122,-3.5469,-3.5365,-3.563,-3.5879,-3.5919,-3.5902,-3.5821,-3.5601,-3.5346,-3.4931,-3.4199,-3.3794,-3.3125,-3.1795,-3.1446,-3.1375,-3.1498,-3.1007,-3.0489,-3.005,-3.0061,-2.9933,-2.9642,-2.9781,-2.9959,-3.0143,-3.0456,-3.1092,-3.2148,-3.2958,-3.3655,-3.43,-3.4775,-3.506,-3.5099,-3.5127,-3.5127,-3.5145,-3.5919,-3.5685,-2.2703,0.0,0.0,-2.7668,-2.9499,-3.1414,-3.5044,-3.5875,-3.6079,-3.6798,-3.794,-3.8711,-3.8393,-3.8168,-3.8579,-4.0382,-4.0112,-3.9875,-4.0387,-4.0055,-3.9281,-3.8165,-3.7672,-3.7482,-3.7649,-3.8492,-3.9049,-3.9169,-3.9739,-3.9952,-3.9648,-3.9868,-4.0067,-4.0067,-4.0229,-4.0326,-4.0326,-4.0326,-4.0326,-4.0326,-3.9778,-3.9294,-3.8883,-3.8008,-3.7232,-3.653,-3.6405,-3.6236,-3.6111,-3.6295,-3.6353,-3.6295,-3.6556,-3.6636,-3.6539,-3.6556,-3.6377,-3.6111,-3.6044,-3.6086,-3.6094,-3.6094,-3.6094,-3.6049,-3.5677,-3.5561,-3.5571,-3.551,-3.5668,-3.5867,-3.6208,-3.6562,-3.6825,-3.6701,-3.6781,-3.69,-3.6882,-3.7122,-3.7167,-3.6573,-3.6737,-3.6631,-3.5708,-3.5217,-3.4866,-3.4606,-3.371,-3.2941,-3.2669,-3.2172,-3.1667,-3.1115,-3.1374,-3.1541,-3.147,-3.1809,-3.2274,-3.2748,-3.2446,-3.2837,-3.4126,-3.4402,-3.4895,-3.5662,-3.6274,-3.657,-3.6623,-3.6623,-3.6623,-3.6623,-3.6924,-3.6879,0.0,0.0,-2.3776,-2.8934,-3.0942,-3.2822,-3.7272,-3.8355,-3.8825,-4.0312,-4.0123,-3.9644,-3.9491,-3.9506,-3.9491,-3.9363,-4.0617,-4.1325,-4.0528,-4.0419,-3.9683,-3.7581,-3.6638,-3.6122,0.0,-3.8467,-3.985,-3.9404,-4.0302,-4.0634,-4.0033,-4.026,-4.0388,-4.0388,-4.0599,-4.0681,-4.0681,-4.0681,-4.0681,-4.0681,-4.0664,-4.0629,-4.0607,-3.9616,-3.8579,-3.762,-3.7167,-3.6636,-3.6153,-3.6551,-3.6706,-3.6746,-3.7413,-3.7667,-3.765,-3.7862,-3.7175,-3.6094,-3.6111,-3.6111,-3.6094,-3.6094,-3.6094,-3.6153,-3.6377,-3.6458,-3.6736,-3.8155,-3.7984,-3.7629,-3.894,-3.8614,-3.7984,-3.8106,-3.814,-3.8158,-3.8158,-3.9021,-3.9443,-3.835,-3.9081,-3.981,-3.9643,-3.8479,-3.7924,-3.8867,-3.6956,-3.4855,-3.337,-3.3379,-3.3522,-3.3504,-3.4485,-3.4792,-3.3873,-3.481,-3.5104,-3.4288,-3.4958,-3.5386,-3.5442,-3.618,-3.6626,-3.6645,-3.6682,-3.6682,-3.6682,-3.6682,-3.6682,-3.6726,-3.7759,-3.7697,0.0,0.0,-2.9217,-3.3682,-3.5834,-3.7757,-4.1427,-4.1445,-4.0767,-4.0956,-3.9349,-3.7798,-3.7507,-3.6307,-3.5957,-3.7874,-3.8662,-3.9213,-3.9683,-3.9602,-3.9194,-3.8338,-3.7405,0.0,0.0,0.0,0.0,-4.0042,-4.0851,-4.1797,-4.2929,-4.2996,-4.3368,-4.417,-4.4378,-4.4472,-4.4472,-4.4472,-4.4472,-4.4472,-4.3925,-4.3124,-4.2085,-4.1716,-4.1055,-4.02,-4.0014,-3.9834,-3.9714,-3.9918,-3.9969,-3.9918,-4.0233,-4.0283,-4.0289,-4.0896,-4.0482,-3.9474,-3.8491,-3.7879,-3.7721,-3.8959,-3.8977,-3.8635,-3.9488,-3.9719,-3.9777,-4.0273,-4.0196,-4.0101,-4.0524,-4.0396,-4.0148,-4.0226,-4.0212,-4.0212,-4.0302,-4.0628,-4.0769,-4.0449,-4.0737,-4.0826,-4.0335,-3.9872,-3.9508,-3.9354,-3.7629,-3.5957,-3.4795,-3.5254,-3.5658,-3.5658,-3.5996,-3.6085,-3.5788,-3.6105,-3.6435,-3.6663,-3.6447,-3.6833,-3.8035,-3.7854,-3.8016,-3.87,-3.87,-3.8724,-3.8771,-3.8771,-3.8771,-3.8771,-3.9123,-3.9081,-2.7939,-3.0649,-3.3591,-3.7872,-3.99,-4.1466,-4.3714,-4.2967,-4.153,-4.0667,-3.8611,-3.6667,-3.5567,-3.4024,-3.3636,-3.581,-3.6429,-3.7068,-3.8354,-3.8939,-3.8989,-3.8308,-3.7935,-3.8007,0.0,0.0,0.0,-4.0195,-4.1027,-4.2326,-4.4195,-4.4239,-4.4773,-4.6089,-4.6279,-4.6345,-4.6345,-4.6378,-4.6411,-4.6411,-4.556,-4.4662,-4.3681,-4.3032,-4.2318,-4.1605,-4.1537,-4.1351,-4.1185,-4.1493,-4.1566,-4.1518,-4.1556,-4.1556,-4.1516,-4.202,-4.1871,-4.1322,-4.0679,-3.9947,-3.952,-4.073,-4.0762,-4.0386,-4.1151,-4.1348,-4.136,-4.1656,-4.1527,-4.136,-4.1638,-4.1477,-4.1256,-4.1286,-4.1256,-4.1256,-4.1359,-4.1683,-4.1872,-4.1486,-4.1808,-4.195,-4.1502,-4.1518,-4.1241,-4.0184,-3.9289,-3.8184,-3.6528,-3.6279,-3.6347,-3.6689,-3.7044,-3.7262,-3.7262,-3.7617,-3.8034,-3.8552,-3.8085,-3.8297,-3.9489,-3.9043,-3.9096,-3.9758,-3.9758,-3.9781,-3.9804,-3.9804,-3.9781,-3.9758,-3.9758,-3.9735,-3.1862,-3.4321,-3.6834,-4.12,-4.2943,-4.3706,-4.4112,-4.2922,-4.122,-3.9488,-3.7783,-3.587,0.0,0.0,-3.2405,-3.3317,-3.4188,-3.532,-3.6915,-3.8616,-3.9165,0.0,0.0,0.0,0.0,0.0,0.0,-4.0168,0.0,-4.2425,-4.4053,-4.4188,-4.4879,-4.6326,-4.6446,-4.6479,-4.6461,-4.6559,-4.6573,-4.6555,-4.5695,-4.5319,-4.5345,-4.3707,-4.2594,-4.1942,-4.1885,-4.1417,-4.0776,-4.1446,-4.1733,-4.1733,-4.1702,-4.1672,-4.1653,-4.1656,-4.1649,-4.1765,-4.2674,-4.2261,-4.1336,-4.1538,-4.1508,-4.1391,-4.1428,-4.1514,-4.1699,-4.2464,-4.2149,-4.1792,-4.2538,-4.2181,-4.1588,-4.1551,-4.1551,-4.1533,-4.1477,-4.231,-4.2762,-4.1686,-4.2472,-4.325,-4.3175,-4.3484,-4.3207,-4.1657,-4.1959,-4.1335,-3.8452,-3.6684,-3.5982,-3.6789,-3.7778,-3.8371,-3.8334,-3.9222,-3.9785,-3.9747,-3.9717,-3.9735,-3.9804,-3.9804,-3.9826,-3.9889,-3.9889,-3.9867,-3.9804,-3.9804,-3.9758,-3.9689,-3.9769,-3.9769,-3.4192,-3.7809,-4.1319,-4.3039,-4.4122,-4.444,-4.324,-4.1743,-3.9561,-3.5893,-3.3013,-3.0335,0.0,0.0,0.0,-3.1501,-3.3863,0.0,-3.8816,-4.0229,0.0,-4.0501,0.0,-4.1434,-4.1556,-4.1825,0.0,0.0,-4.3939,-4.5416,-4.7145,-4.7121,-4.7578,-4.8758,-4.8807,-4.8867,-4.8897,-4.8965,-4.9023,-4.9004,-4.8126,-4.7382,-4.6751,-4.5623,-4.4701,-4.3962,-4.3893,-4.3762,-4.3691,-4.4584,-4.4942,-4.4998,-4.5574,-4.5469,-4.51,-4.6186,-4.5867,-4.5122,-4.6591,-4.4579,-4.1716,-4.3845,-4.361,-4.2656,-4.3493,-4.4205,-4.4777,-4.5002,-4.535,-4.5745,-4.5951,-4.5857,-4.5538,-4.4937,-4.4805,-4.4636,-4.3951,-4.4044,-4.4218,-4.4018,-4.4247,-4.4657,-4.5217,-4.5464,-4.568,-4.5835,-4.4636,-4.2656,-3.9717,-3.9515,-3.9472,-3.9062,-3.9305,-3.9236,-3.8568,-3.9309,-3.9517,-3.8867,-3.9373,-3.9712,-3.9712,-3.9712,-3.9735,-3.9735,-3.9735,-3.9735,-3.9712,-3.9712,-3.9712,-3.9708,-4.0533,-4.0903,-3.7834,-4.094,-4.3756,-4.4422,-4.4672,-4.4173,-4.1953,-3.9624,-3.6818,-3.2962,-2.987,0.0,0.0,0.0,0.0,0.0,0.0,0.0,-3.8629,-4.0233,-4.1323,0.0,-4.2707,0.0,-4.4737,-4.5087,-4.5769,0.0,-4.538,-4.5375,-4.7875,-4.7145,-4.757,-4.9607,-4.9276,-4.9315,-4.9807,-4.9871,-4.9933,-5.0038,-4.9124,-4.8434,-4.7966,-4.7049,-4.6222,-4.5551,0.0,-4.5846,-4.5745,-4.6557,-4.6896,-4.6934,-4.7343,-4.7272,-4.701,-4.7783,-4.7561,-4.7044,-4.8405,-4.6833,-4.448,-4.5866,-4.5594,-4.4747,-4.4984,-4.5416,-4.5792,-4.5792,-4.6168,-4.6629,-4.7024,-4.72,-4.7068,-4.6247,-4.6434,-4.6618,-4.5715,-4.5833,-4.6012,-4.5712,-4.5657,-4.5791,-4.6247,-4.6409,-4.6623,-4.7076,-4.609,-4.4422,-4.2008,-4.1492,-4.1188,-4.0692,-4.0654,-4.033,-3.9471,-3.9776,-3.9813,-3.9317,-3.9697,-3.9922,-3.992,-4.0281,-4.049,-4.0485,-4.0867,-4.1057,-4.1013,-4.1013,-4.1013,-4.0991,-4.1594,-4.1865,-4.1629,-4.3485,-4.4871,-4.5401,-4.4793,-4.3371,-4.0624,-3.7283,-3.3827,-3.0593,0.0,-2.5636,-2.4362,-2.5039,-2.6555,-2.8974,0.0,-3.4294,-3.7565,-3.9517,-4.1265,-4.2983,-4.3922,-4.5361,-4.7761,-4.847,-4.9522,-5.1305,-4.6443,-4.4744,-4.7862,-4.6404,-4.6845,-4.9749,-4.9107,-4.9174,-5.0022,-4.999,-5.0044,-5.0217,-4.9267,-4.8867,-4.8895,-4.801,-4.7319,-4.6779,0.0,0.0,-4.7046,-4.776,-4.8046,-4.8046,-4.8121,-4.8081,-4.7986,-4.806,-4.8062,-4.8143,-4.9067,-4.8894,-4.8164,-4.7637,-4.7294,-4.6977,-4.6232,-4.6081,-4.6166,-4.6175,-4.6278,-4.6523,-4.7269,-4.7637,-4.7598,-4.6706,-4.7315,-4.7834,-4.6972,-4.7393,-4.7698,-4.6949,-4.6795,-4.6833,-4.6929,-4.702,-4.7114,-4.7216,-4.7157,-4.6538,-4.4908,-4.3233,-4.2152,-4.2033,-4.2048,-4.1686,-4.0812,-4.0704,-4.0556,-4.031,-4.0466,-4.0454,-4.021,-4.1052,-4.1455,-4.1323,-4.2068,-4.2431,-4.2373,-4.2373,-4.241,-4.2465,-4.26,-4.2677,-4.2802,-4.4324,-4.5606,-4.5713,-4.4587,-4.2769,-4.0185,-3.6443,0.0,0.0,0.0,-2.4574,-2.4315,-2.6159,0.0,-2.9921,0.0,0.0,0.0,0.0,-4.1967,0.0,0.0,0.0,0.0,0.0,0.0,0.0,0.0,-4.8802,-5.0703,-4.9777,-4.9784,-5.1122,-5.1075,-5.1123,-5.13,-5.0639,-5.0339,-5.0361,-4.9475,-4.9051,-4.9032,-4.8108,-4.763,-4.7518,-4.7649,0.0,-4.7639,-4.852,-4.8905,-4.8963,-4.9679,-4.9586,-4.9125,-4.976,-4.9643,-4.9234,-5.0063,-5.0218,-4.9932,-4.9183,-4.8373,-4.7635,-4.7547,-4.8027,-4.86,-4.8663,-4.9202,-4.9759,-4.9873,-4.9971,-4.9797,-4.8818,-4.8817,-4.8794,-4.7873,-4.7868,-4.8031,-4.7877,-4.7838,-4.8053,-4.8728,-4.8929,-4.9231,-4.9917,-4.963,-4.8987,-4.7946,-4.6036,-4.4491,-4.3835,-4.3824,-4.3489,-4.2611,-4.2549,-4.1882,-4.0396,-4.1643,-4.1764,-4.0262,-4.1082,-4.1217,-4.0436,-4.0571,-4.0647,-4.063,-4.063,-4.1031,-4.1792,-4.264,-4.3011,-4.3121,-4.4557,-4.58,-4.58,-4.3879,-4.1098,-3.7686,0.0,0.0,0.0,0.0,-2.2427,-2.2906,0.0,0.0,0.0,0.0,0.0,0.0,0.0,0.0,0.0,0.0,0.0,0.0,0.0,0.0,0.0,0.0,-5.0471,-5.1568,-5.1147,-5.1085,-5.1495,-5.202,-5.2273,-5.2273,-5.1475,-5.1118,-5.122,-5.0335,-4.9951,-4.9971,-4.9529,-4.9336,-4.9372,-4.9372,0.0,-4.8275,-4.9602,-4.9637,-4.8967,-5.0252,-5.0558,-5.0283,-5.0666,-5.0584,-5.0342,-5.0771,-5.0887,-5.0815,-5.0461,-4.9792,-4.9087,-4.8643,-4.8836,-4.9144,-4.92,-4.9507,-4.9911,-5.0336,-5.0598,-5.0519,-4.9547,-4.95,-4.9673,-4.9685,-4.973,-4.9625,-4.9178,-4.9081,-4.9217,-4.9594,-4.9726,-4.9881,-5.0273,-5.0118,-4.9635,-4.8769,-4.7714,-4.6408,-4.4705,-4.455,-4.4201,-4.3324,-4.3259,-4.2892,-4.2027,-4.2756,-4.2808,-4.1944,-4.275,-4.2762,-4.1827,-4.2705,-4.271,-4.1821,-4.271,-4.2917,-4.2512,-4.3432,-4.3647,-4.3311,-4.4705,-4.5761,-4.5587,-4.3008,-3.9464,-3.541,-3.1009,0.0,0.0,-2.1792,-2.0816,-2.2119,0.0,0.0,0.0,0.0,0.0,0.0,0.0,0.0,0.0,0.0,0.0,0.0,0.0,0.0,0.0,0.0,0.0,-5.1734,-5.1713,-5.1691,-5.1628,-5.2343,-5.273,-5.2754,-5.1757,-5.1357,-5.1522,-5.0673,-5.0281,-5.0326,-5.0519,-5.0608,-5.0666,-5.086,0.0,0.0,-5.0206,-4.9828,-4.8474,-4.9984,-5.0592,-5.0623,-5.0809,-5.075,-5.0664,-5.1074,-5.1113,-5.0977,-5.1215,-5.0965,-5.0443,-4.9763,-4.957,-4.9553,-4.957,-4.9567,-4.9724,-5.0422,-5.0792,-5.0797,-5.0054,-5.01,-5.0458,-5.1156,-5.13,-5.1047,-5.0182,-5.0007,-4.9948,-4.9746,-4.9726,-4.9726,-4.9729,-4.9729,-4.9409,-4.8525,-4.8516,-4.7767,-4.5561,-4.5357,-4.5075,-4.4394,-4.4161,-4.3977,-4.3782,-4.3966,-4.3898,-4.353,-4.4307,-4.4296,-4.3366,-4.4707,-4.4703,-4.3344,-4.4723,-4.4773,-4.3645,-4.4308,-4.4184,-4.3847,-4.5128,-4.5621,-4.4896,-4.215,-3.8731,-3.5269,0.0,0.0,-2.4666,-2.2262,-2.124,-2.3711,0.0,0.0,0.0,0.0,-3.1447,0.0,0.0,0.0,0.0,0.0,0.0,0.0,0.0,0.0,0.0,0.0,0.0,-5.1914,-5.1991,-5.2064,-5.2049,-5.2144,-5.2198,-5.2256,-5.0689,-4.9916,-5.0001,-4.9186,-4.8798,-4.8817,-4.9555,-4.9897,-4.9955,-5.0744,0.0,0.0,-4.9554,-4.8923,-4.7523,-4.8525,-4.8925,-4.9031,-4.9815,-4.9629,-4.9227,-5.0766,-5.0766,-5.024,-5.1047,-5.1219,-5.1122,-5.1093,-5.1055,-5.1025,-5.1074,-5.1111,-5.1131,-5.1209,-5.1237,-5.1245,-5.1159,-5.1156,-5.1195,-5.1276,-5.1304,-5.1039,-5.0159,-4.9993,-4.9748,-4.8972,-4.8827,-4.8827,-4.8827,-4.8827,-4.8506,-4.7622,-4.8156,-4.8204,-4.7181,-4.7125,-4.7126,-4.7038,-4.6328,-4.552,-4.4734,-4.5479,-4.5207,-4.3568,-4.439,-4.4476,-4.3586,-4.3665,-4.3627,-4.3471,-4.3646,-4.4054,-4.4667,-4.4744,-4.4355,-4.1675,-4.4052,-4.5612,-4.4813,-4.1622,-3.7713,-3.3821,0.0,0.0,-2.2614,-2.1228,-2.0828,-2.1863,-2.2471,0.0,0.0,0.0,0.0,0.0,0.0,0.0,0.0,0.0,0.0,0.0,0.0,0.0,0.0,0.0,0.0,-5.2166,-5.2182,-5.245,-5.2988,-5.3007,-5.2782,-5.2324,-5.1664,-5.1076,-5.0588,-5.0258,-5.0126,-5.0178,-5.05,-5.0665,-5.0724,-5.1067,0.0,0.0,-4.9724,-4.9103,-4.6881,-4.9313,-5.0296,-5.0362,-5.0703,-5.0649,-5.0453,-5.1132,-5.1132,-5.1,-5.1859,-5.1772,-5.1327,-5.1296,-5.1284,-5.1276,-5.1292,-5.13,-5.13,-5.13,-5.1292,-5.1429,-5.1967,-5.209,-5.2227,-5.2747,-5.2854,-5.2757,-5.2416,-5.2342,-5.2245,-5.1889,-5.144,-5.1104,-5.1104,-5.0655,-5.0206,-4.985,-4.9588,-4.9317,-4.8958,-4.8448,-4.8105,-4.8105,-4.7319,-4.6902,-4.7087,-4.6484,-4.6046,-4.5861,-4.5713,-4.5207,-4.4344,-4.4811,-4.4549,-4.3501,-4.4559,-4.4705,-4.4035,-4.4558,-4.4373,-3.9046,-4.2147,-4.4471,-4.3692,-4.0254,-3.6048,0.0,0.0,0.0,-2.112,-2.0533,-2.0511,-2.0497,-2.1018,-2.2364,0.0,0.0,-2.7389,0.0,0.0,0.0,0.0,0.0,0.0,0.0,0.0,0.0,0.0,0.0,0.0,0.0,-5.21,-5.2239,-5.2806,-5.2341,-5.2058,-5.2049,-5.1544,-5.11,-5.0773,-5.0539,-5.0166,-4.9744,-5.0504,-5.0596,-5.0224,0.0,0.0,0.0,-4.9814,-4.9197,-4.6851,-4.9522,-5.0588,-5.0656,-5.091,-5.0852,-5.0695,-5.1223,-5.1223,-5.1164,-5.2023,-5.1906,-5.1394,-5.1347,-5.133,-5.133,-5.133,-5.1525,-5.1759,-5.2018,-5.2064,-5.2227,-5.2835,-5.2971,-5.3151,-5.3779,-5.39,-5.3822,-5.3564,-5.3527,-5.3429,-5.3175,-5.2666,-5.2197,-5.1943,-5.1374,-5.0886,-5.0632,-5.0254,-5.0009,-5.0009,-4.9644,-4.9196,-4.8672,-4.8078,-4.7988,-4.8588,-4.7545,-4.7163,-4.7801,-4.7223,-4.6495,-4.5624,-4.6208,-4.5776,-4.4303,-4.5535,-4.5632,-4.4709,-4.5285,-4.5397,-3.6345,-3.9491,-4.1853,-4.1042,-3.7607,-3.3565,0.0,0.0,0.0,-2.0925,-2.0605,-2.0584,-2.0519,-2.0566,-2.1714,-2.5058,-2.632,0.0,0.0,0.0,0.0,0.0,0.0,0.0,0.0,0.0,0.0,0.0,0.0,0.0,0.0,-5.1648,-5.1148,-5.1037,-4.9342,-4.9336,-5.1189,-4.9498,-4.9095,-5.0008,-4.9189,-4.7918,-4.6348,-4.8867,-4.9101,0.0,0.0,0.0,0.0,-4.9667,-4.9023,-4.7577,-4.8476,-4.8826,-4.892,-4.9799,-4.9564,-4.9076,-5.0793,-5.0832,-5.0267,-5.1125,-5.1418,-5.1398,-5.1398,-5.1398,-5.1398,-5.1398,-5.2023,-5.2863,-5.3665,-5.3861,-5.388,-5.388,-5.388,-5.3898,-5.3893,-5.3896,-5.3644,-5.2772,-5.2599,-5.2331,-5.1486,-5.133,-5.1015,-5.0152,-5.0016,-4.9703,-4.8844,-4.9466,-5.0008,-5.0008,-5.077,-5.0577,-4.886,-4.8699,-4.8688,-4.8708,-4.8733,-4.8775,-4.8794,-4.8782,-4.8354,-4.7493,-4.7471,-4.704,-4.6177,-4.6201,-4.6624,-4.7468,-4.7401,-4.7826,-3.0439,-3.2558,-3.402,-3.3203,-3.1098,-2.8629,-2.6424,0.0,0.0,0.0,0.0,-2.054,-2.0562,-2.0586,-2.1888,-2.5854,-2.6727,0.0,0.0,0.0,0.0,0.0,0.0,0.0,0.0,0.0,0.0,0.0,0.0,0.0,0.0,-5.1411,-5.1496,-5.2012,-5.0914,-5.0332,-5.0387,-5.1058,-5.0933,-5.0018,-5.0953,-5.0191,-4.8046,-5.0,0.0,0.0,0.0,0.0,0.0,-5.0317,-4.9898,-4.8521,-4.9992,-5.058,-5.0615,-5.0889,-5.081,-5.0654,-5.1201,-5.122,-5.1123,-5.2004,-5.1887,-5.1515,-5.2101,-5.2285,-5.2394,-5.2943,-5.3314,-5.3587,-5.3822,-5.3898,-5.4054,-5.4648,-5.4785,-5.4961,-5.5618,-5.5751,-5.5653,-5.5384,-5.5323,-5.5245,-5.4972,-5.4427,-5.3939,-5.3665,-5.3119,-5.263,-5.2357,-5.1992,-5.1774,-5.1774,-5.152,-5.1123,-5.0538,-4.9926,-4.9836,-5.0442,-4.9371,-4.9004,-4.9606,-4.9043,-4.8597,-4.8323,-4.8314,-4.8174,-4.792,-4.7362,-4.724,-4.7506,-4.8047,-4.8434,0.0,-2.7671,-2.9051,-2.8546,-2.688,0.0,0.0,0.0,0.0,0.0,0.0,0.0,-2.0708,-2.1107,-2.2362,-2.5039,-2.6534,0.0,0.0,0.0,0.0,0.0,0.0,0.0,0.0,0.0,0.0,0.0,0.0,0.0,0.0,-5.1873,-5.2304,-5.334,-5.1695,-5.0853,-5.1014,-5.1812,-5.1814,-5.1033,-5.2089,-5.1267,-4.8863,-5.0537,0.0,0.0,0.0,0.0,0.0,-5.0918,-5.0713,-4.9894,-5.0972,-5.1402,-5.1394,-5.1394,-5.1394,-5.1394,-5.1394,-5.1394,-5.1492,-5.2038,-5.1843,-5.155,-5.2448,-5.2705,-5.2949,-5.4101,-5.4433,-5.4492,-5.4824,-5.4922,-5.5058,-5.5597,-5.5734,-5.589,-5.6474,-5.6606,-5.6606,-5.6606,-5.6606,-5.6606,-5.6606,-5.6157,-5.5689,-5.5357,-5.483,-5.4361,-5.4049,-5.3483,-5.314,-5.314,-5.2398,-5.1874,-5.1835,-5.1033,-5.076,-5.1307,-5.0311,-4.996,-5.0507,-5.0018,-4.957,-4.9238,-4.9238,-4.9062,-4.8749,-4.8568,-4.8475,-4.8494,-4.9336,-4.9726,0.0,0.0,0.0,0.0,0.0,0.0,0.0,0.0,0.0,0.0,0.0,0.0,0.0,-2.209,-2.32,-2.3505,-2.6224,0.0,0.0,0.0,0.0,0.0,0.0,0.0,0.0,0.0,0.0,0.0,0.0,0.0,0.0,-5.2804,-5.3317,-5.464,-5.1814,-5.1032,-5.2593,-5.187,-5.1797,-5.2409,-5.254,-5.1195,-4.8658,-5.0479,0.0,0.0,0.0,0.0,0.0,-5.1405,-5.1391,-5.139,-5.1401,-5.1406,-5.1394,-5.1394,-5.1394,-5.1394,-5.1394,-5.1394,-5.1394,-5.1394,-5.1394,-5.157,-5.2507,-5.278,-5.3132,-5.483,-5.5337,-5.5571,-5.6391,-5.6606,-5.6606,-5.6606,-5.6606,-5.6606,-5.6606,-5.6606,-5.6606,-5.6606,-5.6606,-5.6606,-5.6606,-5.6606,-5.6333,-5.5513,-5.5396,-5.5107,-5.4283,-5.4127,-5.4088,-5.4088,-5.3307,-5.278,-5.278,-5.1941,-5.1394,-5.1394,-5.1394,-5.1394,-5.1394,-5.1336,-5.0965,-5.0204,-5.0184,-4.9755,-4.8896,-4.9774,-5.0165,-5.0126,-5.0984,-5.1394,-1.6913,0.0,-1.8085,-1.8085,-1.7637,0.0,0.0,0.0,0.0,0.0,0.0,0.0,0.0,0.0,0.0,0.0,0.0,0.0,0.0,0.0,0.0,0.0,0.0,0.0,0.0,0.0,0.0,0.0,0.0,0.0,0.0,-5.2372,-5.2947,-5.3489,-5.2573,-5.1971,-5.1707,-5.2169,-5.1449,-4.96,-5.1687,-5.0589,-4.6836,-4.9893,0.0,0.0,0.0,0.0,-5.1405,-5.1394,-5.1405,-5.1401,-5.1401,-5.1406,-5.1394,-5.1394,-5.1394,-5.1394,-5.1394,-5.1394,-5.1394,-5.1394,-5.1394,-5.1687,-5.3229,-5.3698,-5.3912,-5.5005,-5.5786,-5.6333,-5.6547,-5.6606,-5.6606,-5.6606,-5.6606,-5.6606,-5.6606,-5.6606,-5.6606,-5.6606,-5.6606,-5.6606,-5.6606,-5.6606,-5.6528,-5.6333,-5.6282,-5.6214,-5.6022,-5.5407,-5.4986,-5.4986,-5.4205,-5.3698,-5.3698,-5.2273,-5.1394,-5.1394,-5.1394,-5.1394,-5.1394,-5.075,-5.0614,-5.1082,-5.1082,-5.0672,-4.9794,-5.0672,-5.075,-5.0126,-5.0984,-5.1394,-1.5397,-1.5691,-1.6183,-1.699,-1.6598,-1.6555,0.0,0.0,0.0,0.0,0.0,0.0,0.0,0.0,0.0,0.0,0.0,0.0,0.0,0.0,0.0,0.0,0.0,0.0,0.0,0.0,0.0,0.0,0.0,0.0,0.0,-5.2342,-5.2702,-5.2323,-5.2683,-5.2596,-5.201,-5.2459,-5.1542,-4.927,-5.1596,-5.0797,-4.7389,-5.0108,-5.0854,0.0,0.0,0.0,-5.1333,-5.0491,-5.0659,-5.1406,-5.1406,-5.141,-5.1394,-5.1394,-5.1394,-5.1394,-5.1394,-5.1394,-5.1468,-5.182,-5.1694,-5.1648,-5.2995,-5.3678,-5.4264,-5.5532,-5.6235,-5.6606,-5.6606,-5.6606,-5.6606,-5.6606,-5.6606,-5.6606,-5.6606,-5.6606,-5.6606,-5.6606,-5.6606,-5.6606,-5.6606,-5.6606,-5.661,-5.6598,-5.6605,-5.6607,-5.6602,-5.6197,-5.5748,-5.5345,-5.4529,-5.3842,-5.3444,-5.2175,-5.1746,-5.2546,-5.2222,-5.1991,-5.201,-5.0773,-5.0321,-5.0789,-5.0809,-5.077,-5.0692,-5.118,-5.116,-5.0711,-5.118,-5.1394,-1.5568,-1.6134,-1.7099,-1.8691,-1.7986,-1.7533,0.0,0.0,0.0,0.0,0.0,0.0,0.0,0.0,0.0,0.0,0.0,0.0,0.0,0.0,0.0,0.0,0.0,0.0,0.0,0.0,0.0,0.0,0.0,0.0,0.0,-5.2318,-5.2377,-5.1372,-5.2294,-5.2693,-5.2441,-5.2474,-5.1586,-4.982,-5.1622,-5.1128,-4.8729,-5.0518,-5.1341,0.0,0.0,0.0,-5.121,-4.9685,-4.9946,-5.1333,-5.1333,-5.143,-5.1552,-5.1552,-5.165,-5.1728,-5.1611,-5.1474,-5.1489,-5.2168,-5.1928,-5.1552,-5.2547,-5.3367,-5.4323,-5.606,-5.6577,-5.6606,-5.6606,-5.6606,-5.6606,-5.6606,-5.6606,-5.6606,-5.6606,-5.6582,-5.6572,-5.6572,-5.6553,-5.6548,-5.6548,-5.667,-5.6758,-5.6758,-5.6754,-5.6712,-5.6591,-5.6458,-5.6033,-5.5182,-5.444,-5.3695,-5.296,-5.2214,-5.2487,-5.4092,-5.3129,-5.2507,-5.2504,-5.1089,-5.0243,-5.0106,-5.0223,-5.0594,-5.1199,-5.1336,-5.1394,-5.1394,-5.1394,-5.1336,-1.6306,-1.6602,-1.6939,-1.795,-1.7994,-1.827,0.0,0.0,0.0,0.0,0.0,0.0,0.0,0.0,0.0,0.0,0.0,0.0,0.0,0.0,0.0,0.0,0.0,0.0,0.0,0.0,0.0,0.0,0.0,0.0,0.0,-5.1564,-5.1476,-5.1063,-5.1346,-5.1413,-5.1253,-5.1499,-5.0694,-4.8918,-5.0618,-5.0412,-4.8591,-5.0301,-5.1058,0.0,0.0,-5.0789,-5.1044,-5.075,-5.0809,-5.1063,-5.1063,-5.156,-5.2261,-5.2261,-5.2719,-5.3244,-5.2563,-5.1842,-5.1239,-5.1366,-5.1327,-5.152,-5.3078,-5.3643,-5.411,-5.5862,-5.6464,-5.6606,-5.6606,-5.6606,-5.6606,-5.6606,-5.6606,-5.6606,-5.6606,-5.6511,-5.643,-5.643,-5.6377,-5.6349,-5.6349,-5.6961,-5.7463,-5.7453,-5.7449,-5.7225,-5.6602,-5.5829,-5.5048,-5.4288,-5.4083,-5.3955,-5.3815,-5.3678,-5.4037,-5.5045,-5.2908,-5.1593,-5.1593,-5.134,-5.0852,-5.011,-5.0828,-5.0906,-5.0301,-5.1043,-5.1394,-5.1394,-5.1394,-5.1004,-1.588,-1.6345,-1.7121,-1.8912,-1.8672,0.0,0.0,0.0,0.0,0.0,0.0,0.0,0.0,0.0,0.0,0.0,0.0,0.0,0.0,0.0,0.0,0.0,0.0,0.0,0.0,0.0,0.0,0.0,0.0,0.0,0.0,0.0,-5.1551,-5.2325,-5.145,-5.1023,-5.1109,-5.1189,-5.0304,-4.8499,-5.0264,-5.0134,-4.8451,-5.0202,-5.1004,-5.0945,0.0,-5.0093,-5.0918,-4.9976,-5.0176,-5.105,-5.1092,-5.1375,-5.1755,-5.1755,-5.2018,-5.2348,-5.2372,-5.1869,-5.1337,-5.2197,-5.2239,-5.2212,-5.3896,-5.435,-5.456,-5.5835,-5.626,-5.6241,-5.5792,-5.6007,-5.6221,-5.5773,-5.6063,-5.6422,-5.6338,-5.6281,-5.6239,-5.6185,-5.6193,-5.6341,-5.6795,-5.7292,-5.7585,-5.7562,-5.758,-5.7282,-5.6401,-5.5501,-5.481,-5.446,-5.4048,-5.3798,-5.3837,-5.3837,-5.3844,-5.3883,-5.3218,-5.2181,-5.0814,-5.071,-5.0507,-5.011,-5.0484,-5.0738,-5.0809,-5.1199,-5.1394,-5.1394,-5.1394,-5.1199,-1.5648,-1.6031,-1.7058,-1.9804,0.0,0.0,0.0,0.0,0.0,0.0,0.0,0.0,0.0,0.0,0.0,0.0,0.0,0.0,0.0,0.0,0.0,0.0,0.0,0.0,0.0,0.0,0.0,0.0,0.0,0.0,0.0,0.0,-5.1567,-5.2809,-5.1528,-5.0906,-5.1074,-5.1062,-5.0352,-4.8996,-5.0352,-5.0261,-4.8977,-5.0344,-5.0953,-5.0875,-4.9485,-4.9674,-5.0856,-4.9514,-4.9788,-5.1023,-5.1086,-5.1233,-5.1428,-5.1653,-5.1614,-5.1505,-5.2072,-5.1768,-5.1369,-5.2809,-5.288,-5.2698,-5.4388,-5.4802,-5.49,-5.5753,-5.5986,-5.585,-5.5314,-5.5611,-5.5927,-5.5294,-5.5702,-5.62,-5.6093,-5.6044,-5.6013,-5.5968,-5.5823,-5.5981,-5.6839,-5.71,-5.7243,-5.7385,-5.7459,-5.716,-5.6194,-5.5313,-5.4701,-5.4502,-5.3741,-5.3211,-5.3063,-5.3238,-5.303,-5.2311,-5.3077,-5.2778,-5.102,-5.0523,-5.0293,-5.0318,-5.0299,-5.0547,-5.1031,-5.1219,-5.1316,-5.1316,-5.1316,-5.1205,-1.6384,-1.6054,-1.6308,-1.9651,0.0,0.0,0.0,0.0,0.0,0.0,0.0,0.0,0.0,0.0,0.0,0.0,0.0,0.0,0.0,0.0,0.0,0.0,0.0,0.0,0.0,0.0,0.0,0.0,0.0,0.0,0.0,0.0,0.0,-5.0913,-5.0906,-5.0827,-5.0738,-5.0849,-5.0947,-5.0996,-5.0933,-5.0879,-5.0815,-5.0816,-5.0808,-5.0808,-5.0675,-5.0675,-5.0808,-5.0675,-5.0711,-5.0808,-5.0844,-5.1324,-5.2131,-5.3011,-5.2814,-5.2136,-5.2179,-5.1637,-5.1057,-5.2005,-5.2189,-5.2371,-5.4109,-5.4535,-5.461,-5.5476,-5.5643,-5.5585,-5.5849,-5.5949,-5.5996,-5.5939,-5.5955,-5.6024,-5.602,-5.5915,-5.581,-5.583,-5.5107,-5.4802,-5.5668,-5.5865,-5.6194,-5.7004,-5.7197,-5.6926,-5.6106,-5.5249,-5.4394,-5.3591,-5.2776,-5.1981,-5.1175,-5.1833,-5.1943,-5.1067,-5.1784,-5.2522,-5.3135,-5.1682,-5.0868,-5.0928,-5.0945,-5.0591,-4.9924,-5.0654,-5.1031,-5.1031,-5.1031,-5.0636,-1.5799,-1.6029,-1.6988,-2.0447,0.0,0.0,0.0,0.0,0.0,0.0,0.0,0.0,0.0,0.0,0.0,0.0,0.0,0.0,0.0,0.0,0.0,0.0,0.0,0.0,0.0,0.0,0.0,0.0,0.0,0.0,0.0,0.0,0.0,-4.9307,-4.9283,-4.9779,-5.0803,-5.0342,-5.0387,-5.1017,-5.0902,-5.0839,-5.0874,-5.0808,-5.0793,-5.0793,-5.0793,-5.0793,-5.081,-5.0846,-5.0863,-5.0863,-5.0861,-5.1051,-5.1396,-5.1741,-5.1957,-5.2003,-5.1501,-5.179,-5.2449,-5.2723,-5.3185,-5.3822,-5.4958,-5.5182,-5.5151,-5.5477,-5.5499,-5.538,-5.5032,-5.5322,-5.5568,-5.5073,-5.5383,-5.5788,-5.5714,-5.5646,-5.5581,-5.5557,-5.5297,-5.5385,-5.6338,-5.6536,-5.6674,-5.7041,-5.7098,-5.6556,-5.5131,-5.4147,-5.3473,-5.3186,-5.2953,-5.2893,-5.305,-5.2839,-5.2546,-5.2211,-5.2179,-5.2069,-5.1857,-5.1239,-5.1145,-5.1663,-5.1233,-5.1092,-5.1294,-5.1088,-5.1299,-5.1866,-5.1866,-5.2005,-1.5365,-1.5761,-1.6932,0.0,0.0,0.0,0.0,0.0,0.0,0.0,0.0,0.0,0.0,0.0,0.0,0.0,0.0,0.0,0.0,0.0,0.0,0.0,0.0,0.0,0.0,0.0,0.0,0.0,0.0,0.0,0.0,0.0,0.0,0.0,-4.7796,-4.8156,-4.9807,-4.92,-4.9296,-5.0113,-5.0052,-5.0289,-5.0844,-5.0844,-5.0844,-5.0844,-5.0844,-5.0844,-5.0844,-5.088,-5.0897,-5.0897,-5.0877,-5.0703,-5.0491,-5.0761,-5.1001,-5.1182,-5.1143,-5.1895,-5.2878,-5.3106,-5.3568,-5.4223,-5.4984,-5.4952,-5.468,-5.4973,-5.4828,-5.4473,-5.3958,-5.4441,-5.4915,-5.4384,-5.453,-5.4821,-5.504,-5.5097,-5.515,-5.5375,-5.527,-5.5412,-5.6348,-5.6319,-5.6284,-5.6592,-5.6609,-5.6047,-5.4492,-5.3759,-5.3276,-5.3008,-5.3037,-5.3215,-5.3481,-5.2935,-5.2449,-5.2181,-5.1801,-5.1467,-5.1147,-5.086,-5.0974,-5.1549,-5.1065,-5.1078,-5.166,-5.1111,-5.116,-5.179,-5.179,-5.2114,-1.533,-1.527,0.0,0.0,0.0,0.0,0.0,0.0,0.0,0.0,0.0,0.0,0.0,0.0,0.0,0.0,0.0,0.0,0.0,0.0,0.0,0.0,0.0,0.0,0.0,0.0,0.0,0.0,0.0,0.0,0.0,0.0,0.0,0.0,-4.6632,-4.5995,-4.7465,-4.7417,-4.7719,-4.8411,-4.8334,-4.9203,-5.0887,-5.0887,-5.0887,-5.0887,-5.0887,-5.0887,-5.0906,-5.089,-5.089,-5.089,-5.0808,-5.0272,-4.9616,-5.0465,-5.0218,-4.9663,-5.1318,-5.1914,-5.2028,-5.2833,-5.2992,-5.3073,-5.3934,-5.3473,-5.2876,-5.383,-5.3473,-5.2805,-5.2805,-5.3435,-5.4085,-5.4085,-5.3435,-5.3077,-5.4011,-5.4202,-5.4475,-5.5308,-5.4852,-5.4545,-5.5351,-5.4879,-5.4696,-5.5481,-5.564,-5.5333,-5.4396,-5.4326,-5.4019,-5.3,-5.2905,-5.2533,-5.1677,-5.1648,-5.1289,-5.0359,-5.0302,-5.0684,-5.1563,-5.076,-5.0344,-5.0412,-5.0412,-5.0435,-5.05,-5.05,-5.05,-5.05,-5.05,-5.0519,-1.6808,0.0,0.0,0.0,0.0,0.0,0.0,0.0,0.0,0.0,0.0,0.0,0.0,0.0,0.0,0.0,0.0,0.0,0.0,0.0,0.0,0.0,0.0,0.0,0.0,0.0,0.0,0.0,0.0,0.0,0.0,0.0,0.0,0.0,-4.605,-4.5745,-4.596,-4.6725,-4.7477,-4.8176,-4.8178,-4.8482,-4.9068,-4.9068,-4.9068,-4.9068,-4.9068,-4.9379,-4.9958,-5.0468,-5.07,-5.07,-5.0663,-5.0509,-5.0317,-5.0623,-5.0875,-5.1065,-5.1009,-5.1759,-5.2679,-5.2245,-5.251,-5.3004,-5.3159,-5.2996,-5.2837,-5.311,-5.2996,-5.2805,-5.2805,-5.2575,-5.248,-5.3053,-5.3503,-5.3853,-5.4145,-5.469,-5.502,-5.4718,-5.491,-5.5067,-5.4767,-5.4975,-5.5305,-5.5602,-5.5094,-5.41,-5.259,-5.2464,-5.2579,-5.2815,-5.2313,-5.2122,-5.2422,-5.1376,-5.0612,-5.0321,-5.0302,-5.0417,-5.0665,-5.0436,-5.0588,-5.1243,-5.0696,-5.0699,-5.1335,-5.0766,-5.0809,-5.1408,-5.1408,-5.1774,-1.7537,0.0,0.0,0.0,0.0,0.0,0.0,0.0,0.0,0.0,0.0,0.0,0.0,0.0,0.0,0.0,0.0,0.0,0.0,0.0,0.0,0.0,0.0,0.0,0.0,0.0,0.0,0.0,0.0,0.0,0.0,0.0,0.0,0.0,-4.5657,-4.558,-4.5411,-4.6262,-4.6935,-4.7395,-4.7578,-4.7537,-4.7374,-4.7951,-4.8214,-4.8214,-4.8214,-4.8503,-4.8967,-4.9394,-4.9567,-4.9606,-4.9586,-4.9355,-4.9106,-4.949,-4.9662,-4.9733,-4.9927,-5.0675,-5.1475,-5.117,-5.1457,-5.1939,-5.2212,-5.2054,-5.1844,-5.2231,-5.2059,-5.1811,-5.1811,-5.1448,-5.1295,-5.2136,-5.2485,-5.2762,-5.313,-5.3613,-5.4062,-5.4303,-5.4434,-5.4588,-5.4869,-5.4713,-5.469,-5.5143,-5.4092,-5.3096,-5.27,-5.205,-5.1954,-5.2709,-5.2389,-5.216,-5.2308,-5.1415,-5.0688,-5.0321,-5.0302,-5.0302,-5.0302,-5.0302,-5.055,-5.1066,-5.0593,-5.0616,-5.1132,-5.0661,-5.0706,-5.1188,-5.1188,-5.1497,0.0,0.0,0.0,0.0,0.0,0.0,0.0,0.0,0.0,0.0,0.0,0.0,0.0,0.0,0.0,0.0,0.0,0.0,0.0,0.0,0.0,0.0,0.0,0.0,0.0,0.0,0.0,0.0,0.0,0.0,0.0,0.0,0.0,-4.5551,-4.5399,-4.5399,-4.5513,-4.5903,-4.6187,0.0,-4.6656,-4.6523,-4.6036,-4.7406,-4.801,-4.801,-4.801,-4.801,-4.7991,-4.7949,-4.797,-4.803,-4.8025,-4.7543,-4.697,-4.7811,-4.7556,-4.701,-4.8594,-4.9129,-4.9239,-4.9915,-5.012,-5.0272,-5.1072,-5.0767,-5.0378,-5.1305,-5.0947,-5.0321,-5.0397,-5.0359,-5.0512,-5.1295,-5.0932,-5.065,-5.1522,-5.1752,-5.2315,-5.3942,-5.3651,-5.3612,-5.5201,-5.4218,-5.3486,-5.4239,-5.2944,-5.2395,-5.3781,-5.2662,-5.1964,-5.2614,-5.2762,-5.2494,-5.1773,-5.1629,-5.1251,-5.0474,-5.034,-5.0302,-5.0302,-5.0302,-5.0302,-5.0302,-5.0302,-5.0302,-5.0302,-5.0302,-5.0302,-5.0302,-5.0302,-5.0302,0.0,0.0,0.0,0.0,0.0,0.0,0.0,0.0,0.0,0.0,0.0,0.0,0.0,0.0,0.0,0.0,0.0,0.0,0.0,0.0,0.0,0.0,0.0,0.0,0.0,0.0,0.0,0.0,0.0,0.0,0.0,0.0,0.0,-4.5128,-4.4896,-4.4805,-4.4896,-4.5038,-4.5829,0.0,-4.5859,-4.576,-4.6835,-4.7129,-4.7238,-4.7219,-4.7296,-4.729,-4.7224,-4.7333,-4.7384,-4.7441,-4.8026,-4.8159,-4.8128,-4.8823,-4.9031,-4.8983,-4.9305,-4.9391,-4.9372,-4.9514,-4.9541,-4.9521,-4.9709,-4.9825,-5.0073,-5.0973,-5.0761,-5.0455,-5.1142,-5.0818,-5.0359,-5.055,-5.1017,-5.1442,-5.1656,-5.2238,-5.2858,-5.3226,-5.375,-5.398,-5.3632,-5.3865,-5.3903,-5.3338,-5.2973,-5.2583,-5.2198,-5.2432,-5.2413,-5.1907,-5.1868,-5.2064,-5.2499,-5.1357,-5.0822,-5.1295,-5.0684,-5.0302,-5.0302,-5.0302,-5.0302,-5.0302,-5.0302,-5.0302,-5.0302,-5.0302,-5.0302,-5.0302,-5.0302,-5.0302,0.0,0.0,0.0,0.0,0.0,0.0,0.0,0.0,0.0,0.0,0.0,0.0,0.0,0.0,0.0,0.0,0.0,0.0,0.0,0.0,0.0,0.0,0.0,0.0,0.0,0.0,0.0,0.0,0.0,0.0,0.0,-4.4612,-4.4449,-4.3962,-4.4266,-4.414,-4.353,-4.4557,-4.5425,-4.6054,-4.5615,-4.5873,-4.6694,-4.6938,-4.6826,-4.6495,-4.6504,-4.6296,-4.5903,-4.5976,-4.6002,-4.607,-4.6854,-4.7127,-4.7203,-4.7974,-4.8246,-4.8227,-4.8209,-4.816,-4.8206,-4.8649,-4.875,-4.8814,-4.9171,-4.9424,-4.9665,-5.0118,-5.0345,-5.0597,-5.1033,-5.1174,-5.1163,-5.1163,-5.1097,-5.1036,-5.1036,-5.1385,-5.1852,-5.2296,-5.2414,-5.2567,-5.2935,-5.3398,-5.3533,-5.3046,-5.2621,-5.233,-5.2174,-5.2236,-5.2084,-5.1658,-5.1601,-5.1773,-5.2193,-5.1429,-5.1276,-5.2117,-5.1391,-5.1013,-5.1249,-5.0869,-5.052,-5.0302,-5.0302,-5.0302,-5.0302,-5.0302,-5.0302,-5.0302,-5.0302,-5.0302,0.0,0.0,0.0,0.0,0.0,0.0,0.0,0.0,0.0,0.0,0.0,0.0,0.0,0.0,0.0,0.0,0.0,0.0,0.0,0.0,0.0,0.0,0.0,0.0,0.0,0.0,0.0,0.0,0.0,0.0,-4.4383,-4.4248,-4.3815,-4.3023,-4.3791,-4.3592,-4.225,-4.4165,-4.4904,-4.4414,-4.5508,-4.5981,-4.5833,-4.6506,-4.6562,-4.6168,-4.6017,-4.566,-4.518,-4.4898,-4.4812,-4.4888,-4.5519,-4.5782,-4.5931,-4.6746,-4.7079,-4.7093,-4.7112,-4.7062,-4.7174,-4.7884,-4.814,-4.8271,-4.8907,-4.9177,-4.9227,-4.9409,-4.9922,-5.0522,-5.0854,-5.1393,-5.1895,-5.2076,-5.1328,-5.0602,-5.0602,-5.0602,-5.0874,-5.1806,-5.1381,-5.1299,-5.2815,-5.293,-5.2872,-5.3025,-5.2422,-5.2182,-5.2774,-5.2253,-5.1777,-5.1624,-5.1624,-5.1682,-5.1879,-5.1745,-5.2012,-5.2838,-5.2107,-5.1851,-5.2229,-5.1508,-5.094,-5.0558,-5.0539,-5.0539,-5.0539,-5.0539,-5.0539,-5.0539,-5.0539,-5.0539,0.0,0.0,0.0,0.0,0.0,0.0,0.0,0.0,0.0,0.0,0.0,0.0,0.0,0.0,0.0,0.0,0.0,0.0,0.0,0.0,0.0,0.0,0.0,0.0,0.0,0.0,0.0,0.0,0.0,0.0,-4.4005,-4.4011,-4.3937,-4.3769,-4.3955,-4.352,-4.2393,-4.3571,-4.4147,-4.4092,-4.4976,-4.5032,-4.4326,-4.5164,-4.6155,-4.7157,-4.6502,-4.6624,-4.7125,-4.576,-4.5214,-4.5214,-4.5226,-4.569,-4.6466,-4.7098,-4.777,-4.8362,-4.8292,-4.8218,-4.8126,-4.8237,-4.8273,-4.8292,-4.8402,-4.8658,-4.9015,-4.9775,-4.9749,-4.984,-5.1437,-5.1362,-5.1111,-5.1895,-5.1956,-5.1865,-5.1865,-5.1865,-5.2122,-5.3005,-5.3032,-5.3002,-5.3299,-5.2632,-5.2315,-5.3142,-5.31,-5.305,-5.3113,-5.2956,-5.2516,-5.1764,-5.1688,-5.204,-5.2906,-5.2303,-5.2246,-5.3169,-5.2371,-5.1895,-5.1946,-5.1732,-5.1568,-5.1519,-5.1519,-5.1519,-5.1519,-5.1519,-5.1519,-5.1519,-5.1519,-5.1519,0.0,0.0,0.0,0.0,0.0,0.0,0.0,0.0,0.0,0.0,0.0,0.0,0.0,0.0,0.0,0.0,0.0,0.0,0.0,0.0,0.0,0.0,0.0,0.0,0.0,0.0,0.0,0.0,0.0,-4.4017,-4.3897,-4.3929,-4.3521,-4.2582,-4.3021,-4.2681,-4.1516,-4.2259,-4.2872,-4.3336,-4.3262,-4.3262,-4.3336,-4.3262,-4.4326,-4.6227,-4.589,-4.5945,-4.6242,-4.5584,-4.5287,-4.5342,-4.5737,-4.6094,-4.6468,-4.7215,-4.7994,-4.8587,-4.8587,-4.8476,-4.8401,-4.8401,-4.8363,-4.8306,-4.8306,-4.8402,-4.8606,-4.8993,-4.9305,-4.9836,-5.115,-5.1593,-5.1889,-5.2819,-5.3059,-5.3024,-5.3008,-5.2498,-5.2208,-5.2609,-5.2654,-5.2786,-5.3312,-5.3013,-5.2837,-5.3289,-5.327,-5.3005,-5.2535,-5.2325,-5.2123,-5.1748,-5.2128,-5.2663,-5.3155,-5.3268,-5.3508,-5.4012,-5.3163,-5.2738,-5.3003,-5.2449,-5.2269,-5.2548,-5.198,-5.171,-5.171,-5.171,-5.171,-5.171,-5.171,-5.171,0.0,0.0,0.0,0.0,0.0,0.0,0.0,0.0,0.0,0.0,0.0,0.0,0.0,0.0,0.0,0.0,0.0,0.0,0.0,0.0,0.0,0.0,0.0,0.0,0.0,0.0,0.0,0.0,0.0,-4.3063,-4.3299,-4.3286,-4.2749,-4.1545,-4.2051,-4.1804,-4.0632,-4.1263,-4.1876,-4.2451,-4.1887,-4.1906,-4.2463,-4.1664,-4.2407,-4.4376,-4.4785,-4.5324,-4.5881,-4.5472,-4.5528,-4.59,-4.5881,-4.6201,-4.6709,-4.7154,-4.7863,-4.8642,-4.8642,-4.8587,-4.8532,-4.8513,-4.8419,-4.8344,-4.8306,-4.8306,-4.8306,-4.8306,-4.8785,-4.9581,-5.0506,-5.1415,-5.2306,-5.3235,-5.3626,-5.3774,-5.3695,-5.3048,-5.2536,-5.2794,-5.278,-5.3001,-5.3682,-5.3729,-5.3672,-5.3513,-5.3343,-5.3035,-5.2398,-5.2148,-5.2095,-5.2076,-5.2692,-5.3155,-5.3312,-5.3875,-5.4265,-5.4401,-5.3718,-5.3489,-5.3833,-5.3347,-5.3096,-5.323,-5.2717,-5.2354,-5.206,-5.2095,-5.2095,-5.206,-5.2095,-5.2095,0.0,0.0,0.0,0.0,0.0,0.0,0.0,0.0,0.0,0.0,0.0,0.0,0.0,0.0,0.0,0.0,0.0,0.0,0.0,0.0,0.0,0.0,0.0,0.0,0.0,0.0,0.0,0.0,0.0,-4.0778,-4.1683,-4.1649,-4.16,-4.1508,-4.1484,-4.1046,-4.0159,-4.1051,-4.1526,-4.1563,-4.1598,-4.1609,-4.1627,-4.0828,-4.094,-4.1869,-4.341,-4.5398,-4.746,-4.5918,-4.6197,-4.7348,-4.5026,-4.5565,-4.7553,-4.6828,-4.7485,-4.8787,-4.8787,-4.8697,-4.8587,-4.8532,-4.8513,-4.8457,-4.8363,-4.8306,-4.8306,-4.8306,-4.8343,-4.8601,-4.9544,-5.0488,-5.1415,-5.2343,-5.3179,-5.3774,-5.3695,-5.3563,-5.3672,-5.4587,-5.4637,-5.4637,-5.4791,-5.4809,-5.455,-5.379,-5.3563,-5.3487,-5.3391,-5.3249,-5.3143,-5.3212,-5.3249,-5.3385,-5.366,-5.3716,-5.3773,-5.3851,-5.3756,-5.3697,-5.3695,-5.4282,-5.4179,-5.3318,-5.4105,-5.4086,-5.3101,-5.3189,-5.3189,-5.3101,-5.3189,-5.3189,0.0,0.0,0.0,0.0,0.0,0.0,0.0,0.0,0.0,0.0,0.0,0.0,0.0,0.0,0.0,0.0,0.0,0.0,0.0,0.0,0.0,0.0,0.0,0.0,0.0,0.0,0.0,0.0,0.0,0.0,-3.9955,-3.9964,-3.9713,-3.9222,-3.9676,-3.9507,-3.8617,-3.896,-3.9626,-4.0614,-4.0155,-4.0185,-4.0667,-3.9908,-4.003,-4.0847,-4.1441,-4.3392,-4.6141,-4.6085,-4.6717,-4.7553,-4.6141,-4.6457,-4.7608,-4.6791,-4.7482,-4.8874,-4.8874,-4.8804,-4.8697,-4.8605,-4.8532,-4.8457,-4.8363,-4.8306,-4.8306,-4.8306,-4.8306,-4.8508,-4.945,-5.0376,-5.1489,-5.2994,-5.355,-5.3734,-5.3598,-5.3598,-5.3896,-5.4751,-5.4859,-5.484,-5.496,-5.4941,-5.4682,-5.3884,-5.3676,-5.3616,-5.3616,-5.3477,-5.3418,-5.344,-5.3879,-5.4031,-5.3595,-5.4118,-5.4251,-5.3771,-5.3695,-5.3714,-5.3714,-5.3835,-5.3976,-5.4073,-5.3994,-5.3695,-5.3254,-5.3359,-5.3359,-5.3272,-5.3792,-5.3731,0.0,0.0,0.0,0.0,0.0,0.0,0.0,0.0,0.0,0.0,0.0,0.0,0.0,0.0,0.0,0.0,0.0,0.0,0.0,0.0,0.0,0.0,0.0,0.0,0.0,0.0,0.0,0.0,0.0,0.0,-3.8265,-3.8275,-3.8006,-3.7441,-3.7942,-3.7933,-3.7359,-3.7896,-3.8662,-3.9686,-3.9486,-3.9663,-4.0174,-3.9416,-3.9537,-4.0401,-4.0401,-4.2259,-4.5324,-4.5565,-4.6624,-4.798,-4.6624,-4.6754,-4.7608,-4.6791,-4.7348,-4.8537,-4.8816,-4.8874,-4.8822,-4.8678,-4.8624,-4.8569,-4.8401,-4.8363,-4.8363,-4.8306,-4.8306,-4.8434,-4.9062,-5.0173,-5.1563,-5.3385,-5.3754,-5.3676,-5.3598,-5.3558,-5.3798,-5.463,-5.504,-5.5155,-5.4917,-5.5405,-5.5334,-5.394,-5.3917,-5.401,-5.3732,-5.3838,-5.3795,-5.3576,-5.4279,-5.4537,-5.4063,-5.4325,-5.442,-5.4142,-5.3882,-5.3845,-5.4123,-5.4343,-5.4652,-5.5027,-5.4929,-5.45,-5.3865,-5.3647,-5.3647,-5.3764,-5.4082,-5.4041,0.0,0.0,0.0,0.0,0.0,0.0,0.0,0.0,0.0,0.0,0.0,0.0,0.0,0.0,0.0,0.0,0.0,0.0,0.0,0.0,0.0,0.0,0.0,0.0,0.0,0.0,0.0,0.0,0.0,-3.6593,-3.6612,-3.6552,-3.6509,-3.6473,-3.6454,-3.6436,-3.6473,-3.8024,-3.8818,-3.8836,-3.9649,-4.0067,-4.0089,-3.9378,-3.9536,-4.0401,-4.042,-4.2259,-4.5157,-4.4302,-4.59,-4.863,-4.6234,-4.629,-4.7646,-4.6828,-4.7033,-4.785,-4.863,-4.8909,-4.8909,-4.8822,-4.8787,-4.8751,-4.8569,-4.8513,-4.8457,-4.8363,-4.8306,-4.8306,-4.8343,-4.9691,-5.1545,-5.3347,-5.3794,-5.3774,-5.3695,-5.3518,-5.3576,-5.446,-5.5341,-5.5641,-5.4796,-5.6228,-5.6592,-5.3927,-5.43,-5.4621,-5.3843,-5.4319,-5.4445,-5.3825,-5.4473,-5.4976,-5.5018,-5.4333,-5.4203,-5.4964,-5.4296,-5.4221,-5.4983,-5.5837,-5.6262,-5.6162,-5.7023,-5.667,-5.501,-5.4158,-5.4081,-5.4681,-5.4081,-5.4115,-1.4611,0.0,0.0,0.0,0.0,0.0,0.0,0.0,0.0,0.0,0.0,0.0,0.0,0.0,0.0,0.0,0.0,0.0,0.0,0.0,0.0,0.0,0.0,0.0,0.0,0.0,0.0,0.0,-3.4117,-3.4271,-3.4847,-3.486,-3.5131,-3.5762,-3.5168,-3.5125,-3.5695,-3.6139,-3.6629,-3.7174,-3.8044,-3.846,-3.8479,-3.9546,-4.0131,-4.042,-4.1014,-4.211,-4.3466,-4.3225,-4.5064,-4.785,-4.6011,-4.6643,-4.8481,-4.7664,-4.7887,-4.8612,-4.8816,-4.8909,-4.8909,-4.8822,-4.8787,-4.8787,-4.8624,-4.8569,-4.8569,-4.8532,-4.8458,-4.8586,-4.9174,-5.021,-5.1415,-5.2529,-5.3329,-5.3774,-5.3695,-5.3656,-5.4004,-5.541,-5.5794,-5.5886,-5.5825,-5.6741,-5.6818,-5.4886,-5.4793,-5.4907,-5.4684,-5.4793,-5.4849,-5.4665,-5.5408,-5.5869,-5.5773,-5.5686,-5.5408,-5.4957,-5.5371,-5.5429,-5.502,-5.5837,-5.6521,-5.6955,-5.6763,-5.693,-5.7511,-5.5591,-5.4698,-5.4859,-5.517,-5.6053,0.0,0.0,0.0,0.0,0.0,0.0,-1.7578,-1.9141,0.0,0.0,0.0,0.0,0.0,0.0,0.0,0.0,0.0,0.0,0.0,0.0,0.0,0.0,0.0,0.0,0.0,0.0,0.0,-3.246,-3.3096,-3.3714,-3.416,-3.4197,-3.442,-3.494,-3.4457,-3.4433,-3.4884,-3.5229,-3.5629,-3.6038,-3.7184,-3.7766,-3.7831,-3.9155,-3.9991,-4.042,-4.0903,-4.1553,-4.2296,-4.2296,-4.4042,-4.6605,-4.5658,-4.6364,-4.7887,-4.7757,-4.7776,-4.7999,-4.8667,-4.8686,-4.8463,-4.8746,-4.8839,-4.8804,-4.8732,-4.8678,-4.8678,-4.8642,-4.8827,-4.9196,-4.9694,-5.0749,-5.1823,-5.2344,-5.3162,-5.3774,-5.3754,-5.3734,-5.3973,-5.484,-5.5262,-5.5392,-5.5158,-5.6187,-5.6432,-5.47,-5.5074,-5.5299,-5.4593,-5.5113,-5.528,-5.4574,-5.5261,-5.5853,-5.6166,-5.5909,-5.5816,-5.5999,-5.5835,-5.5689,-5.5559,-5.6042,-5.6633,-5.739,-5.732,-5.7561,-5.8095,-5.6002,-5.4981,-5.4939,-5.5714,-5.6747,0.0,0.0,0.0,0.0,0.0,0.0,-1.7682,-1.9568,-2.1461,0.0,0.0,0.0,0.0,0.0,0.0,0.0,0.0,0.0,0.0,0.0,0.0,0.0,0.0,0.0,0.0,-3.2925,-3.3101,-3.1764,-3.3157,-3.4104,-3.4197,-3.4197,-3.4197,-3.4197,-3.4197,-3.4197,-3.4197,-3.4902,-3.5266,-3.5284,-3.6749,-3.7505,-3.7655,-3.8549,-3.9457,-4.0354,-4.0447,-4.0837,-4.1431,-4.1494,-4.2953,-4.5157,-4.5157,-4.5695,-4.662,-4.7293,-4.714,-4.6731,-4.8129,-4.8166,-4.7701,-4.8519,-4.8779,-4.8763,-4.8785,-4.8822,-4.8768,-4.8642,-4.9178,-4.9788,-4.9936,-5.1157,-5.2381,-5.2531,-5.3218,-5.3813,-5.3813,-5.3754,-5.3695,-5.3539,-5.4285,-5.4637,-5.3798,-5.5124,-5.5742,-5.4105,-5.5145,-5.5614,-5.4128,-5.5243,-5.5577,-5.4091,-5.4741,-5.5596,-5.6376,-5.58,-5.6023,-5.7416,-5.619,-5.5689,-5.6283,-5.6469,-5.6859,-5.749,-5.8289,-5.8308,-5.7509,-5.6004,-5.528,-5.5317,-5.6172,-5.6952,0.0,0.0,0.0,0.0,0.0,0.0,-1.717,-1.7717,-1.8673,0.0,0.0,0.0,0.0,0.0,0.0,0.0,0.0,0.0,0.0,0.0,0.0,0.0,0.0,0.0,0.0,-3.0519,-3.0463,-3.0732,-3.2298,-3.351,-3.416,-3.4197,-3.4197,-3.4197,-3.4197,-3.4197,-3.4197,-3.4364,-3.4433,-3.4451,-3.5809,-3.6486,-3.657,-3.8396,-3.9502,-3.9952,-4.0596,-4.0664,-4.0357,-4.0891,-4.2364,-4.4246,-4.4246,-4.5207,-4.6592,-4.6759,-4.6736,-4.6706,-4.6959,-4.6945,-4.6945,-4.7698,-4.7924,-4.8054,-4.867,-4.8874,-4.8874,-4.8768,-4.8862,-4.914,-4.9769,-5.0694,-5.1602,-5.2288,-5.3124,-5.3813,-5.3813,-5.3774,-5.3774,-5.3736,-5.4364,-5.4843,-5.4719,-5.5575,-5.5967,-5.4888,-5.5018,-5.515,-5.4816,-5.5057,-5.5131,-5.4816,-5.6116,-5.7082,-5.7249,-5.7713,-5.7843,-5.7528,-5.7806,-5.7472,-5.6357,-5.7546,-5.8011,-5.7509,-5.8289,-5.8308,-5.7509,-5.7175,-5.7008,-5.7045,-5.7862,-5.8326,0.0,0.0,0.0,-1.8176,0.0,0.0,0.0,-1.843,-1.8803,0.0,0.0,0.0,0.0,0.0,0.0,0.0,0.0,0.0,0.0,0.0,0.0,0.0,0.0,0.0,0.0,-2.985,-2.9699,-3.0431,-3.1269,-3.2275,-3.3481,-3.3555,-3.3697,-3.403,-3.4148,-3.4148,-3.4049,-3.4148,-3.4148,-3.4067,-3.545,-3.6065,-3.606,-3.7824,-3.893,-3.9549,-4.0367,-4.0513,-4.0258,-4.1076,-4.1745,-4.2408,-4.364,-4.4906,-4.6225,-4.7143,-4.7024,-4.6494,-4.702,-4.668,-4.6164,-4.7154,-4.7439,-4.748,-4.8237,-4.8402,-4.8364,-4.8382,-4.8581,-4.8836,-4.8912,-5.0262,-5.1577,-5.1634,-5.2732,-5.3717,-5.3502,-5.3444,-5.3345,-5.3101,-5.3739,-5.4307,-5.4385,-5.476,-5.4909,-5.4481,-5.4896,-5.5064,-5.464,-5.4954,-5.5064,-5.464,-5.5214,-5.5819,-5.6227,-5.6617,-5.7045,-5.7472,-5.71,-5.6878,-5.6896,-5.7286,-5.7695,-5.8103,-5.8494,-5.8512,-5.8103,-5.8103,-5.7899,-5.7509,-5.7918,-5.8326,0.0,0.0,0.0,0.0,0.0,-1.8385,0.0,0.0,0.0,-1.9624,0.0,0.0,0.0,0.0,0.0,0.0,0.0,0.0,0.0,0.0,0.0,0.0,0.0,0.0,0.0,-2.9116,-2.9283,-3.0435,-3.0613,-3.1279,-3.2622,-3.2945,-3.3259,-3.3655,-3.3975,-3.4104,-3.4062,-3.4123,-3.4123,-3.4054,-3.5305,-3.583,-3.5729,-3.7156,-3.8275,-3.9174,-3.9842,-4.0149,-4.0239,-4.1125,-4.098,-4.0456,-4.2668,-4.4106,-4.5149,-4.6801,-4.6764,-4.595,-4.7006,-4.6535,-4.563,-4.678,-4.7169,-4.7236,-4.7831,-4.7893,-4.7834,-4.7951,-4.8288,-4.8605,-4.848,-4.9994,-5.1513,-5.1265,-5.2404,-5.3444,-5.3036,-5.295,-5.2882,-5.259,-5.3044,-5.3462,-5.3496,-5.3653,-5.3764,-5.3764,-5.454,-5.492,-5.4389,-5.492,-5.5084,-5.4389,-5.4257,-5.4463,-5.511,-5.5313,-5.596,-5.7352,-5.6127,-5.5923,-5.7149,-5.6594,-5.6969,-5.8535,-5.8553,-5.8614,-5.8716,-5.8716,-5.8382,-5.7732,-5.7732,-5.8085,0.0,0.0,0.0,0.0,-1.8736,0.0,0.0,0.0,-1.809,-1.8155,0.0,0.0,0.0,0.0,0.0,0.0,0.0,0.0,0.0,0.0,0.0,0.0,0.0,0.0,0.0,0.0,-2.7809,-3.0386,-3.1066,-3.1547,-3.1912,-3.3118,-3.3497,-3.2863,-3.3552,-3.4146,-3.4619,-3.4164,-3.4164,-3.4608,-3.5196,-3.5436,-3.5393,-3.6737,-3.7931,-3.8959,-3.9103,-3.9229,-3.9409,-4.0094,-3.982,-3.9172,-4.0616,-4.1716,-4.2608,-4.3558,-4.4252,-4.4874,-4.559,-4.5755,-4.5718,-4.6501,-4.7168,-4.7765,-4.7955,-4.7893,-4.7834,-4.7951,-4.7947,-4.827,-4.976,-5.0247,-5.0714,-5.2025,-5.248,-5.2589,-5.2436,-5.2391,-5.2608,-5.338,-5.2971,-5.2454,-5.2454,-5.3145,-5.3681,-5.3525,-5.3642,-5.3958,-5.4544,-5.4707,-5.4725,-5.4635,-5.5257,-5.5704,-5.5795,-5.6449,-5.6921,-5.712,-5.6957,-5.663,-5.6104,-5.5995,-5.6616,-5.7932,-5.8015,-5.8213,-5.8716,-5.8716,-5.8661,-5.8568,-5.8568,-5.8624,0.0,0.0,0.0,0.0,0.0,0.0,-1.9898,0.0,-1.7983,0.0,0.0,0.0,0.0,0.0,0.0,0.0,0.0,0.0,0.0,0.0,0.0,0.0,0.0,0.0,0.0,0.0,0.0,0.0,0.0,-2.8863,-2.9826,-3.0954,-3.1991,-3.29,-3.3368,-3.3876,-3.4455,-3.4368,-3.4368,-3.4473,-3.4691,-3.4891,-3.5206,-3.6184,-3.7317,-3.8658,-3.9142,-3.9643,-4.0164,-4.0542,-4.041,-4.0032,-3.975,-4.0689,-4.2368,-4.3808,-4.4595,-4.5071,-4.6026,-4.6027,-4.5678,-4.62,-4.674,-4.7214,-4.7196,-4.7107,-4.7017,-4.7151,-4.7017,-4.7069,-4.8066,-4.9046,-4.9983,-5.0805,-5.1774,-5.2409,-5.2196,-5.2006,-5.1969,-5.2148,-5.219,-5.2261,-5.2261,-5.3057,-5.3671,-5.353,-5.4102,-5.4622,-5.493,-5.4914,-5.4914,-5.4914,-5.5094,-5.5202,-5.5202,-5.5509,-5.5907,-5.6342,-5.6862,-5.6754,-5.5926,-5.6324,-5.6871,-5.7395,-5.7462,-5.7558,-5.7766,-5.7766,-5.7766,-5.7812,-5.8406,-5.8716,-2.2082,0.0,0.0,0.0,0.0,0.0,0.0,0.0,0.0,0.0,0.0,0.0,0.0,0.0,0.0,0.0,0.0,0.0,0.0,0.0,0.0,0.0,0.0,0.0,0.0,0.0,0.0,-2.6088,-2.6386,-2.7085,-2.8474,-2.9569,-3.0975,-3.2739,-3.3153,-3.3719,-3.453,-3.4718,-3.4826,-3.4837,-3.4804,-3.5007,-3.5386,-3.613,-3.7173,-3.8443,-3.9319,-4.0015,-4.0565,-4.0895,-4.09,-4.0597,-3.9519,-4.0289,-4.2132,-4.3486,-4.4435,-4.5201,-4.6241,-4.6339,-4.6041,-4.6259,-4.6561,-4.6795,-4.6684,-4.6542,-4.6495,-4.659,-4.6447,-4.642,-4.6968,-4.8253,-4.9496,-4.9916,-5.1146,-5.2119,-5.1866,-5.1637,-5.1472,-5.1476,-5.1687,-5.1985,-5.2445,-5.3133,-5.3657,-5.3774,-5.4507,-5.5079,-5.52,-5.5236,-5.5236,-5.5236,-5.5026,-5.493,-5.493,-5.493,-5.5163,-5.572,-5.6346,-5.64,-5.5791,-5.6364,-5.6704,-5.6861,-5.6861,-5.6964,-5.7116,-5.7116,-5.7116,-5.7116,-5.7905,-5.8257,0.0,0.0,0.0,-2.1928,0.0,0.0,0.0,0.0,-1.8091,0.0,0.0,0.0,0.0,0.0,0.0,0.0,0.0,0.0,0.0,0.0,0.0,0.0,0.0,0.0,0.0,0.0,0.0,-2.4987,-2.6387,-2.7615,-2.8634,-3.0087,-3.1217,-3.2007,-3.2793,-3.3854,-3.515,-3.5301,-3.5661,-3.6239,-3.6094,-3.6038,-3.5998,-3.6927,-3.7762,-3.8557,-3.9459,-3.9893,-3.9964,-4.0788,-4.0646,-3.995,-3.9896,-4.0396,-4.1145,-4.1199,-4.2662,-4.4732,-4.5561,-4.6329,-4.6954,-4.6989,-4.6916,-4.6795,-4.6778,-4.6684,-4.659,-4.659,-4.6495,-4.6623,-4.7707,-4.8476,-4.9206,-5.0083,-5.0934,-5.1505,-5.1333,-5.1193,-5.137,-5.229,-5.1634,-5.1454,-5.308,-5.3382,-5.3647,-5.4441,-5.4451,-5.4577,-5.5367,-5.5472,-5.5472,-5.5472,-5.5514,-5.5496,-5.5496,-5.5496,-5.5496,-5.5531,-5.5549,-5.5549,-5.5531,-5.5549,-5.5822,-5.6311,-5.6311,-5.6564,-5.7116,-5.7116,-5.7116,-5.7116,-5.7166,-5.7166,0.0,0.0,-2.6059,-2.5729,0.0,0.0,0.0,0.0,0.0,0.0,0.0,0.0,0.0,0.0,0.0,0.0,0.0,0.0,0.0,0.0,0.0,0.0,0.0,0.0,0.0,0.0,0.0,-2.2246,-2.2696,-2.3236,-2.3961,-2.6195,-2.8245,-2.9947,-3.1827,-3.3568,-3.5118,-3.5563,-3.5935,-3.6165,-3.5137,-3.5084,-3.5867,-3.5918,-3.654,-3.7662,-3.9228,-3.9914,-4.0003,-4.1341,-4.1716,-4.1431,-4.0895,-4.1199,-4.1877,-4.1877,-4.3036,-4.4803,-4.6123,-4.6766,-4.6998,-4.6998,-4.6888,-4.6795,-4.6795,-4.6637,-4.6495,-4.6495,-4.635,-4.6372,-4.6926,-4.8037,-4.9082,-4.9559,-5.0596,-5.1505,-5.1556,-5.1298,-5.1229,-5.1635,-5.1264,-5.1261,-5.2427,-5.2989,-5.3549,-5.4266,-5.4869,-5.5308,-5.5472,-5.5507,-5.5507,-5.5507,-5.5507,-5.5507,-5.5507,-5.5507,-5.5507,-5.5507,-5.5507,-5.5507,-5.5507,-5.5507,-5.5836,-5.647,-5.6011,-5.6109,-5.6798,-5.6301,-5.607,-5.607,-5.607,-5.6402,-2.6439,-2.7118,0.0,-2.7284,-2.5756,0.0,-2.4325,0.0,0.0,0.0,0.0,0.0,0.0,0.0,0.0,0.0,0.0,0.0,0.0,-1.7169,0.0,0.0,0.0,0.0,0.0,0.0,-1.9003,-1.997,-2.042,-2.0976,0.0,0.0,-2.6894,-2.8928,-3.124,-3.3141,-3.4518,-3.5095,-3.5548,-3.5962,-3.4867,-3.4986,-3.6116,-3.5819,-3.6119,-3.7001,-3.8907,-3.9757,-3.9882,-4.1505,-4.2187,-4.2234,-4.1635,-4.1742,-4.2251,-4.1966,-4.3036,-4.4839,-4.6444,-4.6998,-4.6998,-4.6998,-4.6934,-4.6842,-4.6824,-4.6637,-4.6495,-4.6495,-4.635,-4.627,-4.6542,-4.7563,-4.8625,-4.9137,-5.0186,-5.12,-5.1637,-5.1402,-5.1211,-5.1298,-5.1088,-5.1261,-5.2335,-5.2895,-5.3493,-5.4266,-5.5097,-5.5607,-5.5507,-5.5507,-5.5507,-5.5507,-5.5507,-5.5507,-5.5507,-5.5507,-5.5507,-5.5507,-5.5507,-5.5507,-5.5507,-5.5753,-5.6122,-5.6596,-5.6139,-5.6139,-5.6596,-5.5859,-5.5648,-5.5894,-5.5894,-5.6392]}]]